     2              OBSERVATION DATA    GPS                 RINEX VERSION / TYPE
teqc 2000Jul20 Karen Wendt 20030328 21:40:20UTC             PGM / RUN BY / DATE
                                                            COMMENT
L2: 1 -> 1; 150 -> 5; 250 -> 9                              COMMENT
L2: 1 -> 1; 150 -> 5; 250 -> 9                              COMMENT
L2: 1 -> 1; 150 -> 5; 250 -> 9                              COMMENT
L2: 1 -> 1; 150 -> 5; 250 -> 9                              COMMENT
L2: 1 -> 1; 150 -> 5; 250 -> 9                              COMMENT
L2: 1 -> 1; 150 -> 5; 250 -> 9                              COMMENT
L2: 1 -> 1; 150 -> 5; 250 -> 9                              COMMENT
L2: 1 -> 1; 150 -> 5; 250 -> 9                              COMMENT
L2: 1 -> 1; 150 -> 5; 250 -> 9                              COMMENT
L2: 1 -> 1; 150 -> 5; 250 -> 9                              COMMENT
L2: 1 -> 1; 150 -> 5; 250 -> 9                              COMMENT
L2: 1 -> 1; 150 -> 5; 250 -> 9                              COMMENT
L2: 1 -> 1; 150 -> 5; 250 -> 9                              COMMENT
L2: 1 -> 1; 150 -> 5; 250 -> 9                              COMMENT
Original Marker Name: tess Tessajera_1932_USC&GS            COMMENT
Campaign Name: USGS 2003                                    COMMENT
4-Character Station Name: TESS                              COMMENT
6-Character Antenna Code: DMRCHT                            COMMENT
Vertical Measurement Point: BCR                             COMMENT
Vertical Offset to Rinex Ref. Point: 0.0348                 COMMENT
Radial Measurement Point: ECF                               COMMENT
Radial Offset to Rinex Ref. Point: 0.1897                   COMMENT
Antenna Height from Field Measurement: 0.6520 m             COMMENT
Additional Antenna Identification Info.:                    COMMENT
Turborogue and Ashtech Choke Ring                           COMMENT
Original XYZ: -2657908.1035 -4476901.7491 3673324.4889      COMMENT
New XYZ position is based on association with SCEC monument COMMENT
E1F1A1S7+0011. Position of that monument is believed to be  COMMENT
valid to within 1 m horizontally; vertical accuracy         COMMENT
should be no worse than 3-times this value.                 COMMENT
                                                            COMMENT
Revised Rinex header created by UCSD GPS archive for        COMMENT
GSAC on 11-Jul-2003 (2003:192) 16:13:14 GMT                 COMMENT
For assistance contact dagnew@ucsd.edu                      COMMENT
or anderson@python.ucsd.edu                                 COMMENT
                                                            COMMENT
TESSAJERA 1932                                              MARKER NAME
JMS US GEOLOGICAL SURVEY                                    OBSERVER / AGENCY
ZE120023202 RECEIVER UNKNOWN ZC00                           REC # / TYPE / VERS
CR620022601 DORNE-MARGOL. TYPE T                            ANT # / TYPE
 -2657916.0978 -4476862.3605  3673308.9942                  APPROX POSITION XYZ
        0.5890        0.0000        0.0000                  ANTENNA: DELTA H/E/N
     1     1     0                                          WAVELENGTH FACT L1/2
     5    C1    L1    L2    P1    P2                        # / TYPES OF OBSERV
    30                                                      INTERVAL
  2003     3    26     0     0    0.000000                  TIME OF FIRST OBS
  2003     3    26    23    59   30.000000                  TIME OF LAST OBS
                                                            END OF HEADER
 03  3 26  0  0  0.0000000  0 10G 2G17G 3G14G16G 6G15G26G23G18
  24788291.993     -180012.82043   -135801.37142  24788293.140    24788295.633
  21045445.869   -25414286.57043 -19788353.68342  21045447.247    21045445.073
  22768764.527   -14301172.37743 -11085522.49442  22768766.453    22768765.041
  23642338.783    -8014307.04343  -6180213.73542  23642341.417    23642342.759
  24031810.863    -5661280.54643  -4357778.35342  24031812.353    24031812.507
  23681776.403    -8675973.61643  -6411956.57042  23681777.789    23681779.794
  20453697.553   -24534667.65444 -18653242.15542  20453699.070    20453696.695
  23272965.784    -9317228.57743  -7011933.13742  23272967.924    23272966.540
  20943509.559   -20874958.86344 -15764069.24042  20943511.063    20943508.641
  20385151.578   -26286426.89043 -20415916.65942  20385153.465    20385149.645
 03  3 26  0  0 30.0000000  0 10G 2G17G 3G14G16G 6G15G26G23G18
  24792362.205     -158623.65043   -119134.55942  24792363.401    24792365.974
  21050352.281   -25388503.07143 -19768262.64842  21050353.680    21050351.528
  22754550.818   -14375865.63843 -11143724.98842  22754552.751    22754551.336
  23621230.314    -8125231.99543  -6266648.51342  23621232.949    23621234.118
  24043301.113    -5600899.28143  -4310728.12342  24043302.504    24043302.710
  23702359.264    -8567810.53443  -6327673.84642  23702360.678    23702362.735
  20449197.665   -24558314.67444 -18671668.39542  20449199.190    20449196.799
  23290078.581    -9227300.49743  -6941859.36742  23290080.752    23290079.354
  20950057.652   -20840548.59944 -15737256.04542  20950059.138    20950056.697
  20386796.723   -26277781.44343 -20409179.93342  20386798.629    20386794.807
 03  3 26  0  1  0.0000000  0 10G 2G17G 3G14G16G 6G15G26G23G18
  24796496.370     -136898.17643   -102205.70342  24796497.698    24796500.186
  21055307.036   -25362465.60943 -19747973.72242  21055308.433    21055306.261
  22740408.174   -14450185.44743 -11201636.49142  22740410.097    22740408.708
  23600142.044    -8236050.73243  -6353000.52542  23600144.690    23600145.691
  24054839.626    -5540264.16843  -4263480.10642  24054841.063    24054841.332
  23722968.307    -8459509.98643  -6243284.02342  23722969.676    23722971.857
  20444745.070   -24581713.31944 -18689901.10442  20444746.587    20444744.171
  23307265.957    -9136980.47543  -6871480.17742  23307268.063    23307266.657
  20956651.830   -20805895.91344 -15710253.95642  20956653.328    20956650.844
  20388507.957   -26268788.71543 -20402172.60842  20388509.880    20388506.065
 03  3 26  0  1 30.0000000  0 10G 2G17G 3G14G16G 6G15G26G23G18
  24800699.189     -114812.06943    -84995.82342  24800700.630    24800703.084
  21060315.294   -25336147.05743 -19727465.75742  21060316.679    21060314.483
  22726341.947   -14524103.55243 -11259234.97142  22726343.893    22726342.499
  23579079.442    -8346734.23743  -6439247.16142  23579082.127    23579083.047
  24066430.858    -5479352.11043  -4216016.27842  24066432.418    24066432.548
  23743607.932    -8351048.31343  -6158768.64442  23743609.448    23743611.595
  20440344.827   -24604836.62544 -18707919.24742  20440346.369    20440343.944
  23324532.266    -9046245.46843  -6800777.61942  23324534.293    23324532.924
  20963296.809   -20770976.42344 -15683043.95942  20963298.283    20963295.775
  20390289.998   -26259423.97943 -20394875.39642  20390291.902    20390288.103
 03  3 26  0  2  0.0000000  0 10G 2G17G 3G14G16G 6G15G26G23G18
  24804965.060      -92395.26443    -67528.25842  24804966.398    24804968.943
  21065371.709   -25309575.30043 -19706760.49342  21065373.110    21065370.905
  22712347.276   -14597645.88143 -11316540.63242  22712349.206    22712347.838
  23558037.725    -8457308.24443  -6525408.47442  23558040.390    23558041.168
  24078068.906    -5418194.28243  -4168360.95442  24078070.388    24078070.589
  23764272.468    -8242456.20643  -6074151.61642  23764274.011    23764276.113
  20435991.903   -24627711.42144 -18725743.75442  20435993.442    20435991.020
  23341871.565    -8955126.63543  -6729775.98642  23341873.497    23341872.385
  20969986.851   -20735819.96044 -15655649.31542  20969988.358    20969985.793
  20392137.266   -26249716.34743 -20387311.00042  20392139.181    20392135.392
 03  3 26  0  2 30.0000000  0 10G 2G17G 3G14G16G 6G15G26G23G18
  24809290.937      -69663.09543    -49814.95942  24809292.271    24809294.815
  21070473.848   -25282763.39043 -19685868.09742  21070475.227    21070473.045
  22698421.959   -14670823.77343 -11373562.32342  22698423.880    22698422.485
  23537014.813    -8567783.49143  -6611492.81942  23537017.427    23537018.165
  24089750.509    -5356807.22043  -4120526.99542  24089751.974    24089752.280
  23784958.850    -8133749.55943  -5989445.36342  23784960.359    23784962.486
  20431683.822   -24650350.37544 -18743384.48542  20431685.350    20431682.967
  23359280.826    -8863640.59043  -6658488.20542  23359282.769    23359281.641
  20976719.113   -20700441.82444 -15628081.94342  20976720.588    20976718.017
  20394046.950   -26239680.94743 -20379491.20042  20394048.844    20394045.061
 03  3 26  0  3  0.0000000  0 10G 2G17G 3G14G16G 6G15G26G23G18
  24813683.493      -46580.51943    -31828.61642  24813684.766    24813687.304
  21075628.868   -25255673.48043 -19664759.07942  21075630.254    21075628.123
  22684573.481   -14743598.00843 -11430269.47142  22684575.417    22684573.974
  23516018.220    -8678120.18343  -6697469.19842  23516020.857    23516021.486
  24101482.219    -5295156.89443  -4072487.90342  24101483.694    24101484.035
  23805673.577    -8024893.90643  -5904622.99342  23805675.108    23805677.204
  20427427.833   -24672715.67544 -18760811.97842  20427429.331    20427427.017
  23376766.416    -8771753.47143  -6586887.90842  23376768.372    23376767.250
  20983500.199   -20664806.85744 -15600314.44342  20983501.699    20983499.113
  20396025.766   -26229282.12943 -20371388.21542  20396027.683    20396023.872
 03  3 26  0  3 30.0000000  0 10G 2G17G 3G14G16G 6G15G26G23G18
  24818139.303      -23165.79843    -13583.45542  24818140.534    24818143.038
  21080833.824   -25228321.21243 -19643445.62542  21080835.236    21080833.100
  22670799.111   -14815982.77643 -11486673.13742  22670801.056    22670799.539
  23495045.412    -8788332.03243  -6783348.29442  23495048.112    23495048.574
  24113260.380    -5233262.85643  -4024258.89642  24113261.723    24113262.127
  23826413.030    -7915908.03543  -5819699.15042  23826414.547    23826416.674
  20423220.989   -24694822.77244 -18778038.27642  20423222.468    20423220.174
  23394324.650    -8679484.49143  -6514990.04942  23394326.692    23394325.598
  20990326.775   -20628932.99344 -15572360.78742  20990328.272    20990325.679
  20398070.372   -26218537.60043 -20363015.84642  20398072.288    20398068.438
 03  3 26  0  4  0.0000000  0 10G 2G17G 3G14G16G 6G15G26G23G18
  24822660.401         591.91743      4928.97542  24822661.646    24822664.130
  21086091.220   -25200693.61243 -19621917.63342  21086092.617    21086090.461
  22657101.730   -14887962.94443 -11542761.52742  22657103.664    22657102.092
  23474099.170    -8898404.14643  -6869118.49642  23474101.976    23474102.348
  24125086.730    -5171115.57643  -3975832.57142  24125088.024    24125088.439
  23847179.215    -7806781.81843  -5734665.95142  23847180.713    23847182.908
  20419065.856   -24716657.99444 -18795052.72442  20419067.318    20419065.085
  23411957.274    -8586824.37043  -6442787.41542  23411959.364    23411958.223
  20997200.860   -20592809.57344 -15544212.67942  20997202.337    20997199.748
  20400182.939   -26207436.06443 -20354365.29642  20400184.830    20400180.940
 03  3 26  0  4 30.0000000  0  9G17G 3G14G16G 6G15G26G23G18
  21091399.958   -25172795.95043 -19600179.20542  21091401.404    21091399.213
  22643480.632   -14959542.05843 -11598537.41142  22643482.556    22643480.981
  23453179.058    -9008339.15643  -6954781.88142  23453181.831    23453182.166
  24136959.600    -5108723.60143  -3927215.55442  24136961.029    24136961.269
  23867970.594    -7697523.41843  -5649529.74942  23867972.024    23867974.209
  20414961.629   -24738225.91344 -18811858.88642  20414963.074    20414960.842
  23429662.722    -8493781.79443  -6370286.75742  23429664.786    23429663.620
  21004120.984   -20556443.95144 -15515875.83842  21004122.466    21004119.895
  20402362.106   -26195984.52143 -20345442.01142  20402363.984    20402360.063
 03  3 26  0  5  0.0000000  0  9G17G 3G14G16G 6G15G26G23G18
  21096755.821   -25144651.03743 -19578248.11542  21096757.241    21096755.037
  22629931.718   -15030741.74343 -11654017.63242  22629933.641    22629932.085
  23432281.013    -9118158.09543  -7040354.80442  23432283.791    23432284.114
  24148873.994    -5046113.41443  -3878428.50042  24148875.525    24148875.723
  23888782.210    -7588158.93343  -5564310.90042  23888783.629    23888785.762
  20410903.906   -24759549.39744 -18828474.58042  20410905.344    20410903.118
  23447435.871    -8400383.40743  -6297508.83542  23447437.977    23447436.758
  21011082.380   -20519861.53244 -15487370.06542  21011083.869    21011081.327
  20404603.087   -26184208.12443 -20336265.59642  20404604.971    20404601.019
 03  3 26  0  5 30.0000000  0  9G17G 3G14G16G 6G15G26G23G18
  21102164.857   -25116226.42043 -19556099.08142  21102166.308    21102164.086
  22616461.518   -15101527.73643 -11709175.50342  22616463.444    22616461.945
  23411411.731    -9227826.22243  -7125810.22742  23411414.457    23411414.696
  24160835.519    -4983256.14543  -3829448.92342  24160836.994    24160837.237
  23909619.515    -7478658.75743  -5478986.30742  23909621.088    23909623.108
  20406899.003   -24780595.29144 -18844873.96942  20406900.439    20406898.211
  23465282.206    -8306600.32243  -6224431.14842  23465284.290    23465283.168
  21018090.793   -20483031.95844 -15458671.70442  21018092.297    21018089.791
  20406911.721   -26172076.02543 -20326812.01042  20406913.623    20406909.682
 03  3 26  0  6  0.0000000  0  9G17G 3G14G16G 6G15G26G23G18
  21107622.772   -25087544.98543 -19533749.93042  21107624.239    21107622.013
  22603065.908   -15171921.66943 -11764027.87442  22603067.868    22603066.410
  23390567.092    -9337364.84143  -7211164.74442  23390569.800    23390570.010
  24172838.946    -4920178.86043  -3780297.91042  24172840.393    24172840.647
  23930477.672    -7369049.24143  -5393576.53442  23930479.191    23930481.320
  20402942.574   -24801386.46844 -18861074.87642  20402944.032    20402941.771
  23483196.624    -8212459.32843  -6151074.58342  23483198.695    23483197.562
  21025141.408   -20445980.88244 -15429800.74342  21025142.881    21025140.416
  20409283.366   -26159613.08043 -20317100.62342  20409285.254    20409281.299
 03  3 26  0  6 30.0000000  0  9G17G 3G14G16G 6G15G26G23G18
  21113131.221   -25058598.03343 -19511193.88142  21113132.706    21113130.463
  22589746.962   -15241913.05243 -11818566.56742  22589748.910    22589747.475
  23369749.290    -9446762.54643  -7296409.46442  23369751.978    23369752.119
  24184885.216    -4856875.97743  -3730971.11142  24184886.678    24184887.007
  23951357.854    -7259324.36443  -5308076.86542  23951359.266    23951361.500
  20399036.448   -24821913.38044 -18877069.86142  20399037.912    20399035.631
  23501180.204    -8117955.29743  -6077435.12942  23501182.168    23501181.248
  21032235.424   -20408701.49644 -15400751.87742  21032236.901    21032234.473
  20411719.275   -26146812.38343 -20307126.05042  20411721.153    20411717.183
 03  3 26  0  7  0.0000000  0  9G17G 3G14G16G 6G15G26G23G18
  21118691.068   -25029380.80343 -19488427.22842  21118692.553    21118690.355
  22576505.805   -15311495.66943 -11872786.74442  22576507.742    22576506.327
  23348959.484    -9556012.96443  -7381539.41842  23348962.218    23348962.264
  24196974.536    -4793346.62643  -3681467.84442  24196975.978    24196976.407
  23972260.161    -7149482.75343  -5222486.23342  23972261.606    23972263.892
  20395181.492   -24842171.37544 -18892855.30342  20395182.976    20395180.644
  23519233.143    -8023087.35143  -6003512.10942  23519235.037    23519234.044
  21039373.352   -20371191.49644 -15371523.31442  21039374.832    21039372.425
  20414219.874   -26133671.68543 -20296886.54542  20414221.779    20414217.767
 03  3 26  0  7 30.0000000  0  9G17G 3G14G16G 6G15G26G23G18
  21124300.033   -24999905.66843 -19465459.61642  21124301.491    21124299.296
  22563340.483   -15380680.02643 -11926696.59542  22563342.344    22563340.937
  23328195.779    -9665126.23243  -7466562.53042  23328198.509    23328198.548
  24209103.899    -4729606.66443  -3631800.46342  24209105.427    24209105.928
  23993181.867    -7039539.60443  -5136816.48742  23993183.316    23993185.511
  20391375.527   -24862171.97044 -18908440.17642  20391377.031    20391374.634
  23537352.244    -7927871.27443  -5929317.81742  23537354.198    23537353.163
  21046552.388   -20333465.41744 -15342126.37842  21046553.882    21046551.469
  20416782.495   -26120205.00444 -20286393.02942  20416784.415    20416780.376
 03  3 26  0  8  0.0000000  0  9G17G 3G14G16G 6G15G26G23G18
  21129960.604   -24970159.29943 -19442280.64942  21129962.011    21129959.887
  22550253.659   -15449451.58143 -11980284.78442  22550255.506    22550254.106
  23307461.074    -9774087.23743  -7551466.99342  23307463.782    23307463.729
  24221275.242    -4665646.60943  -3581961.59042  24221276.716    24221277.179
  24014124.759    -6929484.93543  -5051059.83842  24014126.155    24014128.405
  20387621.085   -24881901.66444 -18923813.95842  20387622.617    20387620.201
  23555539.443    -7832297.44543  -5854844.75142  23555541.308    23555540.378
  21053774.590   -20295512.55144 -15312552.72342  21053776.067    21053773.677
  20419409.326   -26106400.98343 -20275636.65142  20419411.236    20419407.208
 03  3 26  0  8 30.0000000  0  9G17G 3G14G16G 6G15G26G23G18
  21135676.605   -24940121.68443 -19418874.73742  21135677.972    21135675.886
  22537249.626   -15517787.98543 -12033533.88942  22537251.476    22537250.053
  23286759.665    -9882873.03243  -7636234.95842  23286762.387    23286762.308
  24233491.770    -4601449.50643  -3531938.00042  24233493.099    24233493.544
  24035092.284    -6819300.98643  -4965202.46742  24035093.629    24035095.958
  20383922.182   -24901339.50544 -18938960.32142  20383923.719    20383921.281
  23573797.813    -7736349.26343  -5780079.98142  23573799.645    23573798.809
  21061043.412   -20257314.45544 -15282787.97942  21061044.903    21061042.503
  20422103.913   -26092240.96144 -20264602.87342  20422105.823    20422101.773
 03  3 26  0  9  0.0000000  0  9G17G 3G14G16G 6G15G26G23G18
  21141443.773   -24909815.04643 -19395259.19742  21141445.113    21141443.078
  22524324.382   -15585710.47843 -12086460.48042  22524326.202    22524324.793
  23266087.704    -9991504.18043  -7720882.43042  23266090.433    23266090.283
  24245748.286    -4537041.78843  -3481750.30142  24245749.668    24245750.136
  24056079.419    -6709013.70843  -4879264.57542  24056080.804    24056083.182
  20380274.583   -24920507.79444 -18953896.64442  20380276.090    20380273.677
  23592122.388    -7640053.00643  -5705043.99342  23592124.340    23592123.409
  21068354.149   -20218896.20443 -15252851.67942  21068355.645    21068353.218
  20424861.523   -26077749.71344 -20253310.99042  20424863.411    20424859.388
 03  3 26  0  9 30.0000000  0  9G17G 3G14G16G 6G15G26G23G18
  21147259.568   -24879252.89743 -19371444.55542  21147260.888    21147258.922
  22511475.592   -15653231.23443 -12139074.01842  22511477.425    22511475.954
  23245442.870   -10099992.62943  -7805418.69842  23245445.569    23245445.470
  24258041.590    -4472440.48643  -3431411.75242  24258043.061    24258043.514
  24077083.106    -6598639.72043  -4793259.11542  24077084.521    24077086.819
  20376675.723   -24939419.74644 -18968633.22242  20376677.249    20376674.864
  23610509.893    -7543426.11043  -5629750.36342  23610512.004    23610510.907
  21075703.753   -20180273.82944 -15222756.32342  21075705.240    21075702.780
  20427679.228   -26062942.76244 -20241773.11142  20427681.090    20427677.080
 03  3 26  0 10  0.0000000  0  9G17G 3G14G16G 6G15G26G23G18
  21153123.632   -24848437.09043 -19347432.25642  21153124.919    21153122.973
  22498703.315   -15720350.13643 -12191374.42642  22498705.143    22498703.598
  23224825.377   -10208337.38743  -7889843.02242  23224828.027    23224827.986
  24270370.691    -4407650.99543  -3380926.56242  24270372.231    24270372.784
  24098102.361    -6488183.60643  -4707189.67142  24098103.823    24098106.214
  20373125.463   -24958076.38344 -18983170.85742  20373126.982    20373124.597
  23628959.475    -7446473.45743  -5554202.89042  23628961.506    23628960.298
  21083091.503   -20141451.03144 -15192504.79142  21083092.977    21083090.528
  20430556.272   -26047823.73844 -20229992.05742  20430558.147    20430554.141
 03  3 26  0 10 30.0000000  0  9G17G 3G14G16G 6G15G26G23G18
  21159040.332   -24817344.69243 -19323204.43742  21159041.598    21159039.663
  22486012.158   -15787042.63243 -12243342.57642  22486013.990    22486012.404
  23204240.050   -10316513.59043  -7974136.00442  23204242.626    23204242.510
  24282739.301    -4342653.92643  -3330279.62542  24282740.779    24282741.521
  24119141.074    -6377625.44243  -4621040.73342  24119142.519    24119144.889
  20369628.188   -24976454.71944 -18997491.63542  20369629.691    20369627.308
  23647474.596    -7349176.23643  -5478386.92442  23647476.625    23647475.415
  21090521.347   -20102407.06944 -15162080.92942  21090522.811    21090520.342
  20433496.753   -26032371.51444 -20217951.36842  20433498.638    20433494.598
 03  3 26  0 11  0.0000000  0  9G17G 3G14G16G 6G15G26G23G18
  21165009.556   -24785976.18143 -19298761.46042  21165010.832    21165008.895
  22473402.298   -15853307.78143 -12294977.73142  22473404.160    22473402.530
  23183687.100   -10424519.54843  -8058296.33142  23183689.652    23183689.405
  24295146.497    -4277453.36343  -3279474.12642  24295148.056    24295149.012
  24140198.507    -6266968.79443  -4534815.02742  24140199.980    24140202.354
  20366183.915   -24994554.49544 -19011595.35242  20366185.435    20366183.020
  23666054.617    -7251538.35543  -5402305.52842  23666056.524    23666055.309
  21097992.777   -20063144.72344 -15131486.89942  21097994.225    21097991.735
  20436500.179   -26016588.46944 -20205652.89142  20436502.059    20436498.046
 03  3 26  0 11 30.0000000  0  9G17G 3G14G16G 6G15G26G23G18
  21171034.783   -24754313.43643 -19274089.20842  21171036.027    21171034.092
  22460877.481   -15919126.09043 -12346264.69242  22460879.343    22460877.671
  23163170.463   -10532334.75343  -8142308.02642  23163172.996    23163172.616
  24307595.185    -4212034.54243  -3228498.56242  24307596.835    24307597.999
  24161277.526    -6156198.54343  -4448500.81742  24161279.111    24161281.395
  20362796.145   -25012357.28044 -19025467.64342  20362797.676    20362795.248
  23684702.109    -7153545.33643  -5325947.39542  23684704.069    23684702.772
  21105508.759   -20023648.08544 -15100710.30342  21105510.210    21105507.699
  20439569.583   -26000458.56644 -20193084.13542  20439571.492    20439567.469
 03  3 26  0 12  0.0000000  0  9G17G 3G14G16G 6G15G26G23G18
  21177112.282   -24722376.01743 -19249202.92242  21177113.516    21177111.550
  22448434.249   -15984515.74843 -12397217.64742  22448436.115    22448434.384
  23142686.640   -10639977.25443  -8226185.11842  23142689.236    23142688.682
  24320080.992    -4146421.34043  -3177371.51642  24320082.610    24320083.851
  24182373.804    -6045337.75743  -4362116.06542  24182375.389    24182377.801
  20359461.189   -25029882.45244 -19039123.61342  20359462.716    20359460.297
  23703412.853    -7055220.68043  -5249330.84142  23703414.853    23703413.350
  21113065.088   -19983939.44544 -15069768.51142  21113066.542    21113064.001
  20442700.860   -25984003.57644 -20180262.06542  20442702.775    20442698.740
 03  3 26  0 12 30.0000000  0  9G17G 3G14G16G 6G15G26G23G18
  21183241.352   -24690167.51843 -19224105.40942  21183242.582    21183240.625
  22436072.221   -16049478.52743 -12447837.96642  22436074.093    22436072.374
  23122235.470   -10747448.43043  -8309928.71642  23122238.015    23122237.409
  24332602.502    -4080620.77743  -3126098.49842  24332604.055    24332605.358
  24203486.016    -5934392.98243  -4275665.85542  24203487.666    24203490.219
  20356178.511   -25047132.97444 -19052565.56942  20356180.042    20356177.612
  23722185.255    -6956571.70943  -5172461.58042  23722187.233    23722185.800
  21120660.670   -19944024.36444 -15038665.85342  21120662.159    21120659.579
  20445892.923   -25967229.02244 -20167190.97942  20445894.850    20445890.837
 03  3 26  0 13  0.0000000  0  9G17G 3G14G16G 6G15G26G23G18
  21189423.842   -24657678.18843 -19198789.06242  21189425.097    21189423.143
  22423793.487   -16114003.19943 -12498116.90042  22423795.427    22423793.719
  23101819.188   -10854736.16743  -8393529.36142  23101821.718    23101821.051
  24345160.843    -4014626.66443  -3074674.65042  24345162.325    24345163.680
  24224615.625    -5823357.09943  -4189144.67642  24224617.213    24224619.900
  20352950.096   -25064098.27244 -19065785.27042  20352951.639    20352949.207
  23741020.589    -6857592.14543  -5095334.71242  23741022.579    23741021.050
  21128297.029   -19903895.16844 -15007396.35342  21128298.515    21128295.898
  20449147.291   -25950126.92244 -20153864.66242  20449149.230    20449145.244
 03  3 26  0 13 30.0000000  0  9G17G 3G14G16G 6G15G26G23G18
  21195658.784   -24624913.56843 -19173258.20442  21195660.060    21195658.064
  22411597.393   -16178093.80443 -12548057.60442  22411599.319    22411597.666
  23081437.095   -10961843.93843  -8476989.75642  23081439.668    23081438.920
  24357754.428    -3948448.11243  -3023107.08442  24357755.929    24357757.240
  24245760.941    -5712238.64543  -4102559.14042  24245762.602    24245765.174
  20349774.997   -25080783.56144 -19078786.78042  20349776.530    20349774.089
  23759917.065    -6758291.11643  -5017957.34242  23759919.011    23759917.352
  21135972.650   -19863559.61844 -14975966.05942  21135974.153    21135971.490
  20452462.619   -25932704.48043 -20140288.72742  20452464.546    20452460.628
 03  3 26  0 14  0.0000000  0  9G17G 3G14G16G 6G15G26G23G18
  21201945.908   -24591874.80643 -19147513.72642  21201947.185    21201945.161
  22399483.939   -16241750.28343 -12597660.02242  22399485.837    22399484.213
  23061089.421   -11068771.03243  -8560309.36442  23061091.983    23061091.148
  24370382.212    -3882089.98243  -2971399.59542  24370383.587    24370384.963
  24266921.020    -5601042.02543  -4015912.70742  24266922.704    24266925.577
  20346653.017   -25097189.75544 -19091570.81642  20346654.534    20346652.102
  23778873.831    -6658673.67543  -4940333.42642  23778875.748    23778874.059
  21143686.873   -19823021.26444 -14944377.73842  21143688.368    21143685.663
  20455838.313   -25914965.02143 -20126465.76842  20455840.202    20455836.363
 03  3 26  0 14 30.0000000  0  9G17G 3G14G16G 6G15G26G23G18
  21208280.829   -24558584.61343 -19121573.32842  21208282.158    21208280.071
  22387449.125   -16304993.54143 -12646940.45042  22387451.039    22387449.396
  23040772.264   -11175537.46243  -8643503.77942  23040774.809    23040773.983
  24383039.126    -3815578.34643  -2919572.48242  24383040.389    24383041.811
  24288091.258    -5489792.85643  -3929225.32842  24288092.804    24288095.886
  20343579.935   -25113338.95544 -19104154.60042  20343581.446    20343579.002
  23797885.700    -6558766.02443  -4862483.35942  23797887.737    23797885.862
  21151434.953   -19782304.93944 -14912650.73542  21151436.447    21151433.700
  20459269.588   -25896933.47544 -20112415.20642  20459271.472    20459267.649
 03  3 26  0 15  0.0000000  0  9G17G 3G14G16G 6G15G26G23G18
  21214673.309   -24524991.98443 -19095397.27242  21214674.663    21214672.519
  22375502.955   -16367771.14343 -12695858.03442  22375504.873    22375503.222
  23020495.713   -11282090.51243  -8726531.91642  23020498.263    23020497.426
  24395734.292    -3748865.90543  -2867588.89842  24395735.518    24395736.875
  24309280.559    -5378443.19843  -3842459.66442  24309282.007    24309285.196
  20340565.601   -25129179.45944 -19116497.84042  20340567.087    20340564.648
  23816961.789    -6458520.96043  -4784370.38442  23816963.882    23816961.973
  21159226.172   -19741361.78644 -14880746.99142  21159227.671    21159224.929
  20462765.872   -25878560.40944 -20098098.53142  20462767.762    20462763.927
 03  3 26  0 15 30.0000000  0  9G17G 3G14G16G 6G15G26G23G18
  21221117.529   -24491127.24943 -19069009.18342  21221118.925    21221116.818
  22363639.910   -16430111.94443 -12744435.24642  22363641.832    22363640.150
  23000254.488   -11388458.10743  -8809415.53542  23000257.029    23000256.150
  24408461.236    -3681986.56043  -2815475.27342  24408462.397    24408463.772
  24330482.640    -5267026.20743  -3755641.52742  24330484.146    24330487.535
  20337604.320   -25144741.20844 -19128623.86842  20337605.816    20337603.344
  23836095.674    -6357972.16143  -4706020.71842  23836097.738    23836095.867
  21167054.417   -19700224.17144 -14848691.71542  21167055.901    21167053.158
  20466321.005   -25859878.14944 -20083540.92342  20466322.910    20466319.060
 03  3 26  0 16  0.0000000  0  9G17G 3G14G16G 6G15G26G23G18
  21227616.328   -24456976.01743 -19042397.84842  21227617.691    21227615.613
  22351862.984   -16492000.09643 -12792659.75042  22351864.918    22351863.210
  22980051.638   -11494623.92843  -8892141.94142  22980054.144    22980053.318
  24421221.891    -3614929.69843  -2763223.31842  24421223.021    24421224.313
  24351699.719    -5155530.67543  -3668762.19742  24351701.323    24351704.808
  20334698.834   -25160009.62644 -19140521.32442  20334700.358    20334697.852
  23855289.288    -6257109.24843  -4627426.29142  23855291.369    23855289.444
  21174921.885   -19658880.25144 -14816475.68142  21174923.385    21174920.628
  20469937.329   -25840874.28144 -20068732.71342  20469939.223    20469935.378
 03  3 26  0 16 30.0000000  0  9G17G 3G14G16G 6G15G26G23G18
  21234165.206   -24422561.53443 -19015581.38942  21234166.568    21234164.475
  22340167.943   -16553457.89243 -12840548.90842  22340169.864    22340168.186
  22959883.007   -11600609.50243  -8974727.88442  22959885.593    22959884.750
  24434011.038    -3547722.88743  -2710854.53242  24434012.210    24434013.468
  24372926.654    -5043983.29443  -3581842.46242  24372928.070    24372932.097
  20331844.759   -25175007.81644 -19152208.21442  20331846.306    20331843.777
  23874537.467    -6155959.36043  -4548608.23842  23874539.568    23874537.626
  21182823.691   -19617355.92643 -14784119.07542  21182825.180    21182822.452
  20473609.944   -25821574.57344 -20053693.97442  20473611.850    20473607.970
 03  3 26  0 17  0.0000000  0  9G17G 3G14G16G 6G15G26G23G18
  21240771.656   -24387844.39743 -18988529.10142  21240773.026    21240770.933
  22328562.678   -16614443.75743 -12888070.32642  22328564.561    22328562.945
  22939756.761   -11706372.48643  -9057140.39742  22939759.339    22939758.549
  24446835.687    -3480328.98043  -2658339.95042  24446836.964    24446838.365
  24394170.607    -4932346.78743  -3494853.27742  24394172.106    24394176.051
  20329049.894   -25189694.87644 -19163652.66542  20329051.451    20329048.912
  23893847.143    -6054486.22243  -4469538.30942  23893849.310    23893847.479
  21190767.096   -19575612.94144 -14751592.08642  21190768.571    21190765.863
  20477346.151   -25801940.56244 -20038394.74042  20477348.081    20477344.195
 03  3 26  0 17 30.0000000  0  9G17G 3G14G16G 6G15G26G23G18
  21247428.734   -24352861.20643 -18961269.49142  21247430.109    21247428.020
  22317040.538   -16674992.55643 -12935251.17642  22317042.414    22317040.821
  22919666.360   -11811947.29343  -9139406.27742  22919668.924    22919668.125
  24459688.337    -3412788.39043  -2605711.06042  24459689.701    24459690.886
  24415423.852    -4820660.70343  -3407825.47542  24415425.442    24415429.579
  20326307.372   -25204106.88244 -19174882.78842  20326308.906    20326306.392
  23913210.719    -5952729.79543  -4390247.63642  23913212.897    23913211.050
  21198744.735   -19533690.03643 -14718924.89342  21198746.231    21198743.530
  20481138.697   -25782010.73344 -20022865.00042  20481140.623    20481136.699
 03  3 26  0 18  0.0000000  0  9G17G 3G14G16G 6G15G26G23G18
  21254139.906   -24317593.67143 -18933788.31942  21254141.273    21254139.195
  22305605.328   -16735084.97143 -12982076.40342  22305607.148    22305605.570
  22899615.547   -11917313.93643  -9221509.95942  22899618.142    22899617.304
  24472571.659    -3345086.68343  -2552956.63942  24472572.996    24472574.274
  24436689.463   -17312270.17743 -13141547.45042  24436691.342    24436696.457
  20323620.683   -25218225.60844 -19185884.38442  20323622.202    20323619.668
  23932630.931    -5850675.75243  -4310725.06342  23932633.053    23932631.486
  21206759.635   -19491571.46344 -14686105.23642  21206761.104    21206758.461
  20484990.523   -25761769.28044 -20007092.43742  20484992.447    20484988.497
 03  3 26  0 18 30.0000000  0  9G17G 3G14G16G 6G15G26G23G18
  21260904.782   -24282044.03043 -18906087.32442  21260906.140    21260904.094
  22294256.727   -16794722.22843 -13028546.96042  22294258.520    22294256.926
  22879604.397   -12022472.61843  -9303451.61342  22879606.901    22879606.083
  24485484.389    -3277230.20043  -2500081.61742  24485485.890    24485487.014
  24457966.562   -17200460.52353 -13054423.35752  24457968.557    24457973.241
  20320989.406   -25232052.89044 -19196658.88342  20320990.946    20320988.443
  23952106.607    -5748330.29843  -4230975.40142  23952108.729    23952107.235
  21214810.905   -19449261.83043 -14653136.69842  21214812.339    21214809.740
  20488900.833   -25741220.44444 -19991080.35542  20488902.766    20488898.777
 03  3 26  0 19  0.0000000  0  9G17G 3G14G16G 6G15G26G23G18
  21267724.935   -24246204.24043 -18878160.24242  21267726.262    21267724.205
  22282996.637   -16853894.52943 -13074655.21542  22282998.382    22282996.766
  22859634.820   -12127412.90343  -9385223.09142  22859637.305    22859636.399
  24498427.524    -3209214.09443  -2447082.21842  24498429.021    24498430.289
  24479255.686   -17088586.57653 -12967249.17452  24479257.602    24479262.397
  20318415.331   -25245579.87644 -19207199.38742  20318416.825    20318414.334
  23971638.615    -5645688.86543  -4150995.08842  23971640.775    23971639.212
  21222899.701   -19406754.89443 -14620014.41842  21222901.129    21222898.571
  20492870.784   -25720358.07044 -19974823.95642  20492872.724    20492868.729
 03  3 26  0 19 30.0000000  0 11G 9G17G31G 3G14G16G 6G15G26G23G18
  24423975.708    -3195791.36153  -2367314.07652  24423978.057    24423979.202
  21274595.858   -24210097.50243 -18850025.15342  21274597.170    21274595.120
  24365807.585    -1113619.92653   -855404.41652  24365808.916    24365809.715
  22271820.740   -16912624.08843 -13120418.47642  22271822.534    22271820.893
  22839702.675   -12232156.25843  -9466841.13042  22839705.119    22839704.187
  24511395.897    -3141065.61143  -2393979.66342  24511397.386    24511398.667
  24500552.072   -16976674.86053 -12880045.58352  24500554.016    24500558.594
  20315893.946   -25258829.79044 -19217523.99342  20315895.415    20315892.940
  23991221.764    -5542778.67843  -4070805.38642  23991223.872    23991222.333
  21231021.136   -19364076.40943 -14586758.46942  21231022.566    21231020.022
  20496895.603   -25699207.51444 -19958343.00242  20496897.513    20496893.534
 03  3 26  0 20  0.0000000  0 11G 9G17G31G 3G14G16G 6G15G26G23G18
  24412057.040    -3258423.63743  -2416118.30042  24412059.370    24412060.398
  21281520.185   -24173710.02143 -18821671.30542  21281521.494    21281519.419
  24347871.939    -1207870.57743   -928846.39342  24347873.583    24347874.361
  22260731.976   -16970895.86843 -13165825.02842  22260733.801    22260732.172
  22819811.065   -12336686.69643  -9548293.27142  22819813.502    22819812.461
  24524391.470    -3072774.10943  -2340765.65642  24524392.838    24524394.152
  24521857.718   -16864714.35153 -12792803.95552  24521859.671    24521864.066
  20313428.039   -25271788.13044 -19227621.39942  20313429.513    20313427.028
  24010858.019    -5439589.30143  -3990398.12742  24010860.214    24010858.731
  21239177.446   -19321214.69743 -14553359.74442  21239178.875    21239176.336
  20500977.555   -25677756.65644 -19941628.04942  20500979.466    20500975.477
 03  3 26  0 20 30.0000000  0 11G 9G17G31G 3G14G16G 6G15G26G23G18
  24400191.982    -3320774.23743  -2464703.03742  24400194.219    24400195.406
  21288501.463   -24137023.39343 -18793084.34642  21288502.733    21288500.688
  24329991.027    -1301835.21043  -1002065.49442  24329992.561    24329993.378
  22249734.249   -17028689.03243 -13210858.62442  22249736.134    22249734.514
  22799963.989   -12440983.07443  -9629563.03142  22799966.410    22799965.312
  24537417.081    -3004324.51243  -2287428.48042  24537418.418    24537419.820
  24543175.643   -16752689.00553 -12705511.83452  24543177.236    24543181.916
  20311021.374   -25284435.28444 -19237476.32042  20311022.816    20311020.325
  24030550.372    -5336105.39343  -3909761.37042  24030552.559    24030551.079
  21247371.871   -19278152.82643 -14519805.05342  21247373.304    21247370.749
  20505119.866   -25655988.55544 -19924665.88942  20505121.796    20505117.799
 03  3 26  0 21  0.0000000  0 10G 9G17G31G 3G14G16G15G26G23G18
  24388377.583    -3382858.88643  -2513080.55542  24388379.818    24388380.914
  21295536.243   -24100055.48443 -18764278.21542  21295537.501    21295535.474
  24312161.398    -1395530.16843  -1075074.46742  24312163.122    24312163.837
  22238824.349   -17086020.66343 -13255532.59142  22238826.266    22238824.632
  22780158.397   -12545061.51643  -9710662.99642  22780160.794    22780159.632
  24550468.554    -2935738.53343  -2233985.02742  24550469.899    24550471.471
  20308670.509   -25296789.07744 -19247102.64842  20308671.955    20308669.455
  24050294.603    -5232348.79643  -3828912.11442  24050296.725    24050295.339
  21255600.466   -19234911.22943 -14486110.31442  21255601.917    21255599.356
  20509318.716   -25633923.48244 -19907472.32442  20509320.621    20509316.632
 03  3 26  0 21 30.0000000  0 10G 9G17G31G 3G14G16G15G26G23G18
  24376612.754    -3444683.10843  -2561255.11442  24376614.976    24376615.958
  21302623.028   -24062814.38143 -18735259.20342  21302624.258    21302622.246
  24294381.973    -1488961.42443  -1147877.96742  24294383.693    24294384.380
  22228000.949   -17142897.68043 -13299852.31142  22228002.900    22228001.248
  22760393.133   -12648928.02543  -9791597.81542  22760395.524    22760394.367
  24563543.929    -2867028.04243  -2180444.56142  24563545.182    24563546.879
  20306374.023   -25308857.14544 -19256506.33642  20306375.492    20306372.983
  24070088.528    -5128331.51243  -3747859.74442  24070090.526    24070089.009
  21263861.311   -19191500.03443 -14452283.41942  21263862.780    21263860.255
  20513572.174   -25611571.48544 -19890055.18742  20513574.052    20513570.093
 03  3 26  0 22  0.0000000  0 10G 9G17G31G 3G14G16G15G26G23G18
  24364906.060    -3506201.72543  -2609191.55442  24364908.329    24364909.061
  21309769.830   -24025257.82643 -18705994.38542  21309771.063    21309769.058
  24276661.226    -1582084.52143  -1220441.33942  24276662.902    24276663.549
  22217272.398   -17199276.29543 -13343783.66842  22217274.373    22217272.626
  22740676.697   -12752537.98443  -9872332.73742  22740679.040    22740677.909
  24576650.284    -2798154.06843  -2126776.69842  24576651.603    24576653.240
  20304140.093   -25320596.49444 -19265653.87942  20304141.546    20304139.053
  24089939.424    -5024014.55143  -3666573.82042  24089941.318    24089939.824
  21272162.116   -19147878.98443 -14418293.00442  21272163.574    21272161.057
  20517887.958   -25588891.90344 -19872382.78942  20517889.829    20517885.880
 03  3 26  0 22 30.0000000  0 10G 9G17G31G 3G14G16G15G26G23G18
  24353252.138    -3567442.87943  -2656911.78142  24353254.403    24353254.876
  21316970.871   -23987416.21043 -18676507.43842  21316972.085    21316970.132
  24258993.730    -1674927.85943  -1292786.72042  24258995.543    24258996.007
  22206633.189   -17255185.65243 -13387349.36042  22206635.133    22206633.324
  22721003.704   -12855919.81843  -9952889.90642  22721005.967    22721004.847
  24589781.216    -2729150.73443  -2073008.03042  24589782.571    24589784.196
  20301963.035   -25332037.02744 -19274568.57842  20301964.491    20301962.009
  24109840.794    -4919432.15543  -3585081.10242  24109842.613    24109841.020
  21280496.691   -19104080.59643 -14384164.40442  21280498.128    21280495.626
  20522259.865   -25565917.29044 -19854480.49742  20522261.743    20522257.800
 03  3 26  0 23  0.0000000  0 10G 9G17G31G 3G14G16G15G26G23G18
  24341653.946    -3628391.44643  -2704404.03442  24341656.250    24341656.577
  21324228.512   -23949277.16943 -18646788.73542  21324229.712    21324227.803
  24241382.178    -1767477.06143  -1364902.90342  24241383.976    24241384.314
  22196085.913   -17310611.82943 -13430538.55242  22196087.843    22196085.982
  22701376.904   -12959058.92543 -10033257.93442  22701379.148    22701378.055
  24602938.533    -2660008.92643  -2019131.47842  24602939.935    24602941.759
  20299845.303   -25343165.97344 -19283240.48442  20299846.735    20299844.252
  24129794.354    -4814575.45343  -3503374.62842  24129796.363    24129794.450
  21288866.918   -19060094.64443 -14349889.64742  21288868.375    21288865.880
  20526689.926   -25542637.16944 -19836340.15042  20526691.797    20526687.868
 03  3 26  0 23 30.0000000  0 10G 9G17G31G 3G14G16G15G26G23G18
  24330109.633    -3689056.39543  -2751675.25342  24330111.971    24330112.426
  21331540.550   -23910852.12943 -18616847.17342  21331541.769    21331539.895
  24223824.819    -1859741.19343  -1436796.96042  24223826.636    24223826.871
  22185628.696   -17365564.69343 -13473358.92342  22185630.620    22185628.743
  22681794.535   -13061964.33843 -10113443.86642  22681796.752    22681795.663
  24616119.493    -2590743.93743  -1965158.92642  24616120.832    24616122.636
  20297784.804   -25353993.89044 -19291677.82042  20297786.271    20297783.796
  24149797.401    -4709459.29343  -3421465.96242  24149799.288    24149797.224
  21297270.353   -19015934.50143 -14315479.15942  21297271.796    21297269.287
  20531175.630   -25519064.54844 -19817971.87942  20531177.521    20531173.582
 03  3 26  0 24  0.0000000  0 10G 9G17G31G 3G14G16G15G26G23G18
  24318613.919    -3749466.12743  -2798747.59642  24318616.160    24318616.669
  21338901.107   -23872172.08743 -18586706.90942  21338902.338    21338900.534
  24206316.213    -1951749.34243  -1508491.54442  24206318.106    24206318.148
  22175255.888   -17420074.09343 -13515833.74542  22175257.772    22175255.904
  22662251.071   -13164665.07843 -10193470.30842  22662253.309    22662252.231
  24629317.292    -2521390.28543  -1911117.29642  24629318.706    24629320.377
  20295775.785   -25364551.42544 -19299904.47142  20295777.267    20295774.768
  24169843.168    -4604118.29143  -3339382.12542  24169844.992    24169843.075
  21305700.624   -18971633.29443 -14280958.75142  21305702.078    21305699.562
  20535710.730   -25495232.53244 -19799401.48442  20535712.606    20535708.673
 03  3 26  0 24 30.0000000  0 10G 9G17G31G 3G14G16G15G26G23G18
  24307171.354    -3809596.35243  -2845602.16042  24307173.534    24307174.244
  21346314.284   -23833215.55843 -18556351.19542  21346315.530    21346313.811
  24188860.790    -2043477.74243  -1579968.13142  24188862.635    24188862.761
  22164971.820   -17474117.27743 -13557945.28642  22164973.700    22164971.796
  22642751.147   -13267137.36743 -10273318.72042  22642753.368    22642752.309
  24642535.378    -2451929.76243  -1856992.39042  24642536.685    24642538.347
  20293822.483   -25374816.25344 -19307903.04142  20293823.966    20293821.434
  24189935.248    -4498534.37143  -3257108.97042  24189937.120    24189934.980
  21314161.487   -18927171.17943 -14246312.95642  21314162.957    21314160.460
  20540298.990   -25471121.13444 -19780613.38942  20540300.873    20540296.919
 03  3 26  0 25  0.0000000  0 10G 9G17G31G 3G14G16G15G26G23G18
  24295792.484    -3869391.92043  -2892195.96042  24295794.615    24295795.268
  21353790.153   -23793929.77443 -18525738.92442  21353791.392    21353789.734
  24171469.049    -2134871.63043  -1651184.08242  24171470.859    24171470.892
  22154786.735   -17527640.16243 -13599651.39442  22154788.611    22154786.745
  22623305.183   -13369326.10443 -10352946.20942  22623307.437    22623306.331
  24655783.219    -2382313.01443  -1802745.75442  24655784.544    24655786.207
  20291935.004   -25384735.01744 -19315631.94942  20291936.484    20291933.937
  24210082.890    -4392658.31243  -3174608.18142  24210084.908    24210082.673
  21322662.626   -18882497.56743 -14211502.35742  21322664.078    21322661.587
  20544950.030   -25446679.78544 -19761568.19142  20544951.914    20544947.952
 03  3 26  0 25 30.0000000  0 10G 9G17G31G 3G14G16G15G26G23G18
  24284466.982    -3928906.86843  -2938571.10342  24284469.151    24284469.899
  21361317.877   -23754371.55843 -18494914.36842  21361319.121    21361317.494
  24154130.554    -2225985.81343  -1722182.08442  24154132.363    24154132.310
  22144690.030   -17580698.43843 -13640995.46542  22144691.913    22144690.113
  22603902.712   -13471286.43143 -10432395.70242  22603904.970    22603903.828
  24669049.156    -2312600.53643  -1748424.50642  24669050.584    24669052.454
  20290102.630   -25394364.09044 -19323135.12542  20290104.139    20290101.558
  24230274.489    -4286550.78443  -3091927.02242  24230276.638    24230274.276
  21331192.820   -18837671.36543 -14176572.85942  21331194.252    21331191.735
  20549652.682   -25421967.23744 -19742311.66542  20549654.572    20549650.584
 03  3 26  0 26  0.0000000  0 10G 9G17G31G 3G14G16G15G26G23G18
  24273199.412    -3988117.71243  -2984709.27342  24273201.562    24273202.366
  21368901.529   -23714519.35343 -18463860.73742  21368902.802    21368901.133
  24136849.750    -2316797.09743  -1792944.05142  24136851.523    24136851.466
  22134686.040   -17633269.61443 -13681959.98542  22134687.910    22134686.184
  22584548.112   -13572994.97843 -10511648.99942  22584550.431    22584549.232
  24682336.603    -2242775.12443  -1694015.27742  24682338.074    24682339.955
  20288329.467   -25403682.03144 -19330395.85742  20288330.982    20288328.382
  24250513.496    -4180194.23343  -3009051.81942  24250515.637    24250513.282
  21339755.610   -18792673.57243 -14141509.65342  21339757.071    21339754.554
  20554410.602   -25396964.34944 -19722828.90542  20554412.471    20554408.495
 03  3 26  0 26 30.0000000  0  9G 9G17G31G 3G14G15G26G23G18
  24261989.838    -4047023.95443  -3030610.10742  24261991.980    24261992.732
  21376540.541   -23674376.05243 -18432580.26842  21376541.868    21376540.128
  24119626.541    -2407305.51543  -1863470.03042  24119628.375    24119628.186
  22124774.542   -17685354.63743 -13722545.68442  22124776.409    22124774.712
  22565241.489   -13674451.45143 -10590705.87942  22565243.847    22565242.622
  20286615.236   -25412690.30944 -19337415.29542  20286616.738    20286614.136
  24270798.841    -4073594.14443  -2925986.86542  24270800.809    24270799.059
  21348350.263   -18747508.24143 -14106315.90042  21348351.755    21348349.251
  20559223.052   -25371674.94344 -19703122.88442  20559224.921    20559220.931
 03  3 26  0 27  0.0000000  0  9G 9G17G31G 3G14G15G26G23G18
  24250837.284    -4105630.44143  -3076277.37242  24250839.500    24250840.177
  21384233.723   -23633948.32243 -18401078.16742  21384235.045    21384233.261
  24102460.012    -2497516.09643  -1933763.92542  24102461.816    24102461.651
  22114954.440   -17736959.36743 -13762757.13642  22114956.317    22114954.653
  22545981.907   -13775660.97343 -10669570.33142  22545984.238    22545982.965
  20284958.702   -25421395.48544 -19344198.54842  20284960.181    20284957.598
  24291128.502    -3966761.30543  -2842740.51842  24291130.349    24291128.964
  21356975.129   -18702184.47943 -14070998.69842  21356976.633    21356974.086
  20564088.286   -25346108.07644 -19683200.65842  20564090.160    20564086.176
 03  3 26  0 27 30.0000000  0  9G 9G17G31G 3G14G15G26G23G18
  24239745.293    -4163919.01843  -3121696.93542  24239747.405    24239748.068
  21391983.920   -23593220.70143 -18369342.39142  21391985.310    21391983.459
  24085353.478    -2587411.17843  -2003811.96642  24085355.382    24085355.068
  22105228.973   -17788067.01643 -13802581.25342  22105230.859    22105229.180
  22526772.658   -13876605.85143 -10748228.56542  22526775.012    22526773.664
  20283362.935   -25429781.21544 -19350732.88642  20283364.416    20283361.858
  24311504.699    -3859683.57943  -2759303.36342  24311506.463    24311505.145
  21365632.729   -18656688.66943 -14035547.43142  21365634.235    21365631.663
  20569008.929   -25320250.09044 -19663051.58742  20569010.789    20569006.813
 03  3 26  0 28  0.0000000  0  9G 9G17G31G 3G14G15G26G23G18
  24228710.541    -4221906.62343  -3166881.96642  24228712.639    24228713.268
  21399787.428   -23552213.21743 -18337388.53742  21399788.809    21399786.918
  24068303.786    -2677008.29043  -2073627.82842  24068305.622    24068305.249
  22095594.645   -17838695.80843 -13842032.23542  22095596.547    22095594.837
  22507610.448   -13977303.63743 -10826694.27042  22507612.810    22507611.364
  20281824.309   -25437866.70944 -19357033.27042  20281825.794    20281823.253
  24331923.103    -3752384.29943  -2675693.56342  24331924.701    24331923.825
  21374318.935   -18611042.42843 -13999978.94642  21374320.456    21374317.865
  20573980.872   -25294122.32244 -19642692.29342  20573982.759    20573978.776
 03  3 26  0 28 30.0000000  0  9G 9G17G31G 3G14G15G26G23G18
  24217737.799    -4279568.41143  -3211813.13442  24217739.928    24217740.457
  21407648.451   -23510903.32243 -18305199.02942  21407649.848    21407647.951
  24051315.361    -2766283.01743  -2143192.47642  24051317.159    24051316.752
  22086055.942   -17888822.06643 -13881091.62942  22086057.853    22086056.102
  22488499.956   -14077729.57543 -10904948.13642  22488502.314    22488500.807
  20280347.220   -25445628.86844 -19363081.70242  20280348.696    20280346.188
  24352387.188    -3644844.53143  -2591896.37342  24352389.016    24352387.974
  21383037.666   -18565225.29843 -13964277.30142  21383039.169    21383036.596
  20579008.089   -25267704.24844 -19622106.78942  20579009.973    20579005.978
 03  3 26  0 29  0.0000000  0  9G 9G17G31G 3G14G15G26G23G18
  24206824.466    -4336917.94443  -3256500.98142  24206826.592    24206827.063
  21415564.085   -23469306.61843 -18272786.03542  21415565.455    21415563.528
  24034385.619    -2855249.36443  -2212516.84142  24034387.466    24034387.036
  22076609.966   -17938461.08943 -13919771.36742  22076611.875    22076610.081
  22469438.462   -14177898.01043 -10983001.36242  22469440.824    22469439.310
  20278928.664   -25453083.27144 -19368890.32742  20278930.171    20278927.647
  24372893.291    -3537083.96143  -2507927.11542  24372895.190    24372894.219
  21391785.432   -18519255.49843 -13928456.69142  21391786.933    21391784.359
  20584087.042   -25241014.23444 -19601309.38042  20584088.933    20584084.924
 03  3 26  0 29 30.0000000  0  9G 9G17G31G 3G14G15G26G23G18
  24195972.714    -4393943.91843  -3300936.71142  24195974.849    24195975.286
  21423535.839   -23427415.04043 -18240143.27842  21423537.182    21423535.244
  24017516.570    -2943896.40943  -2281592.38342  24017518.442    24017518.039
  22067258.571   -17987602.79243 -13958063.58342  22067260.506    22067258.676
  22450428.123   -14277797.73643 -11060845.18442  22450430.459    22450428.973
  20277570.508   -25460220.52044 -19374451.81942  20277571.987    20277569.482
  24393442.370    -3429097.46443  -2423781.82242  24393444.448    24393443.480
  21400563.582   -18473126.05243 -13892511.68542  21400565.073    21400562.466
  20589219.083   -25214045.09544 -19580294.47542  20589220.991    20589216.976
 03  3 26  0 30  0.0000000  0  9G 9G17G31G 3G14G15G26G23G18
  24185186.140    -4450627.50443  -3345105.65842  24185188.355    24185188.708
  21431566.767   -23385212.34443 -18207258.09242  21431568.059    21431566.173
  24000711.753    -3032205.87643  -2350404.87942  24000713.666    24000713.195
  22058005.142   -18036229.84443 -13995954.77442  22058007.051    22058005.185
  22431472.396   -14377410.34043 -11138465.28742  22431474.738    22431473.265
  20276275.810   -25467024.13844 -19379753.34042  20276277.317    20276274.788
  24414036.999    -3320872.06443  -2339450.38342  24414039.186    24414037.963
  21409374.820   -18426822.66143 -13856431.13942  21409376.319    21409373.713
  20594407.016   -25186782.43244 -19559050.84942  20594408.905    20594404.884
 03  3 26  0 30 30.0000000  0  8G 9G17G31G 3G14G15G23G18
  24174464.486    -4506970.09443  -3389008.88642  24174466.765    24174467.026
  21439656.198   -23342702.12843 -18174133.27342  21439657.493    21439655.564
  23983970.787    -3120179.64943  -2418955.78542  23983972.811    23983972.291
  22048849.153   -18084344.73943 -14033446.88642  22048851.069    22048849.175
  22412570.932   -14476737.85443 -11215863.22942  22412573.299    22412571.794
  20275044.023   -25473497.24844 -19384797.31342  20275045.530    20275042.997
  21418218.046   -18380351.27843 -13820219.68742  21418219.524    21418216.930
  20599649.665   -25159232.03444 -19537583.01242  20599651.574    20599647.568
 03  3 26  0 31  0.0000000  0  8G 9G17G31G 3G14G15G23G18
  24163802.883    -4562997.34143  -3432666.38342  24163805.154    24163805.333
  21447798.884   -23299912.39243 -18140790.65042  21447800.145    21447798.194
  23967288.805    -3207843.66543  -2487265.32242  23967290.773    23967290.274
  22039785.455   -18131974.82143 -14070561.22342  22039787.338    22039785.451
  22393718.832   -14575806.08843 -11293059.14242  22393721.212    22393719.676
  20273869.871   -25479667.50944 -19389605.30142  20273871.353    20273868.857
  21427087.529   -18333741.91443 -13783900.72342  21427088.996    21427086.451
  20604941.390   -25131424.00444 -19515914.42042  20604943.290    20604939.279
 03  3 26  0 31 30.0000000  0  8G 9G17G31G 3G14G15G23G18
  24153202.611    -4618701.83943  -3476072.39542  24153204.885    24153205.079
  21455995.537   -23256838.87043 -18107226.90042  21455996.798    21455994.868
  23950667.053    -3295190.95543  -2555328.05642  23950669.016    23950668.571
  22030815.187   -18179113.75943 -14107292.85142  22030817.049    22030815.177
  22374917.421   -14674608.00143 -11370047.53442  22374919.822    22374918.252
  20272754.408   -25485529.25344 -19394172.88742  20272755.892    20272753.392
  21435983.839   -18286991.57143 -13747471.90342  21435985.316    21435982.780
  20610282.753   -25103355.11644 -19494042.56542  20610284.642    20610280.607
 03  3 26  0 32  0.0000000  0  8G 9G17G31G 3G14G15G23G18
  24142662.910    -4674087.78743  -3519230.18642  24142665.181    24142665.335
  21464244.953   -23213488.09843 -18073447.11542  21464246.179    21464244.302
  23934104.663    -3382226.24243  -2623147.66642  23934106.634    23934106.180
  22021937.374   -18225767.13943 -14143646.12842  22021939.160    22021937.356
  22356165.778   -14773148.43043 -11446832.16942  22356168.186    22356166.577
  20271696.495   -25491088.71844 -19398504.93242  20271697.975    20271695.470
  21444905.340   -18240108.95943 -13710940.01542  21444906.792    21444904.276
  20615672.079   -25075034.03344 -19471974.19142  20615673.973    20615669.926
 03  3 26  0 32 30.0000000  0  8G 9G17G31G 3G14G15G23G18
  24132195.148    -4729095.90343  -3562093.56742  24132197.382    24132197.518
  21472558.003   -23169802.96243 -18039406.78242  21472559.177    21472557.378
  23917612.963    -3468890.56143  -2690678.21842  23917614.847    23917614.406
  22013162.955   -18271876.83343 -14179575.76142  22013164.706    22013162.974
  22337475.080   -14871368.26543 -11523366.98842  22337477.508    22337475.853
  20270707.012   -25496288.56544 -19402556.76142  20270708.480    20270705.972
  21453862.474   -18193039.04443 -13674262.17742  21453863.934    21453861.439
  20621119.884   -25046405.51044 -19449666.25642  20621121.801    20621117.762
 03  3 26  0 33  0.0000000  0  8G 9G17G31G 3G14G15G23G18
  24121789.242    -4783778.80743  -3604703.54142  24121791.438    24121791.544
  21480924.096   -23125838.80943 -18005149.02742  21480925.294    21480923.557
  23901181.686    -3555236.87343  -2757960.96842  23901183.576    23901183.172
  22004481.697   -18317497.23343 -14215124.12442  22004483.390    22004481.734
  22318835.341   -14969320.35943 -11599693.17942  22318837.805    22318836.063
  20269775.605   -25501182.97144 -19406370.58142  20269777.100    20269774.600
  21462844.440   -18145838.64843 -13637482.66542  21462845.925    21462843.378
  20626615.330   -25017526.62244 -19427163.22742  20626617.266    20626613.228
 03  3 26  0 33 30.0000000  0  8G 9G17G31G 3G14G15G23G18
  24111451.982    -4838101.28143  -3647032.65042  24111454.113    24111454.282
  21489349.485   -23081563.25343 -17970648.62342  21489350.663    21489348.979
  23884817.551    -3641230.59443  -2824968.97542  23884819.488    23884818.993
  21995899.919   -18362594.58443 -14250264.91342  21995901.646    21995900.035
  22300253.180   -15066970.07643 -11675783.76342  22300255.603    22300253.810
  20268908.614   -25505739.01144 -19409920.74142  20268910.095    20268907.626
  21471857.033   -18098477.18543 -13600577.64642  21471858.533    21471855.947
  20632164.254   -24988366.69844 -19404441.21442  20632166.167    20632162.191
 03  3 26  0 34  0.0000000  0  8G 9G17G31G 3G14G15G23G18
  24101179.109    -4892085.23543  -3689097.96542  24101181.274    24101181.425
  21497829.494   -23037000.49643 -17935924.43442  21497830.699    21497828.993
  23868516.298    -3726894.06243  -2891719.64842  23868518.192    23868517.602
  21987413.223   -18407192.35443 -14285016.42242  21987414.982    21987413.362
  22281724.302   -15164339.73643 -11751656.11242  22281726.714    22281724.842
  20268101.472   -25509980.50244 -19413225.80342  20268102.975    20268100.507
  21480895.255   -18050980.83743 -13563567.52042  21480896.770    21480894.204
  20637761.656   -24958952.20044 -19381520.83742  20637763.558    20637759.596
 03  3 26  0 34 30.0000000  0  8G 9G17G31G 3G14G15G23G18
  24090973.653    -4945715.20943  -3730887.45842  24090975.874    24090975.877
  21506366.695   -22992137.51243 -17900966.29442  21506367.876    21506366.159
  23852280.808    -3812211.98343  -2958201.05742  23852282.702    23852282.064
  21979024.336   -18451276.08343 -14319367.37542  21979026.124    21979024.471
  22263251.619   -15261414.00943 -11827298.30042  22263254.005    22263252.123
  20267356.875   -25513893.47844 -19416274.87842  20267358.381    20267355.910
  21489961.288   -18003338.35243 -13526443.52042  21489962.823    21489960.269
  20643409.740   -24929271.38244 -19358392.93642  20643411.620    20643407.680
 03  3 26  0 35  0.0000000  0  8G 9G17G31G 3G14G15G23G18
  24080838.120    -4998977.15343  -3772390.14442  24080840.371    24080840.350
  21514963.094   -22946963.28743 -17865765.63842  21514964.289    21514962.557
  23836113.676    -3897170.77843  -3024402.64442  23836115.535    23836114.867
  21970735.645   -18494833.39343 -14353308.13442  21970737.439    21970735.761
  22244837.693   -15358179.36843 -11902699.77742  22244840.091    22244838.146
  20266677.059   -25517466.09944 -19419058.74042  20266678.569    20266676.078
  21499056.967   -17955540.18243 -13489198.20942  21499058.481    21499055.961
  20649110.320   -24899314.62344 -19335050.01542  20649112.208    20649108.271
 03  3 26  0 35 30.0000000  0  8G 9G17G31G 3G14G15G23G18
  24070768.013    -5051895.49043  -3813625.10142  24070770.232    24070770.096
  21523613.678   -22901504.30743 -17830343.08942  21523614.890    21523613.146
  23820010.103    -3981795.35243  -3090343.77842  23820011.950    23820011.303
  21962542.177   -18537890.13043 -14386858.83342  21962543.988    21962542.323
  22226477.842   -15454660.58843 -11977879.84642  22226480.229    22226478.256
  20266056.946   -25520724.78444 -19421597.98042  20266058.485    20266055.976
  21508176.786   -17907614.98743 -13451853.91142  21508178.304    21508175.868
  20654857.952   -24869110.56844 -19311514.40242  20654859.861    20654855.904
 03  3 26  0 36  0.0000000  0  8G 9G17G31G 3G14G15G23G18
  24060767.386    -5104448.58843  -3854575.45042  24060769.655    24060769.444
  21532322.144   -22855741.21243 -17794683.57742  21532323.377    21532321.597
  23803974.230    -4066064.19143  -3156007.73442  23803976.125    23803975.334
  21954447.789   -18580426.10743 -14420003.74542  21954449.644    21954447.954
  22208176.112   -15550836.16043 -12052821.75242  22208178.514    22208176.515
  20265500.424   -25523649.47044 -19423876.96642  20265501.987    20265499.444
  21517324.176   -17859545.20243 -13414396.95242  21517325.653    21517323.260
  20660655.948   -24838641.77444 -19287772.49642  20660657.876    20660653.918
 03  3 26  0 36 30.0000000  0  8G 9G17G31G 3G14G15G23G18
  24050834.724    -5156644.70143  -3895247.62642  24050836.944    24050836.816
  21541086.327   -22809685.05343 -17758795.69442  21541087.563    21541085.792
  23788004.312    -4149986.19443  -3221401.42342  23788006.255    23788005.370
  21946450.633   -18622451.10643 -14452750.48542  21946452.514    21946450.836
  22189930.892   -15646714.86543 -12127532.33342  22189933.275    22189931.286
  20265005.474   -25526250.43544 -19425903.69842  20265007.019    20265004.524
  21526496.648   -17811343.56943 -13376837.25042  21526498.115    21526495.775
  20666501.897   -24807921.06144 -19263834.29342  20666503.815    20666499.865
 03  3 26  0 37  0.0000000  0  8G 9G17G31G 3G14G15G23G18
  24040972.502    -5208469.99643  -3935630.84142  24040974.758    24040974.617
  21549908.391   -22763324.84443 -17722670.89542  21549909.593    21549907.867
  23772103.019    -4233547.73943  -3286514.26642  23772104.951    23772104.023
  21938553.137   -18663952.55343 -14485089.26642  21938555.015    21938553.331
  22171744.771   -15742283.11943 -12202001.01542  22171747.127    22171745.140
  20264574.446   -25528515.57344 -19427668.75142  20264575.992    20264573.503
  21535696.087   -17763000.51543 -13339167.35042  21535697.515    21535695.169
  20672397.668   -24776938.73144 -19239692.23442  20672399.565    20672395.624
 03  3 26  0 37 30.0000000  0  8G 9G17G31G 3G14G15G23G18
  24031180.563    -5259925.70443  -3975726.11142  24031183.012    24031182.750
  21558787.676   -22716663.92343 -17686311.77142  21558788.872    21558787.191
  23756270.068    -4316750.43943  -3351347.47042  23756272.011    23756271.071
  21930754.751   -18704933.32543 -14517022.32342  21930756.624    21930754.937
  22153617.372   -15837542.58743 -12276229.08342  22153619.710    22153617.772
  20264206.766   -25530447.83544 -19429174.42042  20264208.310    20264205.793
  21544921.386   -17714521.37143 -13301391.40242  21544922.822    21544920.456
  20678342.274   -24745699.87644 -19215350.28242  20678344.166    20678340.217
 03  3 26  0 38  0.0000000  0  8G 9G17G31G 3G14G15G23G18
  24021461.053    -5311001.74443  -4015525.49342  24021463.326    24021463.288
  21567725.633   -22669694.88343 -17649712.56042  21567726.796    21567725.162
  23740507.228    -4399584.74943  -3415893.61542  23740509.203    23740508.206
  21923057.092   -18745384.77843 -14548542.92442  21923058.978    21923057.257
  22135550.623   -15932483.47343 -12350208.91642  22135552.929    22135551.016
  20263903.947   -25532039.15444 -19430414.41742  20263905.465    20263902.948
  21554173.702   -17665900.32343 -13263504.88542  21554175.150    21554172.749
  20684336.715   -24714199.01844 -19190804.17042  20684338.620    20684334.635
 03  3 26  0 38 30.0000000  0  8G 9G17G31G 3G14G15G23G18
  24011808.933    -5361723.61443  -4055048.92842  24011811.135    24011811.131
  21576716.873   -22622445.77443 -17612895.12042  21576718.015    21576716.417
  23724809.580    -4482076.33643  -3480172.72342  23724811.559    23724810.508
  21915455.047   -18785333.93443 -14579672.12142  21915456.939    21915455.169
  22117539.575   -16027131.53343 -12423960.57342  22117541.887    22117540.018
  20263660.819   -25533316.82344 -19431410.01342  20263662.324    20263659.782
  21563447.332   -17617167.01643 -13225530.89342  21563448.804    21563446.412
  20690375.376   -24682465.64744 -19166076.88042  20690377.285    20690373.297
 03  3 26  0 39  0.0000000  0  8G 9G17G31G 3G14G15G23G18
  24002229.291    -5412064.54743  -4094275.50842  24002231.462    24002231.361
  21585765.934   -22574892.40543 -17575840.58842  21585767.085    21585765.586
  23709182.190    -4564198.92343  -3544164.27242  23709184.149    23709183.035
  21907953.399   -18824755.53643 -14610390.23442  21907955.308    21907953.484
  22099589.257   -16121460.65543 -12497463.70442  22099591.538    22099589.726
  20263482.110   -25534255.97144 -19432141.82142  20263483.624    20263481.060
  21572746.619   -17568299.01243 -13187451.94342  21572748.072    21572745.686
  20696462.577   -24650477.26344 -19141150.87642  20696464.492    20696460.496
 03  3 26  0 39 30.0000000  0  8G 9G17G31G 3G14G15G23G18
  23992726.538    -5462001.16943  -4133187.05542  23992728.693    23992728.544
  21594876.985   -22527013.52943 -17538532.41342  21594878.120    21594876.728
  23693629.332    -4645929.60843  -3607850.45542  23693631.222    23693630.188
  21900556.272   -18863627.74643 -14640680.24342  21900558.208    21900556.319
  22081704.009   -16215447.63243 -12570700.23342  22081706.300    22081704.557
  20263371.935   -25534835.04744 -19432593.05642  20263373.445    20263370.838
  21582075.191   -17519277.12043 -13149253.08442  21582076.665    21582074.240
  20702601.954   -24618214.75144 -19116011.26542  20702603.867    20702599.870
 03  3 26  0 40  0.0000000  0  8G 9G17G31G 3G14G15G23G18
  23983300.256    -5511535.91443  -4171785.44342  23983302.457    23983302.244
  21604049.025   -22478814.28643 -17500974.60442  21604050.154    21604048.783
  23678150.496    -4727270.93743  -3671233.25342  23678152.446    23678151.386
  21893262.922   -18901954.39143 -14670545.13642  21893264.905    21893262.927
  22063883.384   -16309095.16543 -12643672.26042  22063885.666    22063883.968
  20263329.509   -25535057.89244 -19432766.70342  20263331.030    20263328.409
  21591431.829   -17470107.69943 -13110939.26542  21591433.322    21591430.860
  20708792.248   -24585684.62544 -19090663.12242  20708794.171    20708790.142
 03  3 26  0 40 30.0000000  0  8G 9G17G31G 3G14G15G23G18
  23973946.704    -5560689.19043  -4210086.58642  23973948.746    23973948.546
  21613277.584   -22430318.02743 -17463185.34842  21613278.731    21613277.344
  23662741.787    -4808243.94043  -3734329.01742  23662743.712    23662742.667
  21886069.131   -18939757.78943 -14700002.30742  21886071.141    21886069.116
  22046123.388   -16402424.16243 -12716396.07642  22046125.679    22046123.987
  20263350.547   -25534947.32644 -19432680.55142  20263352.077    20263349.447
  21600811.844   -17420815.47843 -13072529.75742  21600813.320    21600810.841
  20715028.755   -24552911.64644 -19065125.74142  20715030.676    20715026.632
 03  3 26  0 41  0.0000000  0  8G 9G17G31G 3G14G15G23G18
  23964661.423    -5609483.42743  -4248107.96542  23964663.491    23964663.197
  21622558.017   -22381549.13343 -17425183.65342  21622559.185    21622557.727
  23647398.934    -4888871.09943  -3797155.32342  23647400.805    23647399.747
  21878970.455   -18977061.46943 -14729070.08642  21878972.464    21878970.399
  22028419.753   -16495457.10843 -12788889.20642  22028422.064    22028420.331
  20263430.517   -25534527.15544 -19432353.15042  20263432.027    20263429.410
  21610210.252   -17371426.67643 -13034044.99742  21610211.708    21610209.203
  20721306.480   -24519921.95544 -19039419.49542  20721308.431    20721304.349
 03  3 26  0 41 30.0000000  0  8G 9G17G31G 3G14G15G23G18
  23955455.142    -5657862.25443  -4285805.66242  23955457.170    23955456.829
  21631900.551   -22332453.87143 -17386927.64442  21631901.767    21631900.217
  23632132.545    -4969096.28243  -3859668.38242  23632134.413    23632133.295
  21871977.316   -19013810.61243 -14757705.76042  21871979.273    21871977.256
  22010783.154   -16588137.98643 -12861107.99842  22010785.445    22010783.679
  20263579.785   -25533742.82644 -19431741.98842  20263581.293    20263578.654
  21619637.003   -17321888.97243 -12995444.21042  21619638.463    21619635.906
  20727635.416   -24486663.19044 -19013503.57442  20727637.376    20727633.279
 03  3 26  0 42  0.0000000  0  8G 9G17G31G 3G14G15G23G18
  23946319.931    -5705867.55443  -4323212.28942  23946322.009    23946321.517
  21641296.856   -22283075.92743 -17348451.35842  21641298.085    21641296.512
  23616934.620    -5048961.71543  -3921901.11342  23616936.474    23616935.259
  21865081.394   -19050048.59943 -14785943.12542  21865083.392    21865081.417
  21993205.516   -16680508.88243 -12933085.24042  21993207.840    21993205.997
  20263790.055   -25532637.77144 -19430880.90542  20263791.559    20263788.990
  21629083.346   -17272248.36243 -12956763.23642  21629084.801    21629082.237
  20734006.795   -24453181.50744 -18987413.95442  20734008.757    20734004.636
 03  3 26  0 42 30.0000000  0  8G 9G17G31G 3G14G15G23G18
  23937260.864    -5753472.72843  -4360307.14042  23937263.083    23937262.317
  21650751.521   -22233391.39743 -17309736.17642  21650752.776    21650751.180
  23601810.175    -5128441.08843  -3983833.02042  23601812.023    23601810.747
  21858287.527   -19085750.58243 -14813762.82542  21858289.547    21858287.577
  21975691.889   -16772543.40443 -13004800.37342  21975694.210    21975692.314
  20264066.080   -25531187.34844 -19429750.70542  20264067.565    20264065.029
  21638553.579   -17222482.26243 -12917984.47942  21638555.043    21638552.450
  20740424.882   -24419454.44944 -18961133.13742  20740426.821    20740422.682
 03  3 26  0 43  0.0000000  0  8G 9G17G31G 3G14G15G23G18
  23928273.539    -5800701.13543  -4397108.41042  23928275.798    23928275.062
  21660259.570   -22183426.70743 -17270802.69242  21660260.794    21660259.172
  23586754.721    -5207558.04043  -4045482.52742  23586756.518    23586755.150
  21851590.962   -19120941.34143 -14841184.16842  21851592.958    21851591.002
  21958237.762   -16864265.14343 -13076271.77342  21958240.117    21958238.165
  20264403.049   -25529416.51244 -19428370.83442  20264404.534    20264402.035
  21648042.513   -17172617.79443 -12879129.06842  21648043.984    21648041.375
  20746884.457   -24385509.12444 -18934682.24242  20746886.412    20746882.263
 03  3 26  0 43 30.0000000  0  8G 9G17G31G 3G14G15G23G18
  23919368.987    -5847494.54343  -4433570.72442  23919371.302    23919370.540
  21669831.539   -22133125.79043 -17231607.20942  21669832.822    21669831.152
  23571779.149    -5286254.89743  -4106804.67342  23571780.964    23571779.541
  21845002.442   -19155564.23343 -14868163.02142  21845004.401    21845002.456
  21940854.122   -16955616.50343 -13147454.57042  21940856.490    21940854.476
  20264811.729   -25527268.91344 -19426697.38042  20264813.208    20264810.727
  21657560.389   -17122601.06043 -12840155.00942  21657561.908    21657559.285
  20753395.829   -24351291.68544 -18908019.31442  20753397.767    20753393.605
 03  3 26  0 44  0.0000000  0  8G 9G17G31G 3G14G15G23G18
  23910542.180    -5893878.98543  -4469714.35542  23910544.522    23910543.986
  21679462.004   -22082517.25843 -17192172.02042  21679463.335    21679461.624
  23556878.462    -5364558.16443  -4167820.14442  23556880.258    23556878.812
  21838516.629   -19189647.24843 -14894721.18942  21838518.565    21838516.673
  21923535.974   -17046623.95743 -13218369.38542  21923538.303    21923536.248
  20265286.760   -25524772.65044 -19424752.24242  20265288.225    20265285.746
  21667101.474   -17072462.30343 -12801085.86842  21667103.010    21667100.430
  20759953.169   -24316832.57144 -18881168.06642  20759955.101    20759950.945
 03  3 26  0 44 30.0000000  0  8G 9G17G31G 3G14G15G23G18
  23901792.082    -5939860.39743  -4505543.93342  23901794.368    23901794.034
  21689149.429   -22031609.82343 -17152503.93042  21689150.761    21689149.039
  23542051.506    -5442473.94243  -4228533.67942  23542053.339    23542051.879
  21832132.175   -19223197.56243 -14920864.27042  21832134.089    21832132.248
  21906282.133   -17137293.47943 -13289020.88042  21906284.472    21906282.294
  20265826.711   -25521935.09244 -19422541.15642  20265828.190    20265825.739
  21676663.916   -17022211.35143 -12761929.30042  21676665.453    21676662.902
  20766554.656   -24282141.51944 -18854136.08642  20766556.567    20766552.433
 03  3 26  0 45  0.0000000  0  8G 9G17G31G 3G14G15G23G18
  23893120.444    -5985429.64343  -4541052.34642  23893122.736    23893122.376
  21698895.139   -21980396.27743 -17112597.31042  21698896.470    21698894.728
  23527299.966    -5519993.39143  -4288938.38042  23527301.827    23527300.398
  21825850.551   -19256207.71643 -14946586.45242  21825852.404    21825850.588
  21889094.254   -17227616.33543 -13359402.24942  21889096.620    21889094.328
  20266433.079   -25518748.71144 -19420058.26242  20266434.520    20266432.098
  21686248.694   -16971843.00943 -12722681.26142  21686250.225    21686247.696
  20773201.287   -24247213.12144 -18826919.16742  20773203.202    20773199.092
 03  3 26  0 45 30.0000000  0  8G 9G17G31G 3G14G15G23G18
  23884530.268    -6030571.07743  -4576227.40442  23884532.538    23884532.134
  21708701.589   -21928863.34743 -17072441.81542  21708702.937    21708701.204
  23512626.719    -5597101.09243  -4349022.23742  23512628.657    23512627.231
  21819674.382   -19288663.65443 -14971876.77242  21819676.237    21819674.407
  21871975.282   -17317576.99343 -13429501.38442  21871977.656    21871975.285
  20267108.450   -25515199.44344 -19417292.59942  20267109.914    20267107.496
  21695858.057   -16921345.36243 -12683332.46642  21695859.590    21695857.095
  20779895.284   -24212035.75944 -18799508.24742  20779897.213    20779893.138
 03  3 26  0 46  0.0000000  0  8G 9G17G31G 3G14G15G23G18
  23876015.717    -6075315.14543  -4611092.82942  23876017.990    23876017.571
  21718562.543   -21877043.98043 -17032063.12342  21718563.929    21718562.230
  23498026.071    -5673827.65043  -4408809.10142  23498027.986    23498026.613
  21813597.597   -19320597.28443 -14996760.10342  21813599.481    21813597.580
  21854919.334   -17407206.23943 -13499342.27442  21854921.717    21854919.314
  20267846.747   -25511319.56244 -19414269.32042  20267848.218    20267845.778
  21705485.517   -16870752.64043 -12643909.58742  21705487.052    21705484.561
  20786630.145   -24176643.75944 -18771930.08042  20786632.078    20786628.030
 03  3 26  0 46 30.0000000  0  8G 9G17G31G 3G14G15G23G18
  23867578.833    -6119651.19143  -4645640.31642  23867581.148    23867580.657
  21728479.531   -21824929.96343 -16991454.83442  21728480.941    21728479.296
  23483499.921    -5750162.84143  -4468290.99842  23483501.777    23483500.451
  21807621.932   -19351999.79543 -15021229.57242  21807623.816    21807621.830
  21837928.439   -17496493.64243 -13568916.79542  21837930.812    21837928.416
  20268649.632   -25507100.41244 -19410981.67842  20268651.072    20268648.624
  21715132.332   -16820058.31443 -12604407.53142  21715133.852    21715131.351
  20793407.099   -24141030.56844 -18744179.55242  20793409.058    20793405.013
 03  3 26  0 47  0.0000000  0  8G 9G17G31G 3G14G15G23G18
  23859229.216    -6163528.68443  -4679830.50842  23859231.509    23859230.994
  21738461.788   -21772472.88443 -16950579.23342  21738463.208    21738461.627
  23469057.806    -5826056.16343  -4527428.60142  23469059.652    23469058.374
  21801756.669   -19382821.93443 -15045246.80442  21801758.596    21801756.558
  21821012.219   -17585388.78943 -13638185.67042  21821014.549    21821012.157
  20269526.459   -25502492.78944 -19407391.33042  20269527.880    20269525.388
  21724807.438   -16769215.30543 -12564789.62242  21724808.955    21724806.421
  20800235.092   -24105149.16244 -18716220.02242  20800237.040    20800233.045
 03  3 26  0 47 30.0000000  0  8G 9G17G31G 3G14G15G23G18
  23850955.129    -6207009.52243  -4713711.62842  23850957.315    23850956.807
  21748497.043   -21719737.21943 -16909486.55442  21748498.514    21748496.951
  23454687.961    -5901569.84443  -4586270.35442  23454689.737    23454688.546
  21795989.757   -19413127.26643 -15068861.33042  21795991.681    21795989.632
  21804158.727   -17673954.07143 -13707197.50042  21804161.044    21804158.668
  20270465.079   -25497560.41344 -19403547.92642  20270466.507    20270463.954
  21734498.313   -16718289.50443 -12525107.19642  21734499.825    21734497.291
  20807101.560   -24069065.69844 -18688103.04542  20807103.460    20807099.527
 03  3 26  0 48  0.0000000  0  8G 9G17G31G 3G14G15G23G18
  23842764.864    -6250049.63243  -4747249.29842  23842766.963    23842766.419
  21758593.235   -21666681.62443 -16868144.57142  21758594.727    21758593.109
  23440398.654    -5976660.45943  -4644782.47042  23440400.331    23440399.184
  21790329.216   -19442873.66943 -15092040.33442  21790331.130    21790329.066
  21787376.353   -17762145.83143 -13775918.28342  21787378.649    21787376.284
  20271473.528   -25492261.06344 -19399418.57442  20271474.966    20271472.377
  21744212.555   -16667240.86143 -12485329.05242  21744214.094    21744211.531
  20814014.061   -24032740.19044 -18659797.46342  20814015.953    20814012.031
 03  3 26  0 48 30.0000000  0  8G 9G17G31G 3G14G15G23G18
  23834653.784    -6292673.67643  -4780462.78742  23834655.811    23834655.070
  21768745.266   -21613332.64743 -16826573.98142  21768746.747    21768745.077
  23426185.113    -6051352.66743  -4702984.11542  23426186.737    23426185.688
  21784770.052   -19472087.31643 -15114804.20042  21784771.918    21784769.900
  21770660.375   -17849988.59843 -13844367.12242  21770662.672    21770660.289
  20272546.847   -25486620.73744 -19395023.52542  20272548.302    20272545.710
  21753944.824   -16616097.59043 -12445477.17342  21753946.354    21753943.822
  20820967.299   -23996200.86744 -18631325.27542  20820969.162    20820965.253
 03  3 26  0 49  0.0000000  0  8G 9G17G31G 3G14G15G23G18
  23826623.718    -6334871.43343  -4813344.09542  23826625.810    23826624.974
  21778954.496   -21559682.94043 -16784769.05542  21778955.961    21778954.273
  23412049.320    -6125636.52243  -4760867.57142  23412050.916    23412049.881
  21779313.825   -19500759.82443 -15137146.40042  21779315.702    21779313.696
  21754012.653   -17937472.63743 -13912536.43142  21754014.979    21754012.551
  20273686.685   -25480630.85144 -19390356.09242  20273688.143    20273685.578
  21763696.304   -16564853.28843 -12405546.56742  21763697.824    21763695.319
  20827962.316   -23959441.65344 -18602681.73942  20827964.215    20827960.316
 03  3 26  0 49 30.0000000  0  8G 9G17G31G 3G14G15G23G18
  23818677.274    -6376630.22243  -4845883.33042  23818679.303    23818678.507
  21789222.954   -21505722.16743 -16742721.74042  21789224.382    21789222.661
  23397993.610    -6199499.66443  -4818423.18542  23397995.175    23397994.213
  21773962.768   -19528879.85543 -15159058.10542  21773964.623    21773962.605
  21737435.611   -18024585.37343 -13980416.41442  21737437.917    21737435.461
  20274895.104   -25474280.47744 -19385407.75942  20274896.554    20274894.047
  21773468.701   -16513499.15143 -12365530.37042  21773470.226    21773467.702
  20835000.913   -23922453.57444 -18573859.87042  20835002.819    20834998.921
 03  3 26  0 50  0.0000000  0  8G 9G17G31G 3G14G15G23G18
  23810816.829    -6417936.60643  -4878070.04442  23810818.956    23810818.126
  21799552.760   -21451438.83243 -16700423.07842  21799554.166    21799552.408
  23384020.469    -6272928.60343  -4875640.46042  23384022.129    23384021.156
  21768719.127   -19556435.50943 -15180530.03542  21768720.965    21768718.857
  21720931.754   -18111313.52643 -14047996.72242  21720934.052    21720931.572
  20276174.455   -25467557.49144 -19380169.07642  20276175.873    20276173.422
  21783263.896   -16462025.19543 -12325420.80542  21783265.415    21783262.882
  20842084.931   -23885226.79444 -18544852.00042  20842086.817    20842082.938
 03  3 26  0 50 30.0000000  0  8G 9G17G31G 3G14G15G23G18
  23803042.788    -6458789.03343  -4909903.01442  23803044.891    23803044.069
  21809943.694   -21396834.05943 -16657873.93742  21809945.069    21809943.368
  23370130.210    -6345922.18243  -4932518.50942  23370131.950    23370130.892
  21763582.805   -19583427.05143 -15201562.39842  21763584.660    21763582.483
  21704501.344   -18197655.78943 -14115276.34542  21704503.625    21704501.096
  20277524.645   -25460462.05844 -19374640.18142  20277526.050    20277523.669
  21793081.511   -16410433.45543 -12285219.46242  21793083.027    21793080.471
  20849213.921   -23847763.68244 -18515659.97942  20849215.809    20849211.940
 03  3 26  0 51  0.0000000  0  8G 9G17G31G 3G14G15G23G18
  23795356.893    -6499178.45843  -4941375.21842  23795359.078    23795358.111
  21820397.079   -21341901.23243 -16615069.18142  21820398.389    21820396.785
  23356324.458    -6418471.57443  -4989050.41742  23356326.271    23356325.139
  21758555.198   -19609847.26743 -15222149.57242  21758557.078    21758554.848
  21688145.997   -18283603.51343 -14182248.52942  21688148.282    21688145.722
  20278947.136   -25452986.94944 -19368815.43642  20278948.497    20278946.144
  21802922.560   -16358718.64043 -12244922.21842  21802924.059    21802921.468
  20856388.893   -23810058.98744 -18486279.70742  20856390.784    20856386.918
 03  3 26  0 51 30.0000000  0  8G 9G17G31G 3G14G15G23G18
  23787752.415    -6539140.16143  -4972514.13142  23787754.606    23787753.662
  21830905.730   -21286677.96143 -16572038.11342  21830907.010    21830905.472
  23342596.448    -6490612.46243  -5045264.02542  23342598.295    23342597.150
  21753629.295   -19635732.95743 -15242320.23342  21753631.201    21753628.931
  21671858.992   -18369192.08243 -14248940.85042  21671861.270    21671858.685
  20280434.841   -25445168.91644 -19362723.47642  20280436.229    20280433.892
  21812779.586   -16306919.76343 -12204559.46842  21812781.116    21812778.516
  20863602.406   -23772151.76044 -18456741.61742  20863604.304    20863600.429
 03  3 26  0 52  0.0000000  0  8G 9G17G31G 3G14G15G23G18
  23780225.894    -6578691.79343  -5003333.52342  23780227.989    23780227.176
  21841465.946   -21231184.09143 -16528796.17842  21841467.163    21841465.672
  23328942.861    -6562362.55343  -5101173.11642  23328944.725    23328943.533
  21748801.473   -19661103.22343 -15262089.26542  21748803.404    21748801.121
  21655636.907   -18454439.45543 -14315367.30942  21655639.192    21655636.588
  20281984.179   -25437027.14944 -19356379.25342  20281985.569    20281983.231
  21822648.574   -16255058.02043 -12164147.73442  21822650.108    21822647.515
  20870850.435   -23734063.31544 -18427062.32742  20870852.326    20870848.418
 03  3 26  0 52 30.0000000  0  8G 9G17G31G 3G14G15G23G18
  23772788.194    -6617776.17243  -5033788.79442  23772790.382    23772789.611
  21852088.032   -21175364.84143 -16485300.70642  21852089.257    21852087.811
  23315374.450    -6633664.98543  -5156733.37742  23315376.358    23315375.073
  21744082.261   -19685902.82143 -15281413.62242  21744084.205    21744081.938
  21639490.555   -18539288.57443 -14381483.43642  21639492.873    21639490.252
  20283605.694   -25428506.15344 -19349739.52442  20283607.109    20283604.724
  21832539.670   -16203079.83443 -12123645.26342  21832541.203    21832538.681
  20878143.109   -23695740.23244 -18397200.19442  20878145.013    20878141.112
 03  3 26  0 53  0.0000000  0  8G 9G17G31G 3G14G15G23G18
  23765440.087    -6656389.65343  -5063877.15642  23765442.222    23765441.629
  21862772.248   -21119219.09143 -16441550.81142  21862773.518    21862772.094
  23301891.902    -6704516.20643  -5211942.05742  23301893.806    23301892.514
  21739471.989   -19710129.88643 -15300291.84842  21739473.918    21739471.686
  21623420.734   -18623735.84943 -14447286.44342  21623423.012    21623420.414
  20285299.765   -25419603.74544 -19342802.59242  20285301.227    20285298.770
  21842452.940   -16150985.08943 -12083051.96842  21842454.466    21842452.032
  20885480.412   -23657182.53244 -18367155.25042  20885482.323    20885478.448
 03  3 26  0 53 30.0000000  0  8G 9G17G31G 3G14G15G23G18
  23758172.759    -6694578.80243  -5093634.87042  23758174.937    23758174.464
  21873509.335   -21062795.42343 -16397584.34242  21873510.633    21873509.252
  23288486.295    -6774963.00643  -5266835.59642  23288488.185    23288486.884
  21734961.477   -19733832.58943 -15318761.48142  21734963.391    21734961.214
  21607418.430   -18707828.10343 -14512812.80542  21607420.710    21607418.127
  20287057.293   -25410367.89144 -19335605.83142  20287058.764    20287056.284
  21852378.857   -16098823.92943 -12042406.92042  21852380.396    21852377.980
  20892852.794   -23618440.44944 -18336966.62242  20892854.720    20892850.848
 03  3 26  0 54  0.0000000  0  8G 9G17G31G 3G14G15G23G18
  23750996.345    -6732291.19443  -5123021.09842  23750998.471    23750997.907
  21884308.914   -21006043.34443 -16353361.98942  21884310.217    21884308.834
  23275167.523    -6844953.22543  -5321373.36042  23275169.469    23275168.150
  21730560.383   -19756960.19543 -15336782.98142  21730562.271    21730560.205
  21591493.611   -18791513.34443 -14578022.02342  21591495.893    21591493.276
  20288887.921   -25400747.82044 -19328109.68742  20288889.384    20288886.913
  21862326.702   -16046547.47743 -12001672.04242  21862328.277    21862325.883
  20900269.524   -23579465.18744 -18306596.30042  20900271.455    20900267.592
 03  3 26  0 54 30.0000000  0  8G 9G17G31G 3G14G15G23G18
  23743906.120    -6769550.87043  -5152054.55742  23743908.455    23743907.480
  21895165.855   -20948990.03943 -16308904.91742  21895167.087    21895165.719
  23261931.046    -6914511.14843  -5375574.27642  23261933.020    23261931.618
  21726263.798   -19779538.58143 -15354376.51942  21726265.653    21726263.699
  21575641.684   -18874815.61643 -14642932.82842  21575643.948    21575641.278
  20290786.812   -25390769.22444 -19320334.17342  20290788.226    20290785.794
  21872291.308   -15994183.32843 -11960868.82742  21872292.865    21872290.467
  20907725.340   -23540284.68144 -18276066.04442  20907727.237    20907723.388
 03  3 26  0 55  0.0000000  0  8G 9G17G31G 3G14G15G23G18
  23736904.351    -6806345.56643  -5180725.69642  23736906.609    23736905.789
  21906082.085   -20891624.89343 -16264204.84342  21906083.334    21906082.028
  23248779.129    -6983624.51043  -5429428.77942  23248781.088    23248779.710
  21722073.791   -19801556.85343 -15371533.60642  21722075.632    21722073.776
  21559864.932   -18957722.74443 -14707535.72642  21559867.199    21559864.505
  20292755.945   -25380421.42944 -19312270.96742  20292757.371    20292754.916
  21882274.281   -15941722.50343 -11919990.27942  21882275.841    21882273.432
  20915221.942   -23500889.81444 -18245368.75142  20915223.822    20915219.965
 03  3 26  0 55 30.0000000  0  8G 9G17G31G 3G14G15G23G18
  23729992.252    -6842668.31243  -5209029.07042  23729994.533    23729993.760
  21917058.524   -20833943.24943 -16219258.15542  21917059.767    21917058.566
  23235713.130    -7052286.53643  -5482931.60942  23235715.061    23235713.680
  21717991.407   -19823009.95543 -15388250.30042  21717993.208    21717991.431
  21544164.689   -19040227.93443 -14771825.43142  21544166.931    21544164.234
  20294796.461   -25369698.61744 -19303915.54242  20294797.864    20294795.401
  21892276.344   -15889161.37543 -11879033.57842  21892277.924    21892275.486
  20922759.981   -23461277.31944 -18214501.88442  20922761.879    20922757.983
 03  3 26  0 56  0.0000000  0  8G 9G17G31G 3G14G15G23G18
  23723170.521    -6878516.09743  -5236962.35342  23723172.742    23723172.155
  21928095.356   -20775944.50743 -16174064.37642  21928096.543    21928095.440
  23222733.530    -7120494.61943  -5536080.69842  23222735.441    23222734.027
  21714016.728   -19843896.93543 -15404525.86342  21714018.533    21714016.800
  21528541.405   -19122328.75143 -14835800.04442  21528543.600    21528540.920
  20296908.535   -25358599.57044 -19295266.94142  20296909.941    20296907.496
  21902297.356   -15836500.70143 -11837999.30542  21902298.949    21902296.480
  20930339.300   -23421447.86444 -18183465.95442  20930341.229    20930337.297
 03  3 26  0 56 30.0000000  0  8G 9G17G31G 3G14G15G23G18
  23716434.732    -6913912.80443  -5264544.15242  23716436.886    23716436.183
  21939187.479   -20717655.14743 -16128644.14242  21939188.618    21939187.594
  23209835.736    -7188272.78743  -5588894.79942  23209837.610    23209836.214
  21710145.003   -19864242.99443 -15420379.93142  21710146.800    21710145.153
  21512990.527   -19204048.95843 -14899478.08242  21512992.718    21512990.041
  20299087.399   -25347149.51944 -19286344.83342  20299088.831    20299086.389
  21912332.102   -15783767.72143 -11796908.69142  21912333.692    21912331.231
  20937954.684   -23381428.96144 -18152282.39842  20937956.611    20937952.643
 03  3 26  0 57  0.0000000  0  8G 9G17G31G 3G14G15G23G18
  23709790.074    -6948830.80943  -5291752.94442  23709792.109    23709791.419
  21950339.836   -20659049.48243 -16082977.43542  21950340.946    21950339.928
  23197025.077    -7255593.20143  -5641352.20442  23197026.918    23197025.527
  21706381.193   -19884022.13943 -15435792.25142  21706382.951    21706381.333
  21497517.369   -19285360.88743 -14962837.98142  21497519.543    21497516.863
  20301338.107   -25335321.93544 -19277128.54142  20301339.548    20301337.113
  21922385.329   -15730937.69943 -11755742.46242  21922386.907    21922384.462
  20945610.687   -23341196.31144 -18120932.28442  20945612.639    20945608.689
 03  3 26  0 57 30.0000000  0  8G 9G17G31G 3G14G15G23G18
  23703234.083    -6983282.48543  -5318598.34842  23703236.128    23703235.409
  21961549.599   -20600142.07743 -16037075.61142  21961550.747    21961549.677
  23184299.069    -7322468.49043  -5693462.74942  23184300.900    23184299.502
  21702722.541   -19903248.59243 -15450773.90242  21702724.319    21702722.660
  21482119.472   -19366277.05843 -15025889.50542  21482121.658    21482119.015
  20303658.011   -25323130.90244 -19267629.04542  20303659.452    20303657.031
  21932454.021   -15678026.44643 -11714512.94142  21932455.589    21932453.154
  20953304.414   -23300765.61944 -18089427.85642  20953306.374    20953302.384
 03  3 26  0 58  0.0000000  0  8G 9G17G31G 3G14G15G23G18
  23696768.764    -7017258.04343  -5345072.75742  23696770.878    23696770.017
  21972818.135   -20540925.60143 -15990932.94642  21972819.302    21972818.233
  23171659.587    -7388889.22843  -5745219.10342  23171661.353    23171659.955
  21699170.660   -19921914.15543 -15465318.49342  21699172.434    21699170.703
  21466798.684   -19446788.04743 -15088625.29942  21466800.884    21466798.241
  20306048.636   -25310568.07544 -19257839.83342  20306050.094    20306047.689
  21942539.375   -15625027.63943 -11673215.18542  21942540.929    21942538.502
  20961036.941   -23260130.77544 -18057764.34442  20961038.927    20961034.947
 03  3 26  0 58 30.0000000  0  8G 9G17G31G 3G14G15G23G18
  23690395.816    -7050747.41543  -5371168.34242  23690398.021    23690397.151
  21984147.036   -20481391.74543 -15944542.97042  21984148.251    21984147.136
  23159108.416    -7454845.50443  -5796613.53442  23159110.179    23159108.808
  21695727.032   -19940010.69743 -15479419.69042  21695728.821    21695727.008
  21451556.871   -19526884.04743 -15151037.72742  21451559.053    21451556.419
  20308511.665   -25297624.90544 -19247754.24942  20308513.116    20308510.697
  21952642.723   -15571934.57243 -11631843.98242  21952644.233    21952641.777
  20968809.570   -23219285.45444 -18025936.83342  20968811.533    20968807.563
 03  3 26  0 59  0.0000000  0  8G 9G17G31G 3G14G15G23G18
  23684116.372    -7083744.80743  -5396880.55442  23684118.740    23684117.877
  21995536.914   -20421537.60643 -15897903.42242  21995538.145    21995537.030
  23146646.728    -7520331.59043  -5847641.58342  23146648.477    23146647.150
  21692392.425   -19957534.25643 -15493074.41042  21692394.256    21692392.364
  21436395.169   -19606559.23443 -15213122.25742  21436397.326    21436394.659
  20311047.863   -25284297.07844 -19237368.93242  20311049.325    20311046.900
  21962764.466   -15518744.61743 -11590397.28342  21962765.972    21962763.466
  20976622.761   -23178226.99144 -17993943.24242  20976624.687    20976620.749
 03  3 26  0 59 30.0000000  0  8G 9G17G31G 3G14G15G23G18
  23677927.870    -7116264.81043  -5422220.77942  23677930.294    23677929.562
  22006984.631   -20361379.76543 -15851027.22242  22006985.902    22006984.717
  23134271.729    -7585362.18343  -5898314.71142  23134273.476    23134272.152
  21689163.743   -19974501.20143 -15506295.40342  21689165.575    21689163.658
  21421310.741   -19685828.21543 -15274890.25842  21421312.904    21421310.197
  20313654.204   -25270600.60944 -19226696.36142  20313655.703    20313653.267
  21972901.274   -15465475.48843 -11548888.88542  21972902.783    21972900.257
  20984473.081   -23136973.20844 -17961797.45142  20984475.016    20984471.118
 03  3 26  1  0  0.0000000  0  8G 9G17G31G 3G14G15G23G18
  23671830.224    -7148307.53743  -5447189.07042  23671832.641    23671832.004
  22018489.760   -20300920.16843 -15803915.88142  22018491.041    22018489.787
  23121983.341    -7649937.61443  -5948633.16242  23121985.116    23121983.776
  21686040.665   -19990913.25743 -15519084.01742  21686042.496    21686040.581
  21406303.565   -19764691.28743 -15336341.96442  21406305.728    21406302.984
  20316330.521   -25256536.65044 -19215737.43642  20316332.018    20316329.539
  21983052.511   -15412130.54443 -11507321.40942  21983054.019    21983051.494
  20992359.885   -23095527.70044 -17929502.26642  20992361.817    20992357.947
 03  3 26  1  0 30.0000000  0  8G 9G17G31G 3G14G15G23G18
  23665827.829    -7179849.57043  -5471767.20242  23665830.098    23665829.849
  22030056.258   -20240137.97843 -15756553.18142  22030057.538    22030056.174
  23109786.022    -7714034.66143  -5998578.85442  23109787.791    23109786.475
  21683027.228   -20006749.06043 -15531423.60842  21683029.045    21683027.146
  21391378.060   -19843125.17843 -15397459.24642  21391380.222    21391377.441
  20319080.853   -25242083.61544 -19204475.33642  20319082.366    20319079.860
  21993221.984   -15358689.81643 -11465679.29142  21993223.488    21993220.974
  21000286.975   -23053870.53344 -17897042.15342  21000288.921    21000285.043
 03  3 26  1  1  0.0000000  0  8G 9G17G31G 3G14G15G23G18
  23659915.370    -7210919.31643  -5495977.31042  23659917.413    23659917.488
  22041678.296   -20179063.80343 -15708962.95842  22041679.613    22041678.204
  23097674.317    -7777681.83843  -6048173.99642  23097676.115    23097674.734
  21680117.691   -20022038.52443 -15543337.47942  21680119.532    21680117.634
  21376528.758   -19921158.52243 -15458264.40642  21376530.947    21376528.145
  20321899.570   -25227271.15244 -19192933.15242  20321901.097    20321898.582
  22003403.621   -15305184.76643 -11423987.05342  22003405.188    22003402.680
  21008248.284   -23012033.48444 -17864441.87042  21008250.248    21008246.380
 03  3 26  1  1 30.0000000  0  8G 9G17G31G 3G14G15G23G18
  23654097.438    -7241492.68843  -5519800.63642  23654099.412    23654099.486
  22053360.108   -20117675.54043 -15661127.99942  22053361.470    22053360.041
  23085652.787    -7840855.14743  -6097399.90642  23085654.637    23085653.186
  21677316.376   -20036759.26143 -15554808.18442  21677318.231    21677316.351
  21361760.270   -19998767.25143 -15518738.70342  21361762.418    21361759.633
  20324791.023   -25212076.50744 -19181093.17142  20324792.564    20324790.051
  22013601.498   -15251594.29943 -11382228.25842  22013603.089    22013600.651
  21016247.774   -22969995.76544 -17831685.22042  21016249.758    21016245.902
 03  3 26  1  2  0.0000000  0  8G 9G17G31G 3G14G15G23G18
  23648375.554    -7271562.00443  -5543231.19442  23648377.492    23648377.521
  22065102.773   -20055967.82443 -15613044.10642  22065104.143    22065102.679
  23073722.920    -7903546.89443  -6146250.56142  23073724.770    23073723.333
  21674624.424   -20050905.39143 -15565831.15242  21674626.274    21674624.370
  21347074.011   -20075943.82143 -15578876.24542  21347076.128    21347073.368
  20327756.414   -25196493.33544 -19168950.44142  20327757.968    20327755.414
  22023816.545   -15197913.74543 -11340399.26042  22023818.121    22023815.739
  21024286.387   -22927752.63344 -17798768.50642  21024288.352    21024284.530
 03  3 26  1  2 30.0000000  0  8G 9G17G31G 3G14G15G23G18
  23642747.610    -7301137.16943  -5566276.68842  23642749.598    23642749.425
  22076903.989   -19993952.39343 -15564720.44442  22076905.338    22076903.884
  23061882.776    -7965767.20543  -6194733.87042  23061884.635    23061883.181
  21672039.586   -20064488.76143 -15576415.60342  21672041.418    21672039.500
  21332468.127   -20152698.06543 -15638684.70542  21332470.232    21332467.464
  20330793.607   -25180532.85744 -19156513.71142  20330795.146    20330792.588
  22034046.270   -15144156.13243 -11298510.22042  22034047.826    22034045.489
  21032361.507   -22885317.50144 -17765702.18342  21032363.461    21032359.678
 03  3 26  1  3  0.0000000  0  8G 9G17G31G 3G14G15G23G18
  23637214.017    -7330216.40043  -5588935.75842  23637215.974    23637215.602
  22088763.530   -19931630.12843 -15516157.68142  22088764.908    22088763.480
  23050132.656    -8027514.31543  -6242848.45242  23050134.564    23050133.095
  21669561.882   -20077509.33543 -15586561.51042  21669563.717    21669561.749
  21317942.916   -20229028.31743 -15698162.77642  21317945.032    21317942.257
  20333902.699   -25164194.49844 -19143782.52942  20333904.242    20333901.696
  22044290.410   -15090322.73743 -11256562.13042  22044291.992    22044289.668
  21040472.937   -22842691.75444 -17732487.32642  21040474.859    21040471.125
 03  3 26  1  3 30.0000000  0  8G 9G17G31G 3G14G15G23G18
  23631777.981    -7358783.08843  -5611195.43942  23631779.858    23631779.344
  22100684.331   -19868986.03943 -15467344.14942  22100685.683    22100684.291
  23038475.717    -8088771.86343  -6290581.56242  23038477.589    23038476.131
  21667194.087   -20089952.18643 -15596257.24142  21667195.949    21667193.938
  21303501.480   -20304918.25143 -15757297.74642  21303503.597    21303500.842
  20337086.540   -25147463.23444 -19130745.18942  20337088.071    20337085.546
  22054551.563   -15036399.96543 -11214544.40142  22054553.140    22054550.833
  21048623.183   -22799862.01044 -17699113.51142  21048625.098    21048621.376
 03  3 26  1  4  0.0000000  0  8G 9G17G31G 3G14G15G23G18
  23626437.257    -7386848.96343  -5633064.88142  23626439.200    23626438.513
  22112663.715   -19806033.95143 -15418290.61642  22112665.105    22112663.666
  23026909.676    -8149551.54843  -6337942.31442  23026911.604    23026910.086
  21664933.649   -20101830.96243 -15605513.43842  21664935.515    21664933.514
  21289141.653   -20380379.54043 -15816098.69842  21289143.783    21289141.020
  20340342.684   -25130351.97144 -19117411.74442  20340344.198    20340341.712
  22064826.912   -14982402.48243 -11172468.45642  22064828.487    22064826.217
  21056809.389   -22756843.19444 -17665592.36442  21056811.320    21056807.595
 03  3 26  1  4 30.0000000  0  8G 9G17G31G 3G14G15G23G18
  23621191.844    -7414414.13443  -5654544.16442  23621193.752    23621192.961
  22124701.339   -19742776.11743 -15368998.84642  22124702.717    22124701.254
  23015434.587    -8209853.40243  -6384930.73542  23015436.518    23015434.957
  21662780.236   -20113147.29543 -15614331.36142  21662782.108    21662780.121
  21274863.368   -20455412.28743 -15874565.72442  21274865.512    21274862.734
  20343670.940   -25112861.81844 -19103783.05742  20343672.454    20343669.981
  22075115.948   -14928333.09543 -11130336.47942  22075117.525    22075115.264
  21065030.980   -22713638.44044 -17631926.32542  21065032.920    21065029.201
 03  3 26  1  5  0.0000000  0  8G 9G17G31G 3G14G15G23G18
  23616039.591    -7441489.58243  -5675641.85042  23616041.554    23616040.650
  22136794.591   -19679225.86243 -15319479.22542  22136795.957    22136794.559
  23004048.283    -8269688.58343  -6431555.51142  23004050.217    23004048.670
  21660731.407   -20123914.03343 -15622721.03442  21660733.285    21660731.313
  21260664.540   -20530027.62243 -15932707.49442  21260666.693    21260663.860
  20347068.917   -25095005.30044 -19089868.88942  20347070.430    20347067.979
  22085416.017   -14874205.79343 -11088159.37342  22085417.592    22085415.350
  21073285.250   -22670262.11244 -17598126.58942  21073287.189    21073283.469
 03  3 26  1  5 30.0000000  0  8G 9G17G31G 3G14G15G23G18
  23610986.028    -7468045.97343  -5696335.08342  23610988.018    23610987.092
  22148948.726   -19615355.55243 -15269710.20742  22148950.076    22148948.713
  22992756.411    -8329027.85543  -6477793.87142  22992758.331    22992756.769
  21658792.390   -20134103.69443 -15630661.03242  21658794.271    21658792.290
  21246550.733   -20604196.16743 -15990501.11642  21246552.882    21246550.002
  20350541.962   -25076754.33544 -19075647.35642  20350543.463    20350541.052
  22095732.144   -14819994.12843 -11045916.53342  22095733.691    22095731.533
  21081577.206   -22626687.66444 -17564172.47242  21081579.158    21081575.429
 03  3 26  1  6  0.0000000  0  8G 9G17G31G 3G14G15G23G18
  23606029.699    -7494091.17843  -5716629.98642  23606031.704    23606030.844
  22161161.913   -19551175.32043 -15219699.68842  22161163.166    22161161.862
  22981557.375    -8387879.29843  -6523652.10842  22981559.272    22981557.742
  21656961.276   -20143726.12143 -15638159.03442  21656963.179    21656961.202
  21232520.402   -20677925.94643 -16047952.84242  21232522.592    21232519.644
  20354088.321   -25058118.02444 -19061125.55342  20354089.844    20354087.423
  22106062.262   -14765709.01143 -11003616.46342  22106063.811    22106061.730
  21089904.789   -22582926.08844 -17530072.54542  21089906.736    21089903.004
 03  3 26  1  6 30.0000000  0  8G 9G17G31G 3G14G15G23G18
  23601171.765    -7519619.00343  -5736521.71742  23601173.901    23601173.136
  22173434.792   -19486681.12943 -15169444.51442  22173436.035    22173434.752
  22970452.308    -8446236.63043  -6569125.31942  22970454.247    22970452.702
  21655239.016   -20152776.76643 -15645211.48742  21655240.873    21655238.911
  21218574.735   -20751210.92243 -16105057.96642  21218576.925    21218573.933
  20357709.008   -25039091.31344 -19046299.54242  20357710.499    20357708.069
  22116406.995   -14711347.03743 -10961256.50342  22116408.579    22116406.528
  21098268.556   -22538974.34644 -17495824.43242  21098270.495    21098266.753
 03  3 26  1  7  0.0000000  0  8G 9G17G31G 3G14G15G23G18
  23596408.592    -7544649.45143  -5756025.88942  23596410.764    23596410.030
  22185763.174   -19421895.23543 -15118962.04742  22185764.474    22185763.207
  22959437.449    -8504120.07243  -6614229.27542  22959439.382    22959437.812
  21653621.385   -20161277.61143 -15651835.52842  21653623.213    21653621.242
  21204709.901   -20824071.14343 -16161832.11542  21204712.069    21204709.078
  20361399.882   -25019695.60844 -19031186.00842  20361401.374    20361398.925
  22126762.000   -14656931.07543 -10918854.46742  22126763.597    22126761.582
  21106664.093   -22494855.37644 -17461446.01942  21106666.053    21106662.323
 03  3 26  1  7 30.0000000  0  8G 9G17G31G 3G14G15G23G18
  23591744.614    -7569158.50943  -5775123.77942  23591746.735    23591746.084
  22198151.372   -19356795.14243 -15068234.76042  22198152.666    22198151.479
  22948517.352    -8561505.39743  -6658945.08642  22948519.268    22948517.693
  21652112.697   -20169205.86743 -15658013.39942  21652114.552    21652112.547
  21190930.537   -20896482.11144 -16218256.20142  21190932.726    21190929.704
  20365165.369   -24999907.87244 -19015767.00342  20365166.865    20365164.402
  22137131.409   -14602439.41443 -10876393.44542  22137133.013    22137131.042
  21115095.506   -22450548.04344 -17426920.82942  21115097.481    21115093.754
 03  3 26  1  8  0.0000000  0  8G 9G17G31G 3G14G15G23G18
  23587179.932    -7593146.31143  -5793815.50042  23587181.970    23587181.281
  22210598.929   -19291383.04143 -15017264.35042  22210600.224    22210599.100
  22937691.977    -8618392.78943  -6703272.90342  22937693.914    22937692.349
  21650712.534   -20176563.83143 -15663746.88442  21650714.393    21650712.389
  21177236.533   -20968444.35543 -16274330.62842  21177238.718    21177235.713
  20369005.162   -24979729.59944 -19000043.67942  20369006.668    20369004.200
  22147514.671   -14547875.05043 -10833875.77642  22147516.273    22147514.311
  21123562.189   -22406055.47544 -17392251.29942  21123564.150    21123560.429
 03  3 26  1  8 30.0000000  0  8G 9G17G31G 3G14G15G23G18
  23582714.039    -7616614.40743  -5812102.24542  23582716.117    23582715.457
  22223105.205   -19225662.39743 -14966053.51742  22223106.451    22223105.434
  22926961.042    -8674783.95843  -6747214.04342  22926962.946    22926961.412
  21649420.183   -20183355.04043 -15669038.74042  21649422.043    21649420.062
  21163627.627   -21039959.50643 -16330056.67442  21163629.790    21163626.799
  20372918.723   -24959163.49644 -18984018.14942  20372920.270    20372917.809
  22157910.930   -14493242.48443 -10791304.96342  22157912.515    22157910.524
  21132063.265   -22361382.08544 -17357440.86942  21132065.249    21132061.485
 03  3 26  1  9  0.0000000  0  8G 9G17G31G 3G14G15G23G18
  23578349.371    -7639550.84643  -5829974.72642  23578351.428    23578350.757
  22235671.990   -19159623.80143 -14914594.92542  22235673.230    22235672.235
  22916326.784    -8730666.98343  -6790759.23742  22916328.663    22916327.172
  21648237.658   -20189569.38243 -15673881.09842  21648239.493    21648237.535
  21150106.088   -21111015.43243 -16385424.88342  21150108.249    21150105.235
  20376908.184   -24938198.69444 -18967681.94342  20376909.734    20376907.290
  22168321.923   -14438532.39243 -10748673.73542  22168323.491    22168321.486
  21140600.427   -22316519.03144 -17322482.64742  21140602.421    21140598.651
 03  3 26  1  9 30.0000000  0  8G 9G17G31G 3G14G15G23G18
  23574084.605    -7661961.99543  -5847437.88842  23574086.654    23574085.958
  22248297.714   -19093275.56643 -14862895.06542  22248298.905    22248297.939
  22905787.954    -8786048.47143  -6833913.63142  22905789.846    22905788.396
  21647163.315   -20195215.04343 -15678280.32542  21647165.135    21647163.237
  21136670.643   -21181618.84143 -16440440.48242  21136672.821    21136669.778
  20380972.061   -24916842.90044 -18951041.06842  20380973.596    20380971.171
  22178745.960   -14383753.79443 -10705989.12942  22178747.528    22178745.487
  21149171.897   -22271475.59744 -17287383.87242  21149173.900    21149170.105
 03  3 26  1 10  0.0000000  0  8G 9G17G31G 3G14G15G23G18
  23569920.128    -7683845.83243  -5864490.15942  23569922.211    23569921.478
  22260982.395   -19026617.20443 -14810953.54242  22260983.593    22260982.614
  22895345.121    -8840925.97543  -6876675.31042  22895346.941    22895345.490
  21646197.284   -20200291.59443 -15682236.08642  21646199.093    21646197.236
  21123321.786   -21251767.25643 -16495101.53942  21123323.981    21123320.901
  20385110.578   -24895094.88644 -18934094.57042  20385112.099    20385109.680
  22189183.009   -14328907.01543 -10663251.38542  22189184.593    22189182.438
  21157777.584   -22226252.29144 -17252144.94142  21157779.581    21157775.814
 03  3 26  1 10 30.0000000  0  8G 9G17G31G 3G14G15G23G18
  23565851.969    -7705223.72743  -5881148.20742  23565854.027    23565853.303
  22273721.518   -18959672.69143 -14758789.04942  22273722.716    22273721.755
  22884994.021    -8895321.24343  -6919061.22342  22884995.821    22884994.353
  21645335.097   -20204822.33343 -15685766.53542  21645336.933    21645335.079
  21110055.395   -21321482.35443 -16549424.94842  21110057.583    21110054.494
  20389319.368   -24872977.50444 -18916860.25142  20389320.876    20389318.482
  22199628.443   -14274016.26643 -10620479.38142  22199630.034    22199627.786
  21166412.881   -22180873.53444 -17216784.87942  21166414.872    21166411.096
 03  3 26  1 11  0.0000000  0  8G 9G17G31G 3G14G15G23G18
  23561885.967    -7726065.11443  -5897388.19242  23561888.076    23561887.185
  22286520.632   -18892412.97343 -14706378.93842  22286521.869    22286520.881
  22874740.500    -8949203.73343  -6961047.56942  22874742.262    22874740.811
  21644582.237   -20208778.65743 -15688849.39442  21644584.098    21644582.217
  21096877.268   -21390733.49943 -16603386.83342  21096879.476    21096876.386
  20393604.071   -24850461.21644 -18899315.09942  20393605.564    20393603.211
  22210087.577   -14219053.46743 -10577651.22942  22210089.147    22210086.838
  21175083.022   -22135311.70544 -17181282.16442  21175085.013    21175081.218
 03  3 26  1 11 30.0000000  0  8G 9G17G31G 3G14G15G23G18
  23558023.058    -7746364.87443  -5913206.13642  23558025.123    23558024.195
  22299380.326   -18824834.92443 -14653720.77942  22299381.565    22299380.666
  22864585.610    -9002568.08543  -7002630.18642  22864587.298    22864585.883
  21643939.385   -20212156.92643 -15691481.81442  21643941.275    21643939.379
  21083788.486   -21459515.28243 -16656982.98642  21083790.683    21083787.598
  20397965.486   -24827541.85944 -18881455.86642  20397966.963    20397964.620
  22220560.886   -14164015.97043 -10534764.87842  22220562.447    22220560.128
  21183788.504   -22089564.13544 -17145634.71442  21183790.485    21183786.688
 03  3 26  1 12  0.0000000  0  8G 9G17G31G 3G14G15G23G18
  23554256.339    -7766159.04543  -5928630.10842  23554258.447    23554257.456
  22312293.358   -18756976.28543 -14600843.97942  22312294.680    22312293.813
  22854522.452    -9055450.40543  -7043837.18442  22854524.084    22854522.695
  21643399.318   -20214995.17543 -15693693.44342  21643401.206    21643399.282
  21070782.141   -21527863.99943 -16710241.68242  21070784.321    21070781.229
  20402396.553   -24804256.46544 -18863311.41142  20402398.030    20402395.708
  22231041.099   -14108942.32743 -10491850.35842  22231042.668    22231040.310
  21192521.924   -22043669.70044 -17109872.82542  21192523.918    21192520.076
 03  3 26  1 12 30.0000000  0  8G 9G17G31G 3G14G15G23G18
  23550592.268    -7785413.62943  -5943633.63142  23550594.406    23550593.410
  22325266.040   -18688804.81843 -14547723.41042  22325267.323    22325266.487
  22844557.424    -9107816.95143  -7084642.28642  22844559.051    22844557.645
  21642968.085   -20217261.39843 -15695459.33642  21642969.970    21642968.013
  21057864.629   -21595745.79343 -16763136.54142  21057866.803    21057863.708
  20406903.513   -24780572.33444 -18844856.24842  20406904.992    20406902.648
  22241534.142   -14053801.10643 -10448883.18542  22241535.712    22241533.375
  21201289.261   -21997597.03344 -17073972.05542  21201291.250    21201287.394
 03  3 26  1 13  0.0000000  0  8G 9G17G31G 3G14G15G23G18
  23547035.811    -7804102.92643  -5958196.67142  23547037.963    23547036.958
  22338302.721   -18620296.99843 -14494340.74142  22338303.978    22338303.173
  22834695.469    -9159641.79743  -7125025.27642  22834697.114    22834695.733
  21642650.263   -20218931.56243 -15696760.76742  21642652.125    21642650.208
  21045040.898   -21663134.65743 -16815647.29942  21045043.079    21045039.991
  20411491.037   -24756464.83044 -18826071.18242  20411492.497    20411490.141
  22252044.461   -13998568.88443 -10405845.08942  22252046.054    22252043.747
  21210094.881   -21951323.16944 -17037914.51142  21210096.869    21210092.998
 03  3 26  1 13 30.0000000  0  8G 9G17G31G 3G14G15G23G18
  23543579.602    -7822265.45943  -5972349.26242  23543581.739    23543580.744
  22351395.610   -18551493.76843 -14440727.89042  22351396.901    22351396.067
  22824929.253    -9210963.56443  -7165016.26342  22824930.916    22824929.518
  21642438.158   -20220046.06543 -15697629.21342  21642440.033    21642438.114
  21032303.611   -21730069.27443 -16867804.09742  21032305.781    21032302.723
  20416151.519   -24731973.76744 -18806987.23842  20416152.988    20416150.651
  22262564.316   -13943286.66343 -10362768.03842  22262565.949    22262563.586
  21218930.907   -21904889.65444 -17001732.56242  21218932.894    21218928.990
 03  3 26  1 14  0.0000000  0  8G 9G17G31G 3G14G15G23G18
  23540225.339    -7839891.91943  -5986084.12442  23540227.438    23540226.524
  22364546.189   -18482387.31343 -14386878.77942  22364547.469    22364546.656
  22815260.586    -9261772.84443  -7204607.90142  22815262.278    22815260.782
  21642333.153   -20220597.59943 -15698058.98142  21642335.013    21642333.164
  21019654.550   -21796540.23143 -16919599.60342  21019656.733    21019653.693
  20420886.555   -24707090.89644 -18787597.99042  20420888.039    20420885.738
  22273095.020   -13887947.44243 -10319646.57242  22273096.661    22273094.254
  21227798.649   -21858289.31144 -16965420.61842  21227800.654    21227796.772
 03  3 26  1 14 30.0000000  0  8G 9G17G31G 3G14G15G23G18
  23536969.786    -7856999.59643  -5999414.72942  23536971.904    23536971.030
  22377750.800   -18412996.54743 -14332808.11642  22377752.090    22377751.403
  22805686.126    -9312087.03943  -7243813.75242  22805687.833    22805686.264
  21642331.697   -20220605.19043 -15698064.89642  21642333.555    21642331.719
  21007090.472   -21862564.67643 -16971047.17642  21007092.674    21007089.609
  20425692.728   -24681834.29844 -18767917.52742  20425694.198    20425691.947
  22283632.820   -13832570.95943 -10276496.07042  22283634.464    22283632.012
  21236694.301   -21811542.25244 -16928994.35342  21236696.303    21236692.457
 03  3 26  1 15  0.0000000  0  8G 9G17G31G 3G14G15G23G18
  23533819.672    -7873553.47943  -6012313.81242  23533821.807    23533820.920
  22391015.849   -18343288.43043 -14278490.15642  22391017.071    22391016.518
  22796212.602    -9361870.81343  -7282606.29842  22796214.284    22796212.669
  21642440.093   -20220035.53743 -15697621.01042  21642441.930    21642440.105
  20994618.028   -21928107.52743 -17022119.48142  20994620.257    20994617.181
  20430576.518   -24656169.78444 -18747919.20242  20430577.983    20430575.774
  22294183.984   -13777124.21543 -10233290.81742  22294185.644    22294183.176
  21245624.123   -21764615.77744 -16892428.27742  21245626.121    21245622.293
 03  3 26  1 15 30.0000000  0  8G 9G17G31G 3G14G15G23G18
  23530774.441    -7889556.34743  -6024783.53042  23530776.574    23530775.597
  22404340.481   -18273267.23143 -14223928.26442  22404341.670    22404341.189
  22786839.410    -9411126.90243  -7320987.65042  22786841.166    22786839.508
  21642657.503   -20218892.99643 -15696730.72342  21642659.339    21642657.508
  20982236.741   -21993171.33243 -17072818.50942  20982238.974    20982235.925
  20435537.244   -24630101.11044 -18727605.95342  20435538.689    20435536.508
  22304747.568   -13721612.18643 -10190034.69542  22304749.263    22304746.741
  21254587.101   -21717515.02644 -16855726.40642  21254589.119    21254585.281
 03  3 26  1 16  0.0000000  0  8G 9G17G31G 3G14G15G23G18
  23527829.993    -7905029.73043  -6036840.65842  23527832.118    23527830.990
  22417720.114   -18202957.06143 -14169141.17542  22417721.298    22417720.858
  22777562.520    -9459877.18243  -7358974.86442  22777564.249    22777562.586
  21642979.397   -20217201.54943 -15695412.71142  21642981.239    21642979.359
  20969942.533   -22057777.67843 -17123161.06942  20969944.766    20969941.744
  20440570.512   -24603651.04844 -18706995.51242  20440571.964    20440569.789
  22315318.996   -13666058.99343 -10146746.49842  22315320.669    22315318.171
  21263578.546   -21670264.68744 -16818907.97042  21263580.573    21263576.733
 03  3 26  1 16 30.0000000  0  8G 9G17G31G 3G14G15G23G18
  23524994.305    -7919931.11143  -6048452.06342  23524996.429    23524995.232
  22431162.565   -18132316.79643 -14114096.86542  22431163.729    22431163.295
  22768390.013    -9508078.84543  -7396534.58342  22768391.761    22768390.084
  21643413.499   -20214920.36043 -15693635.16542  21643415.363    21643413.451
  20957743.514   -22121883.90643 -17173113.93142  20957745.730    20957742.687
  20445684.283   -24576778.02244 -18686055.48742  20445685.754    20445683.558
  22325905.971   -13610424.13543 -10103394.66342  22325907.607    22325905.152
  21272606.191   -21622824.07144 -16781941.26642  21272608.229    21272604.391
 03  3 26  1 17  0.0000000  0  8G 9G17G31G 3G14G15G23G18
  23522264.390    -7934276.66043  -6059630.35742  23522266.537    23522265.357
  22444664.453   -18061363.84143 -14058808.90342  22444665.640    22444665.232
  22759318.842    -9555748.09043  -7433679.42842  22759320.549    22759318.911
  21643956.453   -20212067.34843 -15691412.04642  21643958.298    21643956.392
  20945636.571   -22185506.20443 -17222689.70442  20945638.799    20945635.712
  20450875.279   -24549499.11444 -18664799.19742  20450876.767    20450874.550
  22336504.986   -13554725.96043 -10059993.49542  22336506.599    22336504.171
  21281666.436   -21575212.12443 -16744841.06042  21281668.464    21281664.647
 03  3 26  1 17 30.0000000  0  8G 9G17G31G 3G14G15G23G18
  23519639.415    -7948070.91643  -6070379.06142  23519641.551    23519640.356
  22458224.495   -17990105.58743 -14003283.05742  22458225.695    22458225.269
  22750348.105    -9602889.35243  -7470412.85542  22750349.828    22750348.180
  21644607.015   -20208648.75843 -15688748.21342  21644608.871    21644606.961
  20933620.868   -22248648.97943 -17271891.82542  20933623.139    20933619.962
  20456142.451   -24521819.98144 -18643231.03842  20456143.914    20456141.685
  22347114.728   -13498971.13943 -10016548.18342  22347116.359    22347113.989
  21290757.993   -21527435.64843 -16707612.65142  21290760.008    21290756.252
 03  3 26  1 18  0.0000000  0  8G 9G17G31G 3G14G15G23G18
  23517116.531    -7961328.75343  -6080709.79242  23517118.659    23517117.348
  22471839.600   -17918557.80343 -13947531.60242  22471840.852    22471840.399
  22741475.063    -9649517.50343  -7506746.44842  22741476.769    22741475.080
  21645361.987   -20204681.38943 -15685656.75842  21645363.847    21645361.941
  20921693.606   -22311326.98244 -17320731.78542  20921695.906    20921692.680
  20461482.816   -24493756.06844 -18621363.05042  20461484.309    20461482.066
  22357732.076   -13443176.67743  -9973071.98742  22357733.657    22357731.310
  21299877.516   -21479512.00343 -16670269.55642  21299879.535    21299875.853
 03  3 26  1 18 30.0000000  0  8G 9G17G31G 3G14G15G23G18
  23514698.184    -7974036.95743  -6090612.21442  23514700.360    23514698.896
  22485512.010   -17846709.13543 -13891545.68242  22485513.289    22485512.772
  22732702.225    -9695619.10243  -7542669.73542  22732703.928    22732702.212
  21646223.629   -20200153.43543 -15682128.48942  21646225.480    21646223.578
  20909857.359   -22373526.80343 -17369199.13442  20909859.643    20909856.395
  20466898.775   -24465294.91444 -18599185.52542  20466900.293    20466898.022
  22368359.086   -13387331.31843  -9929556.12842  22368360.659    22368358.330
  21309027.197   -21431429.92543 -16632803.00542  21309029.234    21309025.580
 03  3 26  1 19  0.0000000  0  8G 9G17G31G 3G14G15G23G18
  23512383.412    -7986200.79243  -6100090.45942  23512385.621    23512384.042
  22499240.330   -17774566.79443 -13835330.92842  22499241.609    22499241.027
  22724028.531    -9741199.42043  -7578186.82742  22724030.274    22724028.570
  21647190.491   -20195072.32243 -15678169.18742  21647192.341    21647190.450
  20898111.109   -22435253.69044 -17417297.96942  20898113.365    20898110.120
  20472389.149   -24436442.80644 -18576703.36042  20472390.688    20472388.343
  22378994.407   -13331442.40143  -9886006.33742  22378995.949    22378993.663
  21318205.560   -21383197.40043 -16595219.21842  21318207.594    21318203.940
 03  3 26  1 19 30.0000000  0  8G 9G17G31G 3G14G15G23G18
  23510173.882    -7997811.74943  -6109137.90142  23510176.072    23510174.361
  22513025.845   -17702123.78743 -13778881.88442  22513027.146    22513026.496
  22715455.621    -9786250.00543  -7613291.14942  22715457.408    22715455.742
  21648263.834   -20189431.67243 -15673773.88742  21648265.654    21648263.801
  20886456.491   -22496499.02344 -17465021.56442  20886458.723    20886455.471
  20477955.298   -24407192.39244 -18553910.82542  20477956.854    20477954.497
  22389639.265   -13275503.45143  -9842417.55742  22389640.808    22389638.514
  21327413.716   -21334808.18043 -16557513.33142  21327415.768    21327412.093
 03  3 26  1 20  0.0000000  0  8G 9G17G31G 3G14G15G23G18
  23508071.008    -8008861.87843  -6117748.33342  23508073.191    23508071.422
  22526869.677   -17629373.84943 -13722193.67942  22526871.034    22526870.331
  22706985.126    -9830762.58143  -7647976.23542  22706986.938    22706985.357
  21649444.948   -20183224.81043 -15668937.38342  21649446.748    21649444.913
  20874895.048   -22557254.47343 -17512363.43242  20874897.294    20874894.050
  20483598.671   -24377536.30244 -18530802.17742  20483600.207    20483597.868
  22400294.798   -13219508.27943  -9798784.96442  22400296.358    22400294.079
  21336652.864   -21286256.21843 -16519680.63542  21336654.901    21336651.212
 03  3 26  1 20 30.0000000  0  8G 9G17G31G 3G14G15G23G18
  23506075.516    -8019347.44543  -6125918.84742  23506077.652    23506076.037
  22540772.314   -17556314.99743 -13665264.74342  22540773.737    22540772.959
  22698617.726    -9874733.38343  -7682239.15542  22698619.543    22698618.053
  21650734.167   -20176449.93343 -15663658.26942  21650735.965    21650734.122
  20863427.566   -22617516.35043 -17559320.69842  20863429.787    20863426.546
  20489319.766   -24347471.81744 -18507375.30442  20489321.297    20489318.950
  22410961.405   -13163455.03443  -9755107.12142  22410962.972    22410960.655
  21345923.236   -21237540.05543 -16481719.98442  21345925.257    21345921.571
 03  3 26  1 21  0.0000000  0  8G 9G17G31G 3G14G15G23G18
  23504185.912    -8029276.72843  -6133655.90042  23504188.031    23504186.397
  22554731.856   -17482957.33043 -13608102.98342  22554733.292    22554732.483
  22690351.828    -9918170.74143  -7716086.41242  22690353.676    22690352.184
  21652129.491   -20169117.49043 -15657944.69342  21652131.298    21652129.438
  20852052.470   -22677292.79043 -17605899.70142  20852054.681    20852051.416
  20495116.805   -24317008.23244 -18483637.45042  20495118.351    20495116.009
  22421636.978   -13107354.15243  -9711392.16642  22421638.570    22421636.335
  21355222.826   -21188670.40043 -16443639.73242  21355224.846    21355221.152
 03  3 26  1 21 30.0000000  0  8G 9G17G31G 3G14G15G23G18
  23502401.055    -8038656.03743  -6140964.40842  23502403.106    23502401.521
  22568746.784   -17409308.82143 -13550714.58542  22568748.177    22568747.311
  22682186.316    -9961080.82143  -7749522.80542  22682188.129    22682186.594
  21653629.449   -20161235.40243 -15651802.82142  21653631.232    21653629.384
  20840768.592   -22736589.76144 -17652105.09142  20840770.825    20840767.533
  20500988.479   -24286152.40744 -18459593.94942  20500990.032    20500987.683
  22432320.159   -13051213.63143  -9667646.32342  22432321.704    22432319.536
  21364549.988   -21139655.71243 -16405446.46642  21364552.009    21364548.327
 03  3 26  1 22  0.0000000  0  8G 9G17G31G 3G14G15G23G18
  23500723.414    -8047472.45143  -6147834.31742  23500725.304    23500723.755
  22582819.189   -17335358.16143 -13493090.73842  22582820.568    22582819.763
  22674123.618   -10003450.47243  -7782538.07242  22674125.417    22674123.840
  21655236.058   -20152792.66143 -15645224.07842  21655237.878    21655236.022
  20829578.436   -22795394.30644 -17697926.77242  20829580.683    20829577.355
  20506937.138   -24254892.10644 -18435235.27142  20506938.687    20506936.318
  22443012.991   -12995022.35643  -9623860.92542  22443014.521    22443012.383
  21373906.877   -21090484.86843 -16367131.52242  21373908.888    21373905.202
 03  3 26  1 22 30.0000000  0  8G 9G17G31G 3G14G15G23G18
  23499151.096    -8055734.87243  -6154272.51542  23499153.005    23499151.497
  22596947.083   -17261115.90243 -13435239.68842  22596948.414    22596947.669
  22666162.004   -10045288.65143  -7815139.20442  22666163.834    22666162.217
  21656947.314   -20143800.04943 -15638216.87142  21656949.134    21656947.282
  20818480.290   -22853715.27244 -17743371.62942  20818482.548    20818479.207
  20512960.887   -24223237.23344 -18410569.13642  20512962.453    20512960.029
  22453713.424   -12938791.19543  -9580044.44642  22453714.956    22453712.780
  21383291.337   -21041169.06343 -16328703.62242  21383293.355    21383289.645
 03  3 26  1 23  0.0000000  0  8G 9G17G31G 3G14G15G23G18
  23497688.091    -8063422.89243  -6160263.15542  23497690.045    23497688.490
  22611134.045   -17186563.39043 -13377146.87542  22611135.339    22611134.682
  22658305.445   -10086574.81143  -7847310.18742  22658307.284    22658305.666
  21658766.755   -20134238.82643 -15630766.59142  21658768.582    21658766.744
  20807478.109   -22911532.02744 -17788423.60242  20807480.362    20807476.990
  20519063.436   -24191168.20344 -18385580.27942  20519064.988    20519062.554
  22464425.015   -12882501.55343  -9536182.39242  22464426.533    22464424.309
  21392706.915   -20991689.90243 -16290148.42142  21392708.934    21392705.203
 03  3 26  1 23 30.0000000  0  8G 9G17G31G 3G14G15G23G18
  23496335.986    -8070527.97143  -6165799.54942  23496338.033    23496336.460
  22625381.404   -17111693.31843 -13318806.60642  22625382.728    22625382.081
  22650555.591   -10127300.39243  -7879044.36742  22650557.429    22650555.768
  21660695.713   -20124102.28443 -15622868.01042  21660697.525    21660695.669
  20796573.529   -22968835.78243 -17833075.82942  20796575.764    20796572.411
  20525246.263   -24158677.32444 -18360262.71242  20525247.784    20525245.350
  22475148.934   -12826146.71743  -9492269.54142  22475150.498    22475148.289
  21402154.805   -20942041.03543 -16251460.98742  21402156.816    21402153.100
 03  3 26  1 24  0.0000000  0  8G 9G17G31G 3G14G15G23G18
  23495092.872    -8077060.51643  -6170889.80642  23495094.900    23495093.381
  22639686.862   -17036517.81243 -13260228.35442  22639688.205    22639687.642
  22642910.480   -10167475.50243  -7910349.60942  22642912.304    22642910.623
  21662731.829   -20113402.58243 -15614530.60642  21662733.641    21662731.740
  20785764.591   -23025636.81243 -17877336.32642  20785766.831    20785763.499
  20531507.223   -24125775.72344 -18334625.10942  20531508.725    20531506.298
  22485883.063   -12769738.45443  -9448315.04942  22485884.621    22485882.402
  21411632.611   -20892234.83043 -16212650.95342  21411634.609    21411630.925
 03  3 26  1 24 30.0000000  0  8G 9G17G31G 3G14G15G23G18
  23493956.270    -8083033.11943  -6175543.76142  23493958.398    23493956.790
  22654047.702   -16961051.06943 -13201423.15042  22654049.076    22654048.565
  22635367.697   -10207112.85143  -7941235.81542  22635369.575    22635367.778
  21664872.291   -20102154.37643 -15605765.79942  21664874.113    21664872.212
  20775048.971   -23081947.62843 -17921214.83842  20775051.182    20775047.865
  20537843.775   -24092476.80044 -18308677.90242  20537845.290    20537842.861
  22496624.643   -12713291.23243  -9404330.20842  22496626.186    22496623.960
  21421137.637   -20842285.58543 -16173729.46742  21421139.616    21421135.931
 03  3 26  1 25  0.0000000  0  8G 9G17G31G 3G14G15G23G18
  23492926.896    -8088442.22143  -6179758.60842  23492929.039    23492927.354
  22668464.408   -16885290.88843 -13142389.29442  22668465.783    22668465.297
  22627927.986   -10246208.71743  -7971700.08342  22627929.866    22627928.052
  21667117.474   -20090355.86143 -15596572.17142  21667119.289    21667117.414
  20764427.344   -23137764.42043 -17964708.39442  20764429.555    20764426.249
  20544256.570   -24058777.52244 -18282418.73342  20544258.049    20544255.610
  22507373.934   -12656803.12143  -9360313.49642  22507375.507    22507373.331
  21430670.078   -20792192.11743 -16134695.59442  21430672.065    21430668.388
 03  3 26  1 25 30.0000000  0  8G 9G17G31G 3G14G15G23G18
  23492001.016    -8093307.52743  -6183549.71942  23492003.112    23492001.445
  22682933.011   -16809258.20443 -13083143.11542  22682934.343    22682933.821
  22620587.730   -10284782.29843  -8001757.37642  22620589.624    22620587.692
  21669463.315   -20078028.32243 -15586966.31942  21669465.156    21669463.280
  20753896.041   -23193106.47444 -18007832.02542  20753898.281    20753894.938
  20550741.699   -24024697.98944 -18255863.26242  20550743.173    20550740.723
  22518127.017   -12600295.10643  -9316281.28442  22518128.605    22518126.515
  21440225.989   -20741975.50643 -16095565.76942  21440227.958    21440224.281
 03  3 26  1 26  0.0000000  0  8G 9G17G31G 3G14G15G23G18
  23491189.508    -8097571.44643  -6186872.21742  23491191.633    23491190.049
  22697464.048   -16732897.19843 -13023641.09142  22697465.384    22697464.837
  22613357.770   -10322776.03243  -8031362.84142  22613359.696    22613357.716
  21671920.388   -20065116.08843 -15576904.86042  21671922.250    21671920.411
  20743466.094   -23247915.94843 -18050540.66042  20743468.324    20743464.980
  20557310.016   -23990181.35944 -18228967.19342  20557311.452    20557309.039
  22528894.565   -12543711.30043  -9272190.00342  22528896.138    22528894.107
  21449815.917   -20691580.15943 -16056296.66942  21449817.888    21449814.211
 03  3 26  1 26 30.0000000  0  8G 9G17G31G 3G14G15G23G18
  23490483.548    -8101281.28543  -6189762.97642  23490485.618    23490483.995
  22712048.240   -16656257.16243 -12963921.64142  22712049.534    22712048.956
  22606229.152   -10360237.23243  -8060553.35042  22606231.043    22606229.096
  21674479.474   -20051668.07343 -15566425.91242  21674481.285    21674479.496
  20733128.515   -23302239.94044 -18092870.99842  20733130.770    20733127.417
  20563952.303   -23955275.94844 -18201768.17242  20563953.726    20563951.311
  22539667.192   -12487100.55743  -9228077.73642  22539668.805    22539666.831
  21459430.543   -20641055.18343 -16016926.56042  21459432.515    21459428.806
 03  3 26  1 27  0.0000000  0  8G 9G17G31G 3G14G15G23G18
  23489884.434    -8104429.48643  -6192216.07742  23489886.566    23489884.808
  22726686.754   -16579331.67443 -12903979.76242  22726688.052    22726687.418
  22599203.289   -10397158.34943  -8089323.01642  22599205.171    22599203.243
  21677141.524   -20037679.01143 -15555525.37342  21677143.298    21677141.575
  20722884.785   -23356070.97944 -18134817.21542  20722887.021    20722883.648
  20570669.888   -23919974.93544 -18174260.89042  20570671.282    20570668.849
  22550446.082   -12430457.05043  -9183939.93642  22550447.693    22550445.815
  21469070.865   -20590395.12943 -15977451.19442  21469072.825    21469069.093
 03  3 26  1 27 30.0000000  0  8G 9G17G31G 3G14G15G23G18
  23489394.014    -8107006.62543  -6194224.21242  23489396.096    23489394.311
  22741381.111   -16502112.81943 -12843809.28542  22741382.415    22741381.702
  22592282.069   -10433529.52243  -8117664.15442  22592283.957    22592281.977
  21679908.036   -20023140.98943 -15544197.07342  21679909.784    21679908.135
  20712736.728   -23409399.22844 -18176371.65442  20712738.964    20712735.553
  20577464.414   -23884269.44644 -18146438.43742  20577465.831    20577463.359
  22561232.756   -12373772.60043  -9139770.22842  22561234.358    22561232.592
  21478738.376   -20539592.01043 -15937864.35442  21478740.338    21478736.609
 03  3 26  1 28  0.0000000  0  8G 9G17G31G 3G14G15G23G18
  23489013.310    -8109007.23643  -6195783.09842  23489015.345    23489013.595
  22756132.125   -16424596.33843 -12783406.91842  22756133.349    22756132.620
  22585466.560   -10469345.26343  -8145572.49342  22585468.426    22585466.422
  21682779.718   -20008050.26943 -15532438.10242  21682781.442    21682779.872
  20702685.455   -23462219.03544 -18217529.90142  20702687.675    20702684.244
  20584336.826   -23848154.61744 -18118297.01442  20584338.259    20584335.800
  22572028.013   -12317043.12743  -9095565.44242  22572029.641    22572027.877
  21488433.809   -20488642.23443 -15898163.23442  21488435.777    21488432.044
 03  3 26  1 28 30.0000000  0  8G 9G17G31G 3G14G15G23G18
  23488746.500    -8110409.12443  -6196875.43242  23488748.616    23488746.861
  22770943.590   -16346761.78443 -12722756.67842  22770944.762    22770944.055
  22578760.924   -10504583.25043  -8173030.63642  22578762.796    22578760.806
  21685760.443   -19992386.52443 -15520232.61542  21685762.178    21685760.607
  20692735.228   -23514507.89744 -18258274.42742  20692737.429    20692733.943
  20591291.231   -23811609.00044 -18089819.91342  20591292.647    20591290.200
  22582835.832   -12260247.70343  -9051309.26942  22582837.466    22582835.707
  21498161.029   -20437525.32943 -15858331.88842  21498162.995    21498159.252
 03  3 26  1 29  0.0000000  0  8G 9G17G31G 3G14G15G23G18
  23488586.891    -8111247.07443  -6197528.32442  23488589.087    23488587.435
  22785808.644   -16268645.66243 -12661887.03342  22785809.796    22785809.191
  22572158.670   -10539278.10943  -8200065.56642  22572160.548    22572158.568
  21688843.254   -19976186.39543 -15507609.16242  21688845.007    21688843.394
  20682879.399   -23566300.46544 -18298632.23342  20682881.621    20682878.115
  20598320.882   -23774667.92644 -18061034.66742  20598322.297    20598319.869
  22593649.315   -12203422.62443  -9007029.98542  22593650.927    22593649.109
  21507913.172   -20386277.49243 -15818398.51542  21507915.122    21507911.382
 03  3 26  1 29 30.0000000  0  8G 9G17G31G 3G14G15G23G18
  23488537.889    -8111503.93343  -6197728.42842  23488540.076    23488538.617
  22800730.410   -16190231.60943 -12600785.25542  22800731.465    22800730.936
  22565663.124   -10573412.41743  -8226663.70942  22565664.951    22565662.975
  21692031.078   -19959434.50943 -15494555.76742  21692032.845    21692031.148
  20673121.303   -23617579.25944 -18338589.69242  20673123.526    20673120.061
  20605428.931   -23737314.78344 -18031928.33142  20605430.339    20605427.965
  22604471.495   -12146551.92343  -8962715.15942  22604473.086    22604471.243
  21517693.115   -20334883.42443 -15778351.19542  21517695.090    21517691.370
 03  3 26  1 30  0.0000000  0  8G 9G17G31G 3G14G15G23G18
  23488597.435    -8111190.69543  -6197484.28942  23488599.569    23488598.315
  22815706.485   -16111532.07243 -12539461.00642  22815707.552    22815706.963
  22559272.190   -10606996.97143  -8252833.46742  22559273.996    22559271.994
  21695321.473   -19942143.62743 -15481082.37742  21695323.274    21695321.482
  20663459.002   -23668354.70343 -18378154.93142  20663461.204    20663457.783
  20612613.202   -23699561.20244 -18002509.96142  20612614.599    20612612.228
  22615299.954   -12089647.88143  -8918374.34342  22615301.557    22615299.676
  21527498.568   -20283355.37643 -15738199.47842  21527500.523    21527496.879
 03  3 26  1 30 30.0000000  0  8G 9G17G31G 3G14G15G23G18
  23488766.806    -8110300.34243  -6196790.44442  23488768.910    23488767.842
  22830737.894   -16032541.76943 -12477910.20742  22830738.946    22830738.404
  22552987.269   -10640024.66743  -8278569.32242  22552989.079    22552986.994
  21698715.403   -19924308.46543 -15467184.87642  21698717.234    21698715.423
  20653893.837   -23718619.75544 -18417322.46342  20653896.040    20653892.654
  20619874.929   -23661400.61944 -17972774.45142  20619876.324    20619873.954
  22626135.859   -12032704.74743  -8874003.07742  22626137.434    22626135.548
  21537330.478   -20231688.29743 -15697939.41842  21537332.425    21537328.851
 03  3 26  1 31  0.0000000  0  8G 9G17G31G 3G14G15G23G18
  23489043.851    -8108843.72843  -6195655.36042  23489046.031    23489045.031
  22845822.336   -15953272.74343 -12416142.21042  22845823.498    22845822.878
  22546806.245   -10672506.39743  -8303879.74542  22546808.036    22546805.869
  21702210.398   -19905941.94343 -15452873.31642  21702212.266    21702210.491
  20644423.755   -23768385.20044 -18456100.69342  20644425.965    20644422.603
  20627211.866   -23622844.67844 -17942730.86242  20627213.272    20627210.903
  22636976.873   -11975734.92543  -8829611.02142  22636978.430    22636976.504
  21547186.527   -20179894.57643 -15657580.67942  21547188.467    21547184.894
 03  3 26  1 31 30.0000000  0  8G 9G17G31G 3G14G15G23G18
  23489434.589    -8106790.25743  -6194055.20042  23489436.678    23489435.730
  22860965.468   -15873695.45443 -12354134.02142  22860966.604    22860966.049
  22540734.946   -10704411.18643  -8328740.61142  22540736.761    22540734.570
  21705812.089   -19887015.08243 -15438125.13942  21705813.908    21705812.202
  20635054.647   -23817620.03844 -18494465.46142  20635056.853    20635053.503
  20634629.834   -23583863.05444 -17912355.57342  20634631.247    20634628.899
  22647828.664   -11918708.70943  -8785175.01842  22647830.176    22647828.226
  21557072.230   -20127944.96443 -15617100.46342  21557074.210    21557070.580
 03  3 26  1 32  0.0000000  0  8G 9G17G31G 3G14G15G23G18
  23489935.201    -8104159.56043  -6192005.24742  23489937.308    23489936.244
  22876163.154   -15793831.27143 -12291902.26442  22876164.311    22876163.782
  22534769.759   -10735758.35243  -8353166.96242  22534771.561    22534769.427
  21709516.372   -19867549.14443 -15422956.89642  21709518.177    21709516.492
  20625782.892   -23866343.34744 -18532431.63242  20625785.099    20625781.737
  20642124.956   -23544476.01844 -17881664.38042  20642126.388    20642124.029
  22658687.237   -11861646.65143  -8740711.09042  22658688.769    22658686.806
  21566983.616   -20075860.31543 -15576515.02542  21566985.648    21566981.919
 03  3 26  1 32 30.0000000  0  8G 9G17G31G 3G14G15G23G18
  23490549.799    -8100930.39043  -6189488.96942  23490551.808    23490550.611
  22891419.218   -15713660.40243 -12229431.52842  22891420.371    22891419.873
  22528914.790   -10766526.57243  -8377142.18942  22528916.568    22528914.449
  21713326.934   -19847524.68943 -15407353.44642  21713328.737    21713327.034
  20616612.503   -23914533.79444 -18569982.58442  20616614.768    20616611.362
  20649701.187   -23504662.77844 -17850641.07342  20649702.624    20649700.253
  22669556.406   -11804528.90643  -8696203.76142  22669557.954    22669555.954
  21576924.426   -20023621.22843 -15535809.23842  21576926.448    21576922.625
 03  3 26  1 33  0.0000000  0  8G 9G17G31G 3G14G15G23G18
  23491270.903    -8097140.99243  -6186536.15242  23491272.918    23491271.590
  22906726.179   -15633221.86543 -12166752.21442  22906727.327    22906726.954
  22523162.745   -10796754.04343  -8400696.06242  22523164.475    22523162.346
  21717236.168   -19826981.66543 -15391345.91142  21717237.979    21717236.266
  20607536.303   -23962229.33844 -18607147.89942  20607538.603    20607535.166
  20657351.160   -23464461.88344 -17819315.69742  20657352.605    20657350.244
  22680428.733   -11747394.78243  -8651683.67742  22680430.264    22680428.204
  21586887.027   -19971267.45743 -15495014.08842  21586889.075    21586885.155
 03  3 26  1 33 30.0000000  0  8G 9G17G31G 3G14G15G23G18
  23492104.952    -8092758.01843  -6183120.81242  23492106.946    23492105.565
  22922090.121   -15552483.86443 -12103839.55942  22922091.217    22922091.009
  22517519.936   -10826407.13543  -8423802.36442  22517521.661    22517519.552
  21721250.021   -19805888.57943 -15374909.75742  21721251.864    21721250.158
  20598560.709   -24009396.26844 -18643901.30942  20598562.985    20598559.547
  20665081.125   -23423840.65644 -17787662.79542  20665082.591    20665080.230
  22691310.293   -11690211.90943  -8607125.61142  22691311.856    22691309.763
  21596877.640   -19918766.65643 -15454104.37642  21596879.688    21596875.692
 03  3 26  1 34  0.0000000  0  8G 9G17G31G 3G14G15G23G18
  23493049.197    -8087795.79943  -6179254.10542  23493051.246    23493049.729
  22937508.143   -15471461.85443 -12040705.58542  22937509.197    22937509.082
  22511983.747   -10855499.84143  -8446472.01442  22511985.428    22511983.353
  21725365.544   -19784261.41143 -15358057.43542  21725367.385    21725365.676
  20589683.029   -24056048.54143 -18680253.68542  20589685.302    20589681.851
  20672888.235   -23382813.92244 -17755693.91242  20672889.696    20672887.348
  22702198.236   -11632995.58843  -8562541.46742  22702199.835    22702197.696
  21606893.251   -19866134.27943 -15413092.12742  21606895.330    21606891.331
 03  3 26  1 34 30.0000000  0  8G 9G17G31G 3G14G15G23G18
  23494104.336    -8082250.47843  -6174933.04542  23494106.414    23494104.908
  22952980.602   -15390153.10443 -11977348.16642  22952981.714    22952981.697
  22506555.015   -10884028.10143  -8468701.83342  22506556.658    22506554.602
  21729583.095   -19762098.08943 -15340787.32342  21729584.959    21729583.218
  20580904.115   -24102181.87344 -18716201.69442  20580906.367    20580902.902
  20680773.192   -23341378.02744 -17723406.19842  20680774.647    20680772.305
  22713093.081   -11575742.78843  -8517928.89742  22713094.708    22713092.521
  21616934.352   -19813367.97343 -15371975.52242  21616936.453    21616932.465
 03  3 26  1 35  0.0000000  0  8G 9G17G31G 3G14G15G23G18
  23495269.044    -8076129.53843  -6170163.45842  23495271.080    23495269.600
  22968506.144   -15308566.06943 -11913773.90942  22968507.255    22968507.264
  22501232.291   -10911999.09243  -8490497.40242  22501233.940    22501231.881
  21733900.921   -19739407.96143 -15323106.70942  21733902.823    21733900.996
  20572222.584   -24147803.36944 -18751750.86942  20572224.848    20572221.359
  20688734.514   -23299540.98844 -17690805.91042  20688735.941    20688733.603
  22723993.282   -11518461.81743  -8473294.37942  22723994.920    22723992.695
  21626999.267   -19760476.32943 -15330761.24842  21627001.378    21626997.439
 03  3 26  1 35 30.0000000  0  8G 9G17G31G 3G14G15G23G18
  23496545.507    -8069421.34943  -6164936.25542  23496547.559    23496545.982
  22984086.584   -15226690.82243 -11849975.06242  22984087.651    22984087.711
  22496017.869   -10939401.12143  -8511849.63942  22496019.508    22496017.488
  21738320.903   -19716180.83243 -15305007.65542  21738322.809    21738320.964
  20563640.691   -24192901.31544 -18786892.08242  20563642.973    20563639.452
  20696774.322   -23257291.55844 -17657884.27542  20696775.725    20696773.381
  22734900.874   -11461142.12143  -8428629.68142  22734902.531    22734900.297
  21637090.052   -19707448.93743 -15289441.19242  21637092.128    21637088.236
 03  3 26  1 36  0.0000000  0  8G 9G17G31G 3G14G15G23G18
  23497932.147    -8062133.94243  -6159257.72742  23497934.182    23497932.601
  22999720.172   -15144536.35643 -11785958.65942  22999721.113    22999721.229
  22490910.207   -10966242.07443  -8532764.65842  22490911.880    22490909.876
  21742841.147   -19692426.73743 -15286497.97542  21742843.029    21742841.249
  20555156.993   -24237483.23644 -18821631.19742  20555159.269    20555155.751
  20704890.971   -23214638.16744 -17624647.86342  20704892.389    20704890.040
  22745814.108   -11403792.64143  -8383941.77442  22745815.758    22745813.542
  21647204.827   -19654295.36443 -15248022.81442  21647206.902    21647203.051
 03  3 26  1 36 30.0000000  0  8G 9G17G31G 3G14G15G23G18
  23499431.541    -8054254.22143  -6153117.64442  23499433.582    23499432.104
  23015409.129   -15062090.76843 -11721715.39942  23015410.023    23015410.187
  22485911.866   -10992508.60543  -8553232.08542  22485913.568    22485911.568
  21747463.836   -19668134.41643 -15267568.91142  21747465.699    21747463.984
  20546774.072   -24281535.70644 -18855957.75642  20546776.344    20546772.803
  20713086.916   -23171568.13444 -17591086.80442  20713088.326    20713085.975
  22756735.369   -11346401.01543  -8339221.02642  22756737.035    22756734.818
  21657345.937   -19601003.38843 -15206496.59242  21657348.035    21657344.162
 03  3 26  1 37  0.0000000  0  8G 9G17G31G 3G14G15G23G18
  23501041.077    -8045795.42543  -6146526.32442  23501043.198    23501041.863
  23031150.600   -14979369.04443 -11657256.98342  23031151.542    23031151.684
  22481020.343   -11018213.77443  -8573262.08042  22481022.056    22481020.037
  21752186.124   -19643318.79943 -15248232.07442  21752187.980    21752186.234
  20538489.435   -24325071.67244 -18889881.84242  20538491.699    20538488.132
  20721359.538   -23128095.03144 -17557211.65842  20721360.981    20721358.639
  22767662.002   -11288981.45243  -8294478.50742  22767663.608    22767661.415
  21667510.644   -19547587.54943 -15164873.85642  21667512.726    21667508.840
 03  3 26  1 37 30.0000000  0  8G 9G17G31G 3G14G15G23G18
  23502762.054    -8036750.99343  -6139478.67542  23502764.269    23502762.972
  23046945.805   -14896365.09043 -11592578.64942  23046946.730    23046946.877
  22476236.913   -11043350.71243  -8592849.30342  22476238.639    22476236.632
  21757008.939   -19617974.95943 -15228483.63942  21757010.747    21757008.993
  20530304.423   -24368084.10044 -18923397.97942  20530306.683    20530303.098
  20729710.111   -23084212.61444 -17523017.56942  20729711.540    20729709.206
  22778595.029   -11231527.95543  -8249709.54142  22778596.623    22778594.420
  21677699.966   -19494042.20443 -15123150.20642  21677702.077    21677698.149
 03  3 26  1 38  0.0000000  0  8G 9G17G31G 3G14G15G23G18
  23504591.652    -8027136.18943  -6131986.57642  23504593.855    23504592.548
  23062791.446   -14813095.49343 -11527693.30342  23062792.412    23062792.701
  22471558.759   -11067934.46943  -8612005.47342  22471560.521    22471558.469
  21761929.044   -19592119.66543 -15208336.66742  21761930.864    21761929.113
  20522216.191   -24410587.89544 -18956517.77742  20522218.451    20522214.857
  20738135.557   -23039936.61044 -17488516.78842  20738136.994    20738134.662
  22789531.444   -11174056.51543  -8204926.60342  22789533.062    22789530.817
  21687910.778   -19440383.91143 -15081338.54942  21687912.907    21687908.950
 03  3 26  1 38 30.0000000  0  8G 9G17G31G 3G14G15G23G18
  23506536.128    -8016917.73643  -6124024.10342  23506538.374    23506537.054
  23078693.894   -14729527.95043 -11462575.79742  23078694.845    23078695.103
  22466992.263   -11091931.59343  -8630704.53242  22466994.043    22466991.985
  21766952.498   -19565721.42243 -15187766.61642  21766954.315    21766952.532
  20514231.115   -24452549.62644 -18989215.18842  20514233.375    20514229.767
  20746642.138   -22995234.26044 -17453683.79142  20746643.589    20746641.243
  22800477.513   -11116534.56343  -8160104.30142  22800479.143    22800476.837
  21698149.253   -19386580.25243 -15039413.61842  21698151.385    21698147.384
 03  3 26  1 39  0.0000000  0  8G 9G17G31G 3G14G15G23G18
  23508594.351    -8006101.37943  -6115595.73742  23508596.648    23508595.167
  23094651.672   -14645669.49143 -11397231.59842  23094652.745    23094652.889
  22462536.343   -11115347.63043  -8648950.79442  22462538.120    22462536.057
  21772077.814   -19538787.87043 -15166779.44842  21772079.636    21772077.840
  20506348.140   -24493974.70344 -19021494.42642  20506350.406    20506346.787
  20755228.705   -22950111.57744 -17418523.26242  20755230.170    20755227.795
  22811431.953   -11058968.64643  -8115247.73942  22811433.586    22811431.267
  21708414.057   -19332638.15243 -14997380.81642  21708416.191    21708412.165
 03  3 26  1 39 30.0000000  0  8G 9G17G31G 3G14G15G23G18
  23510764.740    -7994695.48243  -6106707.98842  23510766.970    23510765.490
  23110663.102   -14561529.37543 -11331667.92742  23110664.128    23110664.229
  22458189.503   -11138190.47143  -8666750.40842  22458191.289    22458189.235
  21777303.124   -19511328.80643 -15145382.78942  21777304.966    21777303.138
  20498565.917   -24534870.55744 -19053361.28742  20498568.169    20498564.513
  20763893.739   -22904576.67044 -17383041.52042  20763895.188    20763892.812
  22822393.119   -11001367.37643  -8070363.63242  22822394.747    22822392.446
  21718703.534   -19278566.34043 -14955246.94742  21718705.657    21718701.627
 03  3 26  1 40  0.0000000  0  8G 9G17G31G 3G14G15G23G18
  23513048.436    -7982694.79743  -6097356.76242  23513050.557    23513049.166
  23126728.912   -14477103.33243 -11265881.46942  23126729.977    23126730.011
  22453952.727   -11160454.74743  -8684099.17742  22453954.530    22453952.457
  21782629.061   -19483340.83943 -15123574.00642  21782630.936    21782629.141
  20490885.417   -24575231.80344 -19084811.56442  20490887.661    20490883.969
  20772638.004   -22858625.09544 -17347235.10442  20772639.513    20772637.106
  22833361.862   -10943726.29443  -8025448.50442  22833363.499    22833361.207
  21729018.461   -19224360.81943 -14913008.88742  21729020.572    21729016.573
 03  3 26  1 40 30.0000000  0  8G 9G17G31G 3G14G15G23G18
  23515437.978    -7970137.68043  -6087571.94942  23515440.102    23515438.719
  23142841.536   -14392430.84843 -11199902.95942  23142842.595    23142842.631
  22449818.769   -11182178.83643  -8701027.03242  22449820.541    22449818.476
  21788048.023   -19454864.00343 -15101384.28242  21788049.885    21788048.166
  20483299.384   -24615096.52144 -19115874.94042  20483301.656    20483297.930
  20781454.251   -22812295.45844 -17311134.09242  20781455.748    20781453.375
  22844330.734   -10886084.41443  -7980532.75042  22844332.443    22844330.062
  21739351.373   -19170060.86743 -14870697.24042  21739353.467    21739349.500
 03  3 26  1 41  0.0000000  0  8G 9G17G31G 3G14G15G23G18
  23517943.180    -7956973.02043  -6077313.73942  23517945.226    23517943.808
  23159010.639   -14307461.95443 -11133693.47842  23159011.660    23159011.721
  22445797.438   -11203311.10643  -8717493.72942  22445799.235    22445797.136
  21793569.436   -19425848.75943 -15078775.02742  21793571.278    21793569.638
  20475817.644   -24654413.11844 -19146511.20742  20475819.921    20475816.165
  20790352.130   -22765536.88544 -17274698.84642  20790353.585    20790351.244
  22855309.477   -10828390.98243  -7935576.82942  22855311.156    22855308.720
  21749711.888   -19115616.22043 -14828272.84642  21749713.935    21749709.988
 03  3 26  1 41 30.0000000  0  8G 9G17G31G 3G14G15G23G18
  23520558.936    -7943227.19943  -6066602.66742  23520561.044    23520559.481
  23175231.022   -14222223.77243 -11067274.16542  23175232.004    23175232.016
  22441883.746   -11223877.65043  -8733519.60042  22441885.546    22441883.489
  21799187.956   -19396323.25243 -15055768.16142  21799189.777    21799188.183
  20468435.304   -24693207.48844 -19176740.54142  20468437.568    20468433.788
  20799326.550   -22718375.82144 -17237949.97042  20799328.006    20799325.706
  22866292.880   -10770672.75843  -7890601.59842  22866294.578    22866292.084
  21760094.711   -19061054.05743 -14785756.87942  21760096.795    21760092.862
 03  3 26  1 42  0.0000000  0  8G 9G17G31G 3G14G15G23G18
  23523286.779    -7928893.33643  -6055433.37842  23523288.785    23523286.984
  23191503.676   -14136710.48543 -11000640.48842  23191504.706    23191504.722
  22438079.049   -11243871.39943  -8749099.13842  22438080.846    22438078.822
  21804904.621   -19366282.10343 -15032359.50642  21804906.417    21804904.839
  20461153.709   -24731472.36944 -19206557.29242  20461155.969    20461152.166
  20808378.873   -22670805.60344 -17200882.27442  20808380.303    20808378.001
  22877282.224   -10712923.37943  -7845602.09042  22877283.876    22877281.458
  21770501.084   -19006368.20543 -14743144.52842  21770503.159    21770499.276
 03  3 26  1 42 30.0000000  0  8G 9G17G31G 3G14G15G23G18
  23526124.462    -7913981.50043  -6043813.73842  23526126.501    23526124.485
  23207826.557   -14050933.51243 -10933801.33242  23207827.485    23207827.656
  22434381.469   -11263302.18643  -8764240.00742  22434383.297    22434381.278
  21810717.154   -19335737.09843 -15008558.23342  21810718.961    21810717.357
  20453971.064   -24769217.24744 -19235968.84342  20453973.334    20453969.506
  20817507.071   -22622836.50044 -17163503.75742  20817508.517    20817506.192
  22888275.510   -10655153.27943  -7800586.43342  22888277.137    22888274.799
  21780928.944   -18951569.51243 -14700444.24342  21780931.011    21780927.112
 03  3 26  1 43  0.0000000  0  8G 9G17G31G 3G14G15G23G18
  23529072.309    -7898490.93143  -6031743.14842  23529074.261    23529072.158
  23224199.712   -13964892.42243 -10866756.38442  23224200.614    23224200.784
  22430791.252   -11282169.11743  -8778941.49942  22430793.064    22430791.030
  21816625.369   -19304689.49243 -14984365.32842  21816627.163    21816625.493
  20446887.527   -24806441.31444 -19264974.56842  20446889.815    20446885.974
  20826711.313   -22574468.10644 -17125814.10642  20826712.758    20826710.390
  22899272.788   -10597362.21843  -7755554.45042  22899274.392    22899272.141
  21791378.295   -18896658.04143 -14657656.08342  21791380.343    21791376.376
 03  3 26  1 43 30.0000000  0  8G 9G17G31G 3G14G15G23G18
  23532135.527    -7882393.95243  -6019200.01942  23532137.474    23532135.258
  23240628.108   -13878560.75343 -10799485.01342  23240628.961    23240629.229
  22427313.624   -11300444.15643  -8793181.77342  22427315.442    22427313.374
  21822634.178   -19273113.01143 -14959760.31742  21822635.982    21822634.263
  20439908.449   -24843116.39544 -19293552.51642  20439910.727    20439906.903
  20835996.718   -22525673.11244 -17087792.03842  20835998.173    20835995.745
  22910279.236   -10539522.77243  -7710484.75142  22910280.851    22910278.642
  21801854.200   -18841606.94443 -14614759.12142  21801856.236    21801852.247
 03  3 26  1 44  0.0000000  0  8G 9G17G31G 3G14G15G23G18
  23535316.196    -7865679.76843  -6006175.94342  23535318.141    23535315.902
  23257113.636   -13791928.88143 -10731979.72342  23257114.443    23257114.713
  22423950.687   -11318116.46143  -8806952.38742  22423952.562    22423950.442
  21828745.348   -19240998.47143 -14934736.03542  21828747.151    21828745.450
  20433035.981   -24879231.17944 -19321693.86642  20433038.271    20433034.449
  20845365.323   -22476440.77144 -17049429.17842  20845366.786    20845364.318
  22921296.901   -10481624.63443  -7665369.33042  22921298.465    22921296.331
  21812358.557   -18786406.00943 -14571745.40142  21812360.604    21812356.663
 03  3 26  1 44 30.0000000  0  8G 9G17G31G 3G14G15G23G18
  23538606.301    -7848390.37343  -5992703.66142  23538608.235    23538605.997
  23273648.226   -13705039.47043 -10664273.75542  23273649.014    23273649.303
  22420694.513   -11335227.46243  -8820285.62542  22420696.400    22420694.255
  21834950.630   -19208389.48543 -14909326.47942  21834952.430    21834950.760
  20426262.285   -24914827.03544 -19349430.86042  20426264.570    20426260.745
  20854809.162   -22426813.00244 -17010758.19942  20854810.629    20854808.156
  22932317.647   -10423709.80643  -7620240.89842  22932319.215    22932317.189
  21822883.369   -18731097.49043 -14528647.84542  21822885.435    21822881.547
 03  3 26  1 45  0.0000000  0  8G 9G17G31G 3G14G15G23G18
  23542003.341    -7830538.98243  -5978793.45042  23542005.330    23542003.054
  23290229.203   -13617906.46143 -10596377.97142  23290229.947    23290230.262
  22417542.674   -11351790.26843  -8833191.69442  22417544.533    22417542.356
  21841247.171   -19175301.08043 -14883543.34142  21841248.979    21841247.298
  20419584.886   -24949916.90544 -19376773.57942  20419587.165    20419583.317
  20864325.725   -22376803.20444 -16971789.53642  20864327.196    20864324.717
  22943339.036   -10365791.76743  -7575109.96942  22943340.596    22943338.670
  21833425.988   -18675695.37743 -14485477.36042  21833428.034    21833424.254
 03  3 26  1 45 30.0000000  0  8G 9G17G31G 3G14G15G23G18
  23545510.855    -7812107.00543  -5964430.81942  23545512.886    23545510.586
  23306859.786   -13530512.53743 -10528278.86742  23306860.557    23306860.785
  22414498.738   -11367785.92543  -8845655.83542  22414500.596    22414498.402
  21847638.263   -19141715.99043 -14857373.18242  21847640.059    21847638.353
  20413007.440   -24984481.70344 -19403707.15242  20413009.675    20413005.813
  20873918.492   -22326392.92344 -16932508.80842  20873919.974    20873917.504
  22954364.556   -10307852.05443  -7529962.14642  22954366.141    22954364.250
  21843989.903   -18620181.44343 -14442219.73642  21843991.958    21843988.239
 03  3 26  1 46  0.0000000  0  8G 9G17G31G 3G14G15G23G18
  23549131.093    -7793082.08643  -5949606.17742  23549133.222    23549130.854
  23323542.201   -13442845.51543 -10459966.97242  23323542.995    23323543.288
  22411565.142   -11383201.78743  -8857668.18742  22411566.965    22411564.832
  21854125.905   -19107623.48543 -14830807.62642  21854127.715    21854125.982
  20406532.326   -25018508.40843 -19430221.43142  20406534.577    20406530.697
  20883589.806   -22275569.91944 -16892906.47842  20883591.281    20883588.855
  22965396.521   -10249878.47643  -7484787.93042  22965398.110    22965396.252
  21854577.397   -18564544.01643 -14398865.88742  21854579.386    21854575.688
 03  3 26  1 46 30.0000000  0  8G 9G17G31G 3G14G15G23G18
  23552868.970    -7773438.67643  -5934299.58542  23552871.170    23552868.873
  23340281.261   -13354881.14643 -10391423.37842  23340282.200    23340282.287
  22408746.758   -11398011.98543  -8869208.60242  22408748.505    22408746.574
  21860714.638   -19072999.67543 -14803828.06642  21860716.483    21860714.737
  20400164.594   -25051970.98644 -19456296.13542  20400166.837    20400162.944
  20893344.511   -22224308.48344 -16852962.51342  20893345.976    20893343.630
  22976439.804   -10191845.47543  -7439567.41942  22976441.407    22976439.525
  21865193.148   -18508757.89543 -14355396.18242  21865195.153    21865191.411
 03  3 26  1 47  0.0000000  0  8G 9G17G31G 3G14G15G23G18
  23556717.895    -7753211.65643  -5918538.23442  23556720.141    23556718.033
  23357070.276   -13266654.64443 -10322675.53442  23357071.241    23357071.307
  22406037.091   -11412251.20843  -8880304.08342  22406038.754    22406036.967
  21867397.506   -19037881.10343 -14776462.97342  21867399.400    21867397.660
  20393897.603   -25084903.97544 -19481958.16942  20393899.868    20393895.986
  20903175.922   -22172643.94644 -16812704.43842  20903177.410    20903175.052
  22987487.688   -10133788.17443  -7394327.96042  22987489.353    22987487.428
  21875830.434   -18452858.49143 -14311838.19942  21875832.480    21875828.742
 03  3 26  1 47 30.0000000  0  8G 9G17G31G 3G14G15G23G18
  23560675.360    -7732414.59243  -5902332.68642  23560677.571    23560675.642
  23373906.324   -13178180.66643 -10253734.84142  23373907.449    23373907.387
  22403433.561   -11425932.77743  -8890965.04642  22403435.200    22403433.443
  21874171.678   -19002282.86843 -14748724.11542  21874173.547    21874171.824
  20387728.940   -25117320.40744 -19507217.69242  20387731.197    20387727.340
  20913081.505   -22120589.91744 -16772142.87142  20913082.962    20913080.617
  22998537.597   -10075720.29243  -7349080.25742  22998539.290    22998537.374
  21886486.650   -18396859.60443 -14268202.69242  21886488.710    21886485.012
 03  3 26  1 48  0.0000000  0  8G 9G17G31G 3G14G15G23G18
  23564744.659    -7711029.83243  -5885669.19942  23564746.892    23564744.977
  23390792.677   -13089442.29443 -10184588.11542  23390793.828    23390793.772
  22400939.583   -11439038.82043  -8901177.54142  22400941.212    22400939.435
  21881040.118   -18966188.97943 -14720599.03642  21881041.999    21881040.286
  20381661.982   -25149202.42344 -19532060.79042  20381664.220    20381660.380
  20923064.508   -22068128.91344 -16731264.18042  20923065.992    20923063.618
  23009592.891   -10017624.32743  -7303810.67442  23009594.583    23009592.621
  21897165.015   -18340744.32743 -14224476.49942  21897167.106    21897163.417
 03  3 26  1 48 30.0000000  0  8G 9G17G31G 3G14G15G23G18
  23568928.674    -7689042.40343  -5868536.10342  23568930.815    23568928.934
  23407731.843   -13000425.95343 -10115224.82142  23407733.112    23407733.076
  22398558.033   -11451554.08443  -8910929.68642  22398559.694    22398557.831
  21888005.407   -18929586.06843 -14692077.31342  21888007.262    21888005.568
  20375699.705   -25180534.36843 -19556475.25642  20375701.928    20375698.073
  20933127.821   -22015245.81744 -16690056.57942  20933129.319    20933126.956
  23020656.381    -9959485.15343  -7258507.41242  23020658.085    23020656.092
  21907868.363   -18284497.86443 -14180648.09042  21907870.467    21907866.756
 03  3 26  1 49  0.0000000  0  8G 9G17G31G 3G14G15G23G18
  23573223.984    -7666470.17743  -5850947.32442  23573226.110    23573224.135
  23424720.561   -12911149.78743 -10045659.02742  23424721.753    23424721.873
  22396285.660   -11463495.90643  -8920235.00542  22396287.326    22396285.364
  21895063.926   -18892493.26843 -14663173.86342  21895065.772    21895064.088
  20369838.828   -25211333.31444 -19580474.39842  20369841.061    20369837.204
  20943268.074   -21961958.38844 -16648533.91242  20943269.579    20943267.246
  23031724.773    -9901320.44043  -7213184.25542  23031726.465    23031724.347
  21918593.269   -18228138.16943 -14136731.44242  21918595.374    21918591.606
 03  3 26  1 49 30.0000000  0  8G 9G17G31G 3G14G15G23G18
  23577630.219    -7643315.29843  -5832904.52642  23577632.346    23577630.309
  23441758.113   -12821616.74843  -9975893.08942  23441759.360    23441759.454
  22394121.982   -11474866.13743  -8929094.92442  22394123.733    22394121.712
  21902215.011   -18854913.96443 -14633891.31342  21902216.854    21902215.159
  20364079.001   -25241601.12044 -19604059.66442  20364081.257    20364077.410
  20953484.890   -21908268.79844 -16606697.87342  20953486.364    20953484.014
  23042797.686    -9843132.13043  -7167842.71742  23042799.356    23042797.152
  21929339.241   -18171667.63243 -14092728.42642  21929341.340    21929337.557
 03  3 26  1 50  0.0000000  0  8G 9G17G31G 3G14G15G23G18
  23582147.347    -7619577.50843  -5814407.51142  23582149.505    23582147.544
  23458844.496   -12731826.85743  -9905926.98942  23458845.749    23458845.979
  22392067.086   -11485664.43343  -8937509.18142  22392068.878    22392066.892
  21909458.354   -18816849.97343 -14604231.08242  21909460.181    21909458.487
  20358420.384   -25271337.06143 -19627230.48942  20358422.640    20358418.809
  20963778.220   -21854176.98144 -16564548.41242  20963779.705    20963777.344
  23053875.050    -9784920.08543  -7122482.67342  23053876.746    23053874.526
  21940106.305   -18115086.44043 -14048639.19442  21940108.375    21940104.546
 03  3 26  1 50 30.0000000  0  8G 9G17G31G 3G14G15G23G18
  23586777.875    -7595243.56743  -5795445.96142  23586780.050    23586778.121
  23475982.114   -12641768.20043  -9835751.46242  23475983.470    23475983.659
  22390123.535   -11495877.41843  -8945467.34342  22390125.335    22390123.495
  21916796.146   -18778289.62443 -14574184.08142  21916798.013    21916796.311
  20352865.586   -25300527.45043 -19649976.20842  20352867.837    20352863.996
  20974150.632   -21799669.67144 -16522075.19042  20974152.114    20974149.711
  23064959.502    -9726671.07043  -7077093.83042  23064961.203    23064958.941
  21950896.825   -18058381.81343 -14004453.77542  21950898.884    21950895.028
 03  3 26  1 51  0.0000000  0  8G 9G17G31G 3G14G15G23G18
  23591519.438    -7570326.24443  -5776029.82842  23591521.553    23591519.695
  23493168.420   -12551453.53843  -9765376.45542  23493169.877    23493170.160
  22388289.074   -11505517.40843  -8952979.03242  22388290.850    22388289.091
  21924225.695   -18739247.28043 -14543761.49542  21924227.551    21924225.855
  20347412.302   -25329184.47244 -19672306.31742  20347414.551    20347410.680
  20984599.701   -21744759.59444 -16479288.12542  20984601.176    20984598.738
  23076048.622    -9668397.49643  -7031685.85442  23076050.269    23076048.038
  21961708.409   -18001566.44043 -13960182.05942  21961710.478    21961706.598
 03  3 26  1 51 30.0000000  0  8G 9G17G31G 3G14G15G23G18
  23596371.257    -7544829.26443  -5756162.01442  23596373.418    23596371.450
  23510402.645   -12460887.62243  -9694805.65142  23510404.050    23510404.312
  22386563.027   -11514587.89743  -8960046.93942  22386564.742    22386563.091
  21931745.974   -18699728.19843 -14512967.43142  21931747.826    21931746.139
  20342059.927   -25357311.29944 -19694223.28542  20342062.168    20342058.265
  20995124.692   -21689450.37744 -16436190.04042  20995126.198    20995123.715
  23087141.703    -9610102.96843  -6986261.55242  23087143.351    23087141.134
  21972540.377   -17944644.16543 -13915827.04442  21972542.430    21972538.572
 03  3 26  1 52  0.0000000  0  8G 9G17G31G 3G14G15G23G18
  23601334.011    -7518748.89443  -5735839.61242  23601336.235    23601334.438
  23527685.226   -12370067.30443  -9624036.62242  23527686.650    23527686.905
  22384946.123   -11523084.82943  -8966667.93242  22384947.763    22384946.229
  21939357.391   -18659729.95343 -14481799.98742  21939359.265    21939357.598
  20336809.270   -25384903.65443 -19715723.77942  20336811.506    20336807.565
  21005726.389   -21633738.14044 -16392777.91142  21005727.923    21005725.411
  23098239.579    -9551783.34243  -6940817.68642  23098241.222    23098239.000
  21983393.406   -17887611.32443 -13871385.86942  21983395.436    21983391.562
 03  3 26  1 52 30.0000000  0  8G 9G17G31G 3G14G15G23G18
  23606405.225    -7492098.73943  -5715073.22242  23606407.383    23606405.812
  23545013.510   -12279006.72243  -9553080.37442  23545014.949    23545015.245
  22383435.861   -11531021.56043  -8972852.40742  22383437.478    22383435.941
  21947057.125   -18619267.78543 -14450271.04442  21947059.017    21947057.372
  20331657.775   -25411974.71443 -19736818.06942  20331660.017    20331656.071
  21016402.156   -21577636.62144 -16349062.45042  21016403.704    21016401.154
  23109339.650    -9493451.97043  -6895364.66742  23109341.319    23109339.096
  21994264.849   -17830481.70043 -13826869.27342  21994266.866    21994262.971
 03  3 26  1 53  0.0000000  0  8G 9G17G31G 3G14G15G23G18
  23611591.805    -7464843.42043  -5693835.29242  23611593.839    23611592.281
  23562394.117   -12187671.24143  -9481909.93142  23562395.522    23562395.850
  22382038.991   -11538362.34143  -8978572.50542  22382040.584    22382039.027
  21954851.590   -18578307.87743 -14418354.25742  21954853.469    21954851.866
  20326612.320   -25438488.49743 -19757478.11542  20326614.562    20326610.621
  21027158.723   -21521110.42044 -16305016.06642  21027160.265    21027157.705
  23120448.739    -9435073.18143  -6849874.69942  23120450.388    23120448.261
  22005161.395   -17773219.96643 -13782249.73542  22005163.424    22005159.553
 03  3 26  1 53 30.0000000  0  8G 9G17G31G 3G14G15G23G18
  23616885.397    -7437025.74343  -5672159.15642  23616887.427    23616885.784
  23579818.828   -12096104.22343  -9410559.06542  23579820.149    23579820.616
  22380747.429   -11545149.59143  -8983861.27742  22380749.061    22380747.414
  21962732.349   -18536894.31243 -14386083.96742  21962734.240    21962732.632
  20321664.914   -25464487.04243 -19777736.68042  20321667.171    20321663.227
  21037988.026   -21464201.96044 -16260671.82042  21037989.569    21037987.027
  23131558.780    -9376689.32243  -6804380.79442  23131560.396    23131558.397
  22016074.940   -17715868.81343 -13737560.51342  22016076.993    22016073.159
 03  3 26  1 54  0.0000000  0  8G 9G17G31G 3G14G15G23G18
  23622294.819    -7408599.08343  -5650008.48742  23622296.904    23622295.185
  23597296.416   -12004259.41643  -9338991.74342  23597297.652    23597298.229
  22379570.166   -11551336.34843  -8988682.12942  22379571.781    22379570.104
  21970707.994   -18494982.02043 -14353425.06142  21970709.903    21970708.267
  20316824.512   -25489923.34243 -19797557.13142  20316826.761    20316822.821
  21048899.009   -21406864.43344 -16215993.23042  21048900.537    21048897.989
  23142678.734    -9318253.33543  -6758846.26342  23142680.345    23142678.419
  22027014.435   -17658381.38643 -13692765.10742  22027016.500    22027012.641
 03  3 26  1 54 30.0000000  0  8G 9G17G31G 3G14G15G23G18
  23627813.051    -7379600.91043  -5627412.48642  23627815.087    23627813.377
  23614819.570   -11912174.80243  -9267237.54942  23614820.881    23614821.333
  22378500.077   -11556959.81743  -8993064.05142  22378501.715    22378500.006
  21978771.148   -18452609.82343 -14320407.78542  21978773.051    21978771.361
  20312084.094   -25514834.33943 -19816968.25842  20312086.325    20312082.378
  21059884.514   -21349135.29444 -16171009.49442  21059886.029    21059883.472
  23153801.586    -9259802.37443  -6713300.06042  23153803.138    23153801.326
  22037972.702   -17600795.23743 -13647892.76042  22037974.830    22037970.917
 03  3 26  1 55  0.0000000  0  8G 9G17G31G 3G14G15G23G18
  23633441.408    -7350023.29943  -5604364.97242  23633443.462    23633441.781
  23632389.797   -11819843.10043  -9195290.82942  23632391.127    23632391.616
  22377538.778   -11562011.76043  -8997000.64342  22377540.469    22377538.676
  21986923.065   -18409771.33743 -14287027.17642  21986924.955    21986923.247
  20307445.323   -25539211.27843 -19835963.24142  20307447.548    20307443.573
  21070946.098   -21291006.52844 -16125714.36442  21070947.577    21070945.010
  23164928.875    -9201327.82143  -6667735.47742  23164930.468    23164928.712
  22048951.316   -17543102.31343 -13602937.22542  22048953.437    22048949.468
 03  3 26  1 55 30.0000000  0  8G 9G17G31G 3G14G15G23G18
  23639185.531    -7319837.68443  -5580843.69142  23639187.594    23639185.995
  23650012.194   -11727236.63343  -9123130.01142  23650013.504    23650014.138
  22376691.668   -11566463.32843  -9000469.40542  22376693.410    22376691.540
  21995168.897   -18366439.35243 -14253262.02042  21995170.795    21995169.081
  20302913.667   -25563025.13943 -19854519.46142  20302915.898    20302911.912
  21082089.168   -21232449.38744 -16080085.43242  21082090.644    21082088.096
  23176066.136    -9142800.76743  -6622129.99142  23176067.759    23176066.072
  22059955.642   -17485274.02543 -13557876.20642  22059957.781    22059953.777
 03  3 26  1 56  0.0000000  0  8G 9G17G31G 3G14G15G23G18
  23645035.064    -7289097.94643  -5556890.61742  23645037.137    23645035.564
  23667676.526   -11634409.52243  -9050797.23742  23667677.723    23667678.667
  22375948.595   -11570368.26343  -9003512.21242  22375950.331    22375948.422
  22003498.072   -18322669.40443 -14219155.59942  22003499.957    22003498.295
  20298478.984   -25586329.29943 -19872678.51142  20298481.222    20298477.245
  21093303.489   -21173517.70644 -16034164.64842  21093304.972    21093302.439
  23187203.286    -9084274.63343  -6576525.21042  23187204.911    23187203.186
  22070975.494   -17427364.01143 -13512751.50742  22070977.654    22070973.591
 03  3 26  1 56 30.0000000  0  8G 9G17G31G 3G14G15G23G18
  23650994.891    -7257779.13043  -5532486.31442  23650996.897    23650995.295
  23685387.653   -11541337.27043  -8978273.45142  23685388.871    23685389.841
  22375314.320   -11573701.40643  -9006109.47742  22375316.022    22375314.070
  22011915.050   -18278438.12043 -14184689.69242  22011916.907    22011915.301
  20294146.111   -25609098.50244 -19890420.71442  20294148.342    20294144.374
  21104593.807   -21114186.57843 -15987932.60742  21104595.281    21104592.777
  23198345.030    -9025724.21043  -6530901.50242  23198346.725    23198344.898
  22082015.645   -17369347.32443 -13467543.69442  22082017.766    22082013.692
 03  3 26  1 57  0.0000000  0  8G 9G17G31G 3G14G15G23G18
  23657065.079    -7225880.38643  -5507630.12942  23657067.049    23657065.518
  23703145.471   -11448019.63343  -8905558.44942  23703146.919    23703147.727
  22374788.992   -11576461.61843  -9008260.30142  22374790.707    22374788.775
  22020419.681   -18233746.11943 -14149864.78442  22020421.531    22020419.966
  20289915.337   -25631331.30943 -19907744.94542  20289917.570    20289913.565
  21115960.315   -21054455.05643 -15941388.57942  21115961.792    21115959.293
  23209491.769    -8967147.89743  -6485257.63542  23209493.419    23209491.540
  22093076.288   -17311223.01343 -13422252.00942  22093078.392    22093074.322
 03  3 26  1 57 30.0000000  0  8G 9G17G31G 3G14G15G23G18
  23663247.461    -7193391.76443  -5482314.29242  23663249.529    23663247.896
  23720951.935   -11354446.73343  -8832644.54642  23720953.209    23720954.189
  22374374.727   -11578638.48343  -9009956.56442  22374376.434    22374374.539
  22029013.651   -18188584.57343 -14114674.00242  22029015.504    22029013.981
  20285788.724   -25653016.79644 -19924642.69342  20285790.962    20285786.911
  21127405.038   -20994312.57743 -15894524.33342  21127406.510    21127404.023
  23220645.476    -8908534.90543  -6439585.16642  23220647.154    23220645.186
  22104159.477   -17252980.51543 -13376868.23842  22104161.548    22104157.485
 03  3 26  1 58  0.0000000  0  8G 9G17G31G 3G14G15G23G18
  23669541.341    -7160317.09843  -5456541.80842  23669543.392    23669541.822
  23738806.107   -11260623.16243  -8759535.29342  23738807.378    23738808.364
  22374070.793   -11580235.50543  -9011200.99842  22374072.450    22374070.668
  22037695.981   -18142958.78643 -14079121.47542  22037697.824    22037696.305
  20281765.591   -25674158.53243 -19941116.74242  20281767.815    20281763.731
  21138927.246   -20933762.87343 -15847342.76442  21138928.706    21138926.259
  23231805.552    -8849888.56343  -6393886.71742  23231807.202    23231805.167
  22115264.426   -17194623.72243 -13331395.40942  22115266.491    22115262.372
 03  3 26  1 58 30.0000000  0  8G 9G17G31G 3G14G15G23G18
  23675941.670    -7126683.17343  -5430333.53442  23675943.771    23675942.126
  23756702.718   -11166576.22943  -8686252.00542  23756703.950    23756704.798
  22373872.232   -11581279.05243  -9012014.14642  22373873.897    22373872.099
  22046461.332   -18096896.83743 -14043229.07642  22046463.154    22046461.617
  20277841.006   -25694782.38744 -19957187.24542  20277843.207    20277839.083
  21150521.951   -20872832.38043 -15799864.47342  21150523.389    21150520.996
  23242966.974    -8791234.88843  -6348182.55442  23242968.664    23242966.604
  22126386.126   -17136178.86443 -13285853.95842  22126388.193    22126384.032
 03  3 26  1 59  0.0000000  0  8G 9G17G31G 3G14G15G23G18
  23682453.697    -7092461.70143  -5403667.43442  23682455.824    23682454.122
  23774647.232   -11072277.51943  -8612772.50342  23774648.336    23774649.309
  22373784.413   -11581740.71343  -9012373.87642  22373786.104    22373784.339
  22055314.759   -18050372.04343 -14006976.01842  22055316.560    22055315.020
  20274020.391   -25714859.83144 -19972831.97542  20274022.590    20274018.426
  21162194.531   -20811492.66643 -15752067.30642  21162195.938    21162193.601
  23254135.340    -8732545.08843  -6302450.24642  23254137.009    23254134.903
  22137530.055   -17077617.34843 -13240221.60742  22137532.103    22137527.935
 03  3 26  1 59 30.0000000  0  8G 9G17G31G 3G14G15G23G18
  23689072.567    -7057678.84043  -5376563.87942  23689074.653    23689073.027
  23792634.415   -10977754.20643  -8539117.98842  23792635.472    23792636.452
  22373802.329   -11581646.42143  -9012300.40042  22373804.088    22373802.331
  22064251.037   -18003411.81443 -13970383.66342  22064252.841    22064251.290
  20270298.931   -25734416.12244 -19988070.61142  20270301.145    20270296.963
  21173940.008   -20749769.70743 -15703971.51142  21173941.441    21173939.131
  23265305.703    -8673844.62543  -6256709.61942  23265307.337    23265305.312
  22148691.261   -17018965.01543 -13194518.49242  22148693.336    22148689.140
 03  3 26  2  0  0.0000000  0  8G 9G17G31G 3G14G15G23G18
  23695803.621    -7022306.20543  -5349000.76942  23695805.740    23695804.058
  23810669.772   -10882978.03743  -8465266.44842  23810670.797    23810671.772
  22373931.509   -11580967.31843  -9011771.21542  22373933.271    22373931.558
  22073275.367   -17955988.94943 -13933430.80642  22073277.174    22073275.578
  20266682.153   -25753422.31443 -20002880.59542  20266684.377    20266680.169
  21185763.892   -20687634.85643 -15655554.75742  21185765.307    21185763.038
  23276483.721    -8615104.12543  -6210937.80842  23276485.376    23276483.337
  22159875.296   -16960192.74643 -13148721.91842  22159877.365    22159873.194
 03  3 26  2  0 30.0000000  0  8G 9G17G31G 3G14G15G23G18
  23702646.577    -6986346.42943  -5320980.13342  23702648.743    23702646.823
  23828752.753   -10787951.57043  -8391219.86842  23828753.994    23828754.640
  22374171.547   -11579705.62343  -9010788.05942  22374173.312    22374171.608
  22082387.005   -17908107.22243 -13896120.39842  22082388.817    22082387.162
  20263169.667   -25771880.32244 -20017263.42342  20263171.928    20263167.718
  21197665.710   -20625090.45343 -15606818.88442  21197667.132    21197664.890
  23287669.013    -8556325.32243  -6165136.14142  23287670.647    23287668.619
  22171081.703   -16901302.94043 -13102833.76942  22171083.777    22171079.596
 03  3 26  2  1  0.0000000  0  8G 9G17G31G 3G14G15G23G18
  23709594.409    -6949835.59343  -5292530.11642  23709596.677    23709594.444
  23846876.436   -10692711.52643  -8317006.85542  23846877.668    23846878.369
  22374515.731   -11577897.14643  -9009378.83642  22374517.479    22374515.697
  22091578.710   -17859804.50743 -13858481.94942  22091580.567    22091578.865
  20259754.761   -25789825.69944 -20031246.80042  20259757.026    20259752.785
  21209638.642   -20562172.35243 -15557791.81442  21209640.074    21209637.821
  23298854.859    -8497543.53643  -6119332.17242  23298856.466    23298854.445
  22182303.686   -16842331.14543 -13056881.72642  22182305.732    22182301.625
 03  3 26  2  1 30.0000000  0  8G 9G17G31G 3G14G15G23G18
  23716649.568    -6912760.68543  -5263640.55242  23716651.848    23716649.483
  23865043.254   -10597245.20043  -8242617.52742  23865044.627    23865044.920
  22374966.446   -11575528.60543  -9007533.19742  22374968.203    22374966.348
  22100852.765   -17811069.09343 -13820506.32942  22100854.619    22100852.899
  20256439.964   -25807244.93344 -20044820.19742  20256442.234    20256437.984
  21221685.242   -20498867.11443 -15508463.07542  21221686.697    21221684.421
  23310043.863    -8438744.93543  -6073515.08242  23310045.450    23310043.429
  22193543.837   -16783263.87543 -13010855.28942  22193545.866    22193541.822
 03  3 26  2  2  0.0000000  0  8G 9G17G31G 3G14G15G23G18
  23723815.622    -6875103.15243  -5234296.99942  23723817.857    23723815.482
  23883256.295   -10501534.94443  -8168038.13742  23883257.761    23883257.836
  22375527.242   -11572581.31343  -9005236.56642  22375529.101    22375527.134
  22110212.386   -17761883.90843 -13782180.22942  22110214.243    22110212.542
  20253228.938   -25824118.78344 -20057968.61442  20253231.210    20253226.953
  21233809.061   -20435156.06443 -15458818.11642  21233810.526    21233808.276
  23321239.786    -8379910.10943  -6027669.77242  23321241.366    23321239.309
  22204805.699   -16724082.06643 -12964739.59842  22204807.793    22204803.783
 03  3 26  2  2 30.0000000  0  8G 9G17G31G 3G14G15G23G18
  23731089.071    -6836881.21043  -5204513.65542  23731091.242    23731088.816
  23901512.494   -10405598.41243  -8093282.43342  23901513.844    23901513.869
  22376194.861   -11569072.94143  -9002502.74342  22376196.707    22376194.707
  22119653.909   -17712268.18643 -13743518.65342  22119655.810    22119654.102
  20250118.366   -25840464.64443 -20070705.61842  20250120.641    20250116.398
  21246006.765   -20371056.91243 -15408870.74742  21246008.218    21246005.965
  23332439.269    -8321056.17743  -5981809.57242  23332440.904    23332438.832
  22216086.043   -16664803.17843 -12918548.26342  22216088.146    22216084.191
 03  3 26  2  3  0.0000000  0  8G 9G17G31G 3G14G15G23G18
  23738475.068    -6798067.70243  -5174269.33442  23738477.195    23738474.770
  23919816.886   -10309408.48143  -8018329.25642  23919818.240    23919818.296
  22376974.418   -11564976.25443  -8999310.49242  22376976.258    22376974.289
  22129182.227   -17662196.32843 -13704501.64742  22129184.137    22129182.510
  20247113.527   -25856255.02644 -20083009.78042  20247115.800    20247111.561
  21258283.491   -20306542.25943 -15358599.60542  21258284.982    21258282.710
  23343647.795    -8262155.16143  -5935912.68142  23343649.436    23343647.356
  22227390.047   -16605399.87643 -12872259.98042  22227392.175    22227388.303
 03  3 26  2  3 30.0000000  0  8G 9G17G31G 3G14G15G23G18
  23745970.403    -6758679.40443  -5143577.13442  23745972.527    23745970.098
  23938166.064   -10212982.84843  -7943192.43942  23938167.418    23938167.650
  22377862.863   -11560307.54043  -8995672.50542  22377864.680    22377862.738
  22138794.013   -17611686.19143 -13665143.12942  22138795.882    22138794.306
  20244211.406   -25871505.88244 -20094893.53542  20244213.669    20244209.400
  21270636.206   -20241628.35643 -15308017.35742  21270637.688    21270635.435
  23354862.289    -8203222.74643  -5889991.31842  23354863.972    23354861.864
  22238714.806   -16545887.95543 -12825887.06142  22238716.884    22238713.065
 03  3 26  2  4  0.0000000  0  8G 9G17G31G 3G14G15G23G18
  23753569.502    -6718746.05043  -5112460.22542  23753571.552    23753569.122
  23956554.433   -10116351.24843  -7867895.10942  23956555.517    23956556.017
  22378854.546   -11555096.22043  -8991611.70242  22378856.391    22378854.395
  22148483.288   -17560768.74543 -13625467.22142  22148485.147    22148483.624
  20241406.391   -25886246.20244 -20106379.46842  20241408.684    20241404.364
  21283059.322   -20176344.53543 -15257146.86742  21283060.779    21283058.541
  23366077.265    -8144287.55443  -5844067.79942  23366078.986    23366076.914
  22250054.657   -16486296.42143 -12779452.09842  22250056.746    22250052.929
 03  3 26  2  4 30.0000000  0  8G 9G17G31G 3G14G15G23G18
  23761276.927    -6678243.01643  -5080899.40942  23761279.011    23761276.617
  23974986.757   -10019489.33043  -7792418.33442  23974987.671    23974988.214
  22379954.241   -11549317.40743  -8987108.70642  22379956.100    22379954.005
  22158254.519   -17509420.82443 -13585455.88342  22158256.337    22158254.789
  20238703.320   -25900450.89344 -20117448.03042  20238705.600    20238701.266
  21295557.572   -20110665.94643 -15205968.76542  21295558.996    21295556.767
  23377297.715    -8085324.07843  -5798122.24442  23377299.422    23377297.323
  22261414.485   -16426600.07543 -12732935.46342  22261416.532    22261412.742
 03  3 26  2  5  0.0000000  0  8G 9G17G31G 3G14G15G23G18
  23769092.832    -6637170.16743  -5048894.58142  23769094.862    23769092.590
  23993462.882    -9922397.25943  -7716762.19042  23993463.761    23993464.328
  22381161.915   -11542970.66543  -8982163.18142  22381163.823    22381161.704
  22168107.472   -17457643.45843 -13545109.90742  22168109.262    22168107.684
  20236102.313   -25914119.08744 -20128098.53842  20236104.616    20236100.274
  21308131.052   -20044591.98943 -15154482.58442  21308132.476    21308130.248
  23388523.734    -8026331.10043  -5752153.69242  23388525.464    23388523.342
  22272794.427   -16366798.05343 -12686336.48342  22272796.462    22272792.731
 03  3 26  2  5 30.0000000  0  8G 9G17G31G 3G14G15G23G18
  23777014.195    -6595543.22943  -5016457.98442  23777016.210    23777014.060
  24011979.646    -9825090.95743  -7640939.11642  24011980.631    24011981.227
  22382474.805   -11536071.41043  -8976787.10942  22382476.638    22382474.544
  22178038.924   -17405453.51443 -13504442.43942  22178040.724    22178039.111
  20233600.542   -25927265.90844 -20138342.78342  20233602.822    20233598.494
  21320776.820   -19978138.09343 -15102700.34042  21320778.277    21320776.041
  23399752.539    -7967323.10943  -5706173.44642  23399754.310    23399752.154
  22284191.601   -16306905.30143 -12639666.79942  22284193.656    22284189.972
 03  3 26  2  6  0.0000000  0  8G 9G17G31G 3G14G15G23G18
  23785044.649    -6553343.07743  -4983574.73142  23785046.624    23785044.453
  24030540.822    -9727551.02943  -7564933.99742  24030542.042    24030542.573
  22383896.517   -11528600.17543  -8970965.34542  22383898.359    22383896.227
  22188052.290   -17352833.25943 -13463439.66742  22188054.103    22188052.422
  20231201.788   -25939871.39144 -20148165.21042  20231204.047    20231199.737
  21333498.568   -19911284.98343 -15050607.02842  21333500.061    21333497.799
  23410988.084    -7908279.78743  -5660165.67642  23410989.810    23410987.761
  22295609.867   -16246902.05243 -12592911.01342  22295611.892    22295608.250
 03  3 26  2  6 30.0000000  0  8G 9G17G31G 3G14G15G23G18
  23793183.614    -6510572.68343  -4950247.11642  23793185.646    23793183.452
  24049145.779    -9629781.12643  -7488749.65642  24049146.941    24049147.448
  22385426.629   -11520559.57343  -8964699.93242  22385428.420    22385426.285
  22198146.750   -17299786.75643 -13422104.75942  22198148.555    22198146.861
  20228905.573   -25951937.86144 -20157567.62342  20228907.835    20228903.553
  21346295.872   -19844034.77843 -14998204.28942  21346297.374    21346295.109
  23422230.029    -7849202.91343  -5614131.75542  23422231.727    23422229.749
  22307048.765   -16186790.36243 -12546070.72442  22307050.771    22307047.177
 03  3 26  2  7  0.0000000  0  8G 9G17G31G 3G14G15G23G18
  23801425.885    -6467259.31543  -4916496.42842  23801427.904    23801425.558
  24067789.240    -9531808.36343  -7412407.24142  24067790.504    24067791.238
  22387059.877   -11511976.81543  -8958012.06042  22387061.683    22387059.567
  22208316.807   -17246342.78843 -13380460.14042  22208318.613    22208316.947
  20226706.819   -25963492.28144 -20166571.03742  20226709.093    20226704.780
  21359163.577   -19776414.58743 -14945513.24842  21359165.104    21359162.823
  23433473.368    -7790118.84043  -5568092.22542  23433475.060    23433473.093
  22318503.219   -16126596.74043 -12499166.59242  22318505.248    22318501.634
 03  3 26  2  7 30.0000000  0  9G25G 9G17G31G 3G14G15G23G18
  24542045.176    -3951783.13153  -3024809.75552  24542047.891    24542050.614
  23809776.081    -6423378.14743  -4882303.28342  23809778.162    23809775.813
  24086475.829    -9433608.44843  -7335887.83642  24086477.265    24086478.076
  22388801.082   -11502826.61243  -8950882.01442  22388802.903    22388800.804
  22218566.990   -17192477.64343 -13338487.32742  22218568.801    22218567.168
  20224610.430   -25974508.83344 -20175155.33042  20224612.713    20224608.368
  21372106.489   -19708398.95843 -14892514.06542  21372108.055    21372105.751
  23444723.166    -7731001.17943  -5522026.52242  23444724.794    23444722.858
  22329978.207   -16066295.40643 -12452178.52142  22329980.219    22329976.567
 03  3 26  2  8  0.0000000  0  9G25G 9G17G31G 3G14G15G23G18
  24523506.699    -4049202.25443  -3100720.48942  24523509.399    24523512.001
  23818235.489    -6378923.70143  -4847663.43742  23818237.462    23818235.165
  24105206.987    -9335175.47843  -7259186.83842  24105208.592    24105209.246
  22390651.404   -11493103.11843  -8943305.25342  22390653.210    22390651.096
  22228898.174   -17138186.83843 -13296182.83442  22228899.969    22228898.385
  20222617.543   -25984981.39044 -20183315.73742  20222619.829    20222615.491
  21385125.783   -19639982.08243 -14839202.22242  21385127.358    21385125.073
  23455980.629    -7671843.12043  -5475929.33642  23455982.253    23455980.284
  22341474.924   -16005879.86543 -12405101.47042  22341476.929    22341473.234
 03  3 26  2  8 30.0000000  0  9G25G 9G17G31G 3G14G15G23G18
  24504953.856    -4146697.11743  -3176690.23442  24504956.560    24504959.066
  23826798.063    -6333926.87943  -4812600.95142  23826800.031    23826797.758
  24123976.567    -9236540.31743  -7182328.24342  24123978.237    24123979.059
  22392605.064   -11482836.83143  -8935305.53842  22392606.875    22392604.698
  22239304.240   -17083502.30943 -13253571.53942  22239306.043    22239304.532
  20220722.436   -25994940.16344 -20191075.78442  20220724.719    20220720.374
  21398215.689   -19571194.34243 -14785601.39742  21398217.217    21398214.950
  23467240.083    -7612674.32243  -5429823.77942  23467241.770    23467239.787
  22352987.751   -15945379.78743 -12357958.54442  22352989.704    22352985.990
 03  3 26  2  9  0.0000000  0  9G25G 9G17G31G 3G14G15G23G18
  24486393.168    -4244232.81443  -3252691.81942  24486395.954    24486398.341
  23835469.988    -6288356.00543  -4777091.15042  23835471.902    23835469.636
  24142790.718    -9137671.83943  -7105287.86242  24142792.172    24142792.960
  22394667.982   -11471996.04843  -8926858.16342  22394669.824    22394667.638
  22249790.944   -17028393.98543 -13210630.01642  22249792.758    22249791.320
  20218931.254   -26004352.87944 -20198410.33642  20218933.545    20218929.166
  21411382.236   -19502003.85443 -14731686.74442  21411383.761    21411381.508
  23478507.832    -7553462.00343  -5383684.31642  23478509.531    23478507.476
  22364522.729   -15884763.21543 -12310724.84642  22364524.671    22364520.878
 03  3 26  2  9 30.0000000  0  9G25G 9G17G31G 3G14G15G23G18
  24467817.947    -4341844.95543  -3328752.97342  24467820.794    24467823.079
  23844243.691    -6242250.46443  -4741164.72742  23844245.559    23844243.151
  24161641.668    -9038609.43843  -7028096.37842  24161643.247    24161643.936
  22396832.757   -11460619.91043  -8917993.63942  22396834.634    22396832.409
  22260350.574   -16972902.67443 -13167390.05442  22260352.373    22260350.994
  20217236.597   -26013258.26644 -20205349.56242  20217238.877    20217234.483
  21424618.000   -19432449.61843 -14677488.64642  21424619.507    21424617.260
  23489776.628    -7494244.23943  -5337540.61342  23489778.261    23489776.226
  22376072.593   -15824068.46743 -12263430.22542  22376074.528    22376070.615
 03  3 26  2 10  0.0000000  0  9G25G 9G17G31G 3G14G15G23G18
  24449229.621    -4439526.55843  -3404868.25842  24449232.372    24449234.710
  23853119.618    -6195607.30643  -4704819.39242  23853121.436    23853118.974
  24180530.096    -8939350.28043  -6950751.58142  24180531.735    24180532.368
  22399100.068   -11448704.98643  -8908709.27242  22399101.920    22399099.733
  22270983.513   -16917026.15343 -13123849.92442  22270985.338    22270983.978
  20215639.152   -26021652.69544 -20211890.63542  20215641.429    20215637.035
  21437923.679   -19362528.07943 -14623004.34542  21437925.175    21437922.922
  23501047.272    -7435016.46343  -5291389.09242  23501048.960    23501046.839
  22387638.136   -15763291.37343 -12216071.44442  22387640.068    22387636.093
 03  3 26  2 10 30.0000000  0  9G25G 9G17G31G 3G14G15G23G18
  24430635.267    -4537239.64943  -3481008.10442  24430637.981    24430640.310
  23862104.301    -6148392.52043  -4668028.65542  23862106.121    23862103.489
  24199462.427    -8839860.26643  -6873226.85842  24199464.184    24199464.688
  22401476.413   -11436216.95343  -8898978.33042  22401478.244    22401476.121
  22281695.991   -16860731.78043 -13079984.20142  22281697.806    22281696.502
  20214145.508   -26029501.49844 -20218006.55242  20214147.806    20214143.429
  21451305.819   -19292204.60643 -14568206.85642  21451307.305    21451305.050
  23512326.516    -7375743.42043  -5245202.31742  23512328.187    23512326.087
  22399226.017   -15702396.87243 -12168621.18042  22399227.978    22399223.908
 03  3 26  2 11  0.0000000  0  9G25G 9G17G31G 3G14G15G23G18
  24412030.215    -4635008.77143  -3557191.59742  24412032.974    24412035.233
  23871192.272    -6100634.53443  -4630814.61942  23871194.131    23871191.446
  24218433.219    -8740167.82243  -6795544.44242  24218434.930    24218435.460
  22403956.463   -11423184.00043  -8888822.77242  22403958.207    22403956.231
  22292482.386   -16804048.97543 -13035815.79742  22292484.221    22292482.925
  20212750.453   -26036832.44544 -20223718.94142  20212752.744    20212748.357
  21464759.132   -19221507.03243 -14513117.85742  21464760.610    21464758.371
  23523609.214    -7316452.01843  -5199001.21942  23523610.911    23523608.804
  22410830.968   -15641412.22443 -12121100.66842  22410832.966    22410828.863
 03  3 26  2 11 30.0000000  0  9G25G 9G17G31G 3G14G15G23G18
  24393417.632    -4732817.46743  -3633405.94142  24393420.339    24393422.526
  23880385.988    -6052320.84443  -4593167.58342  23880387.874    23880385.115
  24237444.947    -8640260.54043  -6717694.62542  24237446.570    24237447.182
  22406542.652   -11409593.22643  -8878232.54942  22406544.386    22406542.476
  22303344.897   -16746966.32443 -12991335.82342  22303346.738    22303345.392
  20211456.486   -26043631.98644 -20229017.24942  20211458.799    20211454.404
  21478286.136   -19150422.38643 -14457727.25042  21478287.578    21478285.351
  23534898.091    -7257128.21743  -5152774.89242  23534899.760    23534897.721
  22422455.668   -15580324.04043 -12073499.48342  22422457.646    22422453.543
 03  3 26  2 12  0.0000000  0  9G25G 9G17G31G 3G14G15G23G18
  24374799.941    -4830653.30943  -3709641.43642  24374802.628    24374804.713
  23889687.017    -6003443.14543  -4555081.04542  23889688.936    23889686.171
  24256499.100    -8540129.61643  -6639670.49542  24256500.991    24256501.525
  22409236.692   -11395435.87043  -8867200.83642  22409238.418    22409236.536
  22314284.872   -16689476.51743 -12946538.58342  22314286.744    22314285.357
  20210265.383   -26049891.15644 -20233894.48842  20210267.685    20210263.271
  21491888.489   -19078941.63743 -14402027.98442  21491889.905    21491887.684
  23546194.943    -7197762.09043  -5106515.57142  23546196.689    23546194.714
  22434101.909   -15519122.45743 -12025809.93242  22434103.907    22434099.810
 03  3 26  2 12 30.0000000  0  9G25G 9G17G31G 3G14G15G23G18
  24356171.926    -4928543.40543  -3785919.22142  24356174.633    24356176.611
  23899089.578    -5954032.24643  -4516579.03742  23899091.485    23899088.771
  24275589.960    -8439806.20843  -6561496.37642  24275591.806    24275592.047
  22412032.671   -11380742.68943  -8855751.59042  22412034.422    22412032.557
  22325296.203   -16631611.69343 -12901449.11942  22325298.087    22325296.666
  20209171.345   -26055640.25344 -20238374.26542  20209173.630    20209169.221
  21505560.496   -19007095.04343 -14346043.64242  21505561.867    21505559.634
  23557494.280    -7138383.11443  -5060246.24342  23557496.020    23557494.141
  22445764.055   -15457837.33843 -11978055.29542  22445766.049    22445762.004
 03  3 26  2 13  0.0000000  0  8G25G 9G31G 3G14G15G23G18
  24337538.946    -5026459.41643  -3862217.20042  24337541.693    24337543.545
  23908598.134    -5904064.07143  -4477642.77642  23908600.107    23908597.396
  22414935.291   -11365489.32843  -8843865.84842  22414937.086    22414935.195
  22336383.216   -16573349.06443 -12856049.67842  22336385.074    22336383.687
  20208179.105   -26060854.48944 -20242437.26642  20208181.391    20208176.961
  21519306.673   -18934858.38943 -14289755.35142  21519308.028    21519305.793
  23568801.037    -7078965.55143  -5013946.86142  23568802.756    23568800.920
  22457446.863   -15396443.68943 -11930216.09042  22457448.862    22457444.858
 03  3 26  2 13 30.0000000  0  8G25G 9G31G 3G14G15G23G18
  24318899.447    -5124409.69643  -3938541.86842  24318902.204    24318903.958
  23918210.401    -5853551.02443  -4438281.92942  23918212.472    23918209.811
  22417942.313   -11349687.78143  -8831552.95142  22417944.063    22417942.094
  22347543.461   -16514701.60743 -12810350.37442  22347545.352    22347543.982
  20207286.438   -26065545.44944 -20246092.52742  20207288.703    20207284.257
  21533124.851   -18862243.25643 -14233172.15342  21533126.224    21533123.981
  23580113.134    -7019520.25443  -4967625.85642  23580114.791    23580112.942
  22469148.231   -15334952.39943 -11882300.80142  22469150.236    22469146.274
 03  3 26  2 14  0.0000000  0  8G25G 9G31G 3G14G15G23G18
  24300250.946    -5222407.28443  -4014903.40442  24300253.662    24300255.401
  23927923.142    -5802510.14443  -4398509.80042  23927925.127    23927922.475
  22421050.470   -11333354.78743  -8818825.95242  22421052.202    22421050.177
  22358773.420   -16455687.64643 -12764365.48242  22358775.339    22358773.987
  20206490.165   -26069729.80644 -20249353.03342  20206492.428    20206487.966
  21547011.973   -18789266.03843 -14176306.80642  21547013.317    21547011.077
  23591427.511    -6960062.61943  -4921295.22942  23591429.198    23591427.356
  22480865.190   -15273379.20443 -11834321.69142  22480867.213    22480863.294
 03  3 26  2 14 30.0000000  0  8G25G 9G31G 3G14G15G23G18
  24281593.079    -5320453.95343  -4091303.17742  24281595.768    24281597.496
  23937735.161    -5750947.16143  -4358330.80842  23937737.135    23937734.568
  22424258.657   -11316495.85343  -8805689.12042  22424260.399    22424258.346
  22370071.801   -16396314.21743 -12718100.48742  22370073.720    22370072.382
  20205789.401   -26073412.22244 -20252222.41142  20205791.645    20205787.192
  21560966.918   -18715932.24643 -14119163.60642  21560968.285    21560966.058
  23602743.429    -6900596.96143  -4874958.37142  23602745.135    23602743.250
  22492596.869   -15211728.76543 -11786282.39542  22492598.895    22492595.047
 03  3 26  2 15  0.0000000  0  8G25G 9G31G 3G14G15G23G18
  24262936.535    -5418493.83443  -4167697.65742  24262939.178    24262940.795
  23947656.501    -5698810.59843  -4317704.90542  23947658.277    23947656.010
  22427576.731   -11299059.28243  -8792102.18042  22427578.486    22427576.447
  22381448.250   -16336530.64343 -12671515.89642  22381450.158    22381448.805
  20205194.081   -26076540.58844 -20254660.06742  20205196.301    20205191.852
  21574999.651   -18642189.70443 -14061701.90042  21575001.058    21574998.819
  23614071.037    -6841070.05043  -4828573.76342  23614072.725    23614070.889
  22504353.305   -15149948.47643 -11738141.91942  22504355.300    22504351.468
 03  3 26  2 15 30.0000000  0  8G25G 9G31G 3G14G15G23G18
  24244274.131    -5516564.72243  -4244116.31242  24244276.729    24244278.314
  23957679.048    -5646142.03343  -4276664.43542  23957680.916    23957678.477
  22430996.802   -11281086.44743  -8778097.37642  22430998.593    22430996.560
  22392894.617   -16276379.87343 -12624645.17942  22392896.493    22392895.119
  20204696.383   -26079155.77444 -20256697.84142  20204698.620    20204694.155
  21589102.419   -18568079.30243 -14003953.54642  21589103.803    21589101.574
  23625402.643    -6781521.84143  -4782172.55842  23625404.370    23625402.534
  22516126.802   -15088078.34943 -11689931.43942  22516128.831    22516124.981
 03  3 26  2 16  0.0000000  0  8G25G 9G31G 3G14G15G23G18
  24225605.552    -5614667.92343  -4320560.12642  24225608.142    24225609.655
  23967801.642    -5592947.22643  -4235213.91842  23967803.533    23967800.817
  22434517.953   -11262582.64943  -8763678.83942  22434519.725    22434517.729
  22404409.588   -16215868.58443 -12577493.53842  22404411.469    22404410.066
  20204295.378   -26081262.98544 -20258339.79442  20204297.591    20204293.122
  21603274.161   -18493606.42543 -13945922.75142  21603275.498    21603273.298
  23636737.609    -6721956.19143  -4735757.77242  23636739.344    23636737.523
  22527916.568   -15026122.88243 -11641654.45342  22527918.591    22527914.723
 03  3 26  2 16 30.0000000  0  8G25G 9G31G 3G14G15G23G18
  24206929.687    -5712809.37943  -4397033.77642  24206932.300    24206933.731
  23978022.456    -5539236.32243  -4193361.24442  23978024.328    23978021.426
  22438138.298   -11243557.77043  -8748854.26542  22438140.006    22438138.064
  22415991.019   -16155008.00443 -12530069.72342  22415992.909    22415991.477
  20203989.250   -26082871.40844 -20259593.07942  20203991.479    20203987.017
  21617513.069   -18418780.52943 -13887616.87542  21617514.402    21617512.217
  23648074.304    -6662381.46943  -4689335.91842  23648076.043    23648074.178
  22539720.964   -14964090.65843 -11593317.65342  22539722.984    22539719.097
 03  3 26  2 17  0.0000000  0  8G25G 9G31G 3G14G15G23G18
  24188253.827    -5810950.23143  -4473506.94642  24188256.537    24188257.993
  23988348.152    -5484974.59943  -4151079.35742  23988349.988    23988347.156
  22441864.463   -11223976.58643  -8733596.21542  22441866.163    22441864.234
  22427645.346   -16093764.09143 -12482347.21042  22427647.264    22427645.850
  20203784.808   -26083945.50444 -20260430.00642  20203787.045    20203782.606
  21631825.930   -18343565.94143 -13829008.12042  21631827.250    21631825.102
  23659419.730    -6602761.19843  -4642878.56542  23659421.412    23659419.507
  22551546.778   -14901945.60643 -11544892.93842  22551548.830    22551544.927
 03  3 26  2 17 30.0000000  0  8G25G 9G31G 3G14G15G23G18
  24169577.205    -5909095.44543  -4549983.49842  24169579.930    24169581.391
  23998776.716    -5430171.29543  -4108375.46342  23998778.675    23998775.772
  22445694.697   -11203848.30443  -8717911.85342  22445696.413    22445694.510
  22439370.689   -16032147.05143 -12434333.94342  22439372.597    22439371.261
  20203680.417   -26084493.80944 -20260857.22442  20203682.676    20203678.232
  21646211.067   -18267971.51243 -13770103.38942  21646212.365    21646210.283
  23670772.345    -6543102.93743  -4596391.60842  23670774.055    23670772.062
  22563392.551   -14839695.75943 -11496386.56942  22563394.560    22563390.702
 03  3 26  2 18  0.0000000  0  9G25G 9G31G 3G14G11G15G23G18
  24150896.104    -6007264.28943  -4626478.46442  24150898.825    24150900.269
  24009303.726    -5374850.21643  -4065268.12242  24009305.763    24009302.765
  22449624.612   -11183196.40443  -8701819.47342  22449626.307    22449624.452
  22451162.298   -15970181.82643 -12386049.37642  22451164.227    22451162.907
  20203671.701   -26084539.52844 -20260892.81842  20203673.935    20203669.488
  24668889.945    -4788383.72653  -3665717.25252  24668892.323    24668890.526
  21660664.049   -18192020.53643 -13710920.82742  21660665.325    21660663.308
  23682128.062    -6483428.51243  -4549892.05442  23682129.748    23682127.676
  22575254.058   -14777363.06043 -11447815.63342  22575256.081    22575252.225
 03  3 26  2 18 30.0000000  0  9G25G 9G31G 3G14G11G15G23G18
  24132214.929    -6105433.40943  -4702973.62742  24132217.677    24132219.068
  24019933.070    -5318992.27143  -4021742.41742  24019935.025    24019932.123
  22453657.901   -11162001.36743  -8685303.87342  22453659.574    22453657.776
  22463023.632   -15907850.14343 -12337479.25642  22463025.578    22463024.277
  20203762.466   -26084062.57944 -20260521.13742  20203764.688    20203760.200
  24649826.480    -4888562.56543  -3743778.58642  24649828.876    24649827.046
  21675188.750   -18115692.92643 -13651444.77642  21675190.013    21675188.009
  23693490.727    -6423716.95543  -4503363.57242  23693492.403    23693490.413
  22587135.212   -14714927.09343 -11399164.22942  22587137.183    22587133.347
 03  3 26  2 19  0.0000000  0  9G25G 9G31G 3G14G11G15G23G18
  24113531.217    -6203615.90443  -4779479.19742  24113533.969    24113535.320
  24030661.269    -5262615.09843  -3977812.14942  24030663.212    24030660.377
  22457791.221   -11140280.75943  -8668378.74542  22457792.911    22457791.136
  22474951.069   -15845170.93243 -12288638.33042  22474953.060    22474951.758
  20203949.378   -26083080.22344 -20259755.63542  20203951.600    20203947.094
  24630772.161    -4988693.33743  -3821802.44542  24630774.519    24630772.765
  21689781.835   -18039005.90343 -13591688.67342  21689783.118    21689781.037
  23704857.490    -6363984.13043  -4456818.51242  23704859.133    23704857.138
  22599032.909   -14652404.11643 -11350445.02942  22599034.864    22599031.023
 03  3 26  2 19 30.0000000  0  9G25G 9G31G 3G14G11G15G23G18
  24094846.885    -6301801.57143  -4855987.21042  24094849.706    24094850.888
  24041489.461    -5205712.49643  -3933472.44442  24041491.463    24041488.652
  22462025.820   -11118028.14743  -8651039.05942  22462027.527    22462025.703
  22486945.611   -15782139.15143 -12239522.67942  22486947.623    22486946.314
  20204233.766   -26081585.55344 -20258590.92242  20204235.997    20204231.473
  24611728.827    -5088766.54143  -3899781.45842  24611731.210    24611729.352
  21704444.602   -17961952.75043 -13531647.27042  21704445.872    21704443.752
  23716229.915    -6304222.05043  -4410250.66942  23716231.524    23716229.477
  22610948.681   -14589786.19143 -11301651.84342  22610950.626    22610946.784
 03  3 26  2 20  0.0000000  0  9G25G 9G31G 3G14G11G15G23G18
  24076162.886    -6399985.47943  -4932493.84042  24076165.717    24076166.793
  24052417.759    -5148283.81343  -3888722.78842  24052419.746    24052417.308
  22466361.844   -11095242.46243  -8633284.00442  22466363.530    22466361.692
  22499007.293   -15718754.89943 -12190132.38142  22499009.264    22499007.937
  20204615.987   -26079576.87444 -20257025.68542  20204618.222    20204613.659
  24592697.349    -5188777.55343  -3977712.03342  24592699.688    24592697.714
  21719177.332   -17884531.82743 -13471319.28742  21719178.630    21719176.443
  23727608.442    -6244428.05543  -4363657.94942  23727610.012    23727607.922
  22622882.890   -14527071.24143 -11252783.05142  22622884.854    22622881.042
 03  3 26  2 20 30.0000000  0  9G25G 9G31G 3G14G11G15G23G18
  24057478.344    -6498172.11843  -5009002.59042  24057481.200    24057482.161
  24063444.439    -5090338.28343  -3843570.40142  24063446.433    24063443.937
  22470797.583   -11071932.61943  -8615120.51142  22470799.274    22470797.384
  22511134.117   -15655028.27543 -12140475.29942  22511136.058    22511134.697
  20205094.383   -26077062.80944 -20255066.64042  20205096.609    20205092.034
  24573676.659    -5288731.97843  -4055598.52242  24573678.981    24573676.944
  21733978.394   -17806751.78743 -13410711.48142  21733979.694    21733977.492
  23738991.654    -6184609.49343  -4317046.08642  23738993.214    23738991.045
  22634834.094   -14464267.25043 -11203844.87342  22634836.054    22634832.209
 03  3 26  2 21  0.0000000  0  9G25G 9G31G 3G14G11G15G23G18
  24038793.209    -6596362.02543  -5085513.87842  24038795.992    24038796.924
  24074568.469    -5031881.16443  -3798019.37642  24074570.671    24074567.756
  22475332.110   -11048103.63643  -8596552.49942  22475333.817    22475331.820
  22523324.942   -15590965.26643 -12090556.09042  22523326.896    22523325.461
  20205668.099   -26074047.75644 -20252717.21942  20205670.321    20205665.741
  24554666.447    -5388631.05143  -4133441.86942  24554668.778    24554666.684
  21748846.901   -17728617.16943 -13349827.38142  21748848.248    21748846.033
  23750378.832    -6124769.62743  -4270417.62542  23750380.452    23750378.200
  22646801.587   -14401377.41143 -11154839.79542  22646803.581    22646799.649
 03  3 26  2 21 30.0000000  0  9G25G 9G31G 3G14G11G15G23G18
  24020111.872    -6694531.43143  -5162009.16642  24020114.808    24020115.596
  24085793.597    -4972892.62143  -3752054.26742  24085795.716    24085792.874
  22479969.267   -11023735.44843  -8577564.31842  22479970.951    22479968.884
  22535583.305   -15526547.14743 -12040360.17242  22535585.269    22535583.828
  20206341.089   -26070511.06444 -20249961.32442  20206343.315    20206338.726
  24535671.212    -5488451.49743  -4211223.96542  24535673.517    24535671.432
  21763786.771   -17650107.68743 -13288651.17442  21763788.125    21763785.905
  23761774.266    -6064886.65843  -4223755.57842  23761775.885    23761773.591
  22658789.515   -14338380.40343 -11105751.20942  22658791.530    22658787.492
 03  3 26  2 22  0.0000000  0  9G25G 9G31G 3G14G11G15G23G18
  24001429.492    -6792706.54943  -5238508.92742  24001432.497    24001433.117
  24097114.051    -4913403.40343  -3705699.00242  24097116.270    24097113.327
  22484703.162   -10998858.62443  -8558179.80642  22484704.866    22484702.803
  22547903.164   -15461805.60443 -11989912.24242  22547905.156    22547903.737
  20207107.579   -26066483.07044 -20246822.59842  20207109.791    20207105.210
  24516685.707    -5588220.53743  -4288966.00042  24516688.029    24516685.965
  21778792.265   -17571253.25143 -13227206.16842  21778793.636    21778791.420
  23773172.305    -6004989.45143  -4177082.43442  23773173.948    23773171.692
  22670792.278   -14275305.59043 -11056601.99542  22670794.276    22670790.177
 03  3 26  2 22 30.0000000  0  9G25G 9G31G 3G14G11G15G23G18
  23982751.742    -6890857.37243  -5314989.75942  23982754.768    23982755.333
  24108534.577    -4853388.16343  -3658933.84242  24108536.888    24108533.882
  22489538.707   -10973447.50743  -8538378.95242  22489540.418    22489538.359
  22560289.234   -15396716.12543 -11939193.19442  22560291.218    22560289.856
  20207972.561   -26061937.48644 -20243280.56242  20207974.771    20207970.191
  24497715.616    -5687908.79743  -4366645.09542  24497717.918    24497715.894
  21793868.403   -17492027.71843 -13165471.99842  21793869.805    21793867.519
  23784578.271    -5945050.35443  -4130376.64042  23784579.894    23784577.720
  22682815.025   -14212125.67243 -11007370.88442  22682817.100    22682812.924
 03  3 26  2 23  0.0000000  0  9G25G 9G31G 3G14G11G15G23G18
  23964075.734    -6988999.09643  -5391463.50742  23964078.763    23964079.306
  24120051.385    -4792866.57943  -3611774.14142  24120053.578    24120050.606
  22494472.299   -10947521.37343  -8518176.78542  22494473.995    22494471.975
  22572737.620   -15331299.21043 -11888218.99942  22572739.590    22572738.305
  20208932.451   -26056893.07844 -20239349.82942  20208934.661    20208930.091
  24478757.922    -5787531.93943  -4444273.43342  24478760.225    24478758.224
  21809011.513   -17412450.04443 -13103463.43142  21809012.964    21809010.611
  23795988.900    -5885086.97743  -4083651.93642  23795990.512    23795988.477
  22694854.394   -14148858.44943 -10958071.74542  22694856.495    22694852.219
 03  3 26  2 23 30.0000000  0  9G25G 9G31G 3G14G11G15G23G18
  23945405.548    -7087110.58543  -5467913.71042  23945408.484    23945409.001
  24131667.758    -4731822.27243  -3564207.12042  24131669.777    24131667.014
  22499507.105   -10921063.63243  -8497560.38242  22499508.733    22499506.797
  22585251.301   -15265539.34343 -11836977.57442  22585253.269    22585251.993
  20209990.501   -26051332.82344 -20235017.13942  20209992.715    20209988.169
  24459816.470    -5887069.79443  -4521835.32142  24459818.787    24459816.744
  21824224.916   -17332503.13043 -13041167.15242  21824226.373    21824223.971
  23807407.646    -5825080.84543  -4036893.90242  23807409.249    23807407.349
  22706913.814   -14085485.81643 -10908690.47142  22706915.917    22706911.569
 03  3 26  2 24  0.0000000  0  9G25G 9G31G 3G14G11G15G23G18
  23926739.451    -7185200.37143  -5544347.01642  23926742.440    23926742.817
  24143381.040    -4670268.32343  -3516242.98442  24143383.179    24143380.494
  22504640.545   -10894087.23443  -8476539.83642  22504642.150    22504640.302
  22597827.645   -15199450.52943 -11785479.82442  22597829.588    22597828.276
  20211144.354   -26045269.15044 -20230292.17842  20211146.588    20211142.045
  24440889.376    -5986531.74143  -4599338.04342  24440891.761    24440889.726
  21839506.234   -17252199.33843 -12978592.78242  21839507.702    21839505.258
  23818832.446    -5765043.02943  -3990111.19042  23818834.085    23818832.258
  22718991.043   -14022019.32243 -10859236.06442  22718993.170    22718988.751
 03  3 26  2 24 30.0000000  0  9G25G 9G31G 3G14G11G15G23G18
  23908078.864    -7283261.11443  -5620757.71342  23908081.864    23908082.167
  24155191.939    -4608201.57043  -3467879.23642  24155193.954    24155191.398
  22509873.290   -10866588.79643  -8455112.50742  22509874.902    22509873.098
  22610467.011   -15133030.33643 -11733723.84842  22610468.948    22610467.685
  20212394.753   -26038698.08544 -20225171.84542  20212397.013    20212392.470
  24421978.094    -6085910.68143  -4676776.07242  24421980.570    24421978.495
  21854856.126   -17171534.95843 -12915737.42642  21854857.607    21854855.180
  23830264.287    -5704968.26743  -3943299.68542  23830265.981    23830264.124
  22731087.095   -13958454.13343 -10809704.74142  22731089.237    22731084.697
 03  3 26  2 25  0.0000000  0  9G25G 9G31G 3G14G11G15G23G18
  23889419.949    -7381313.46243  -5697161.88442  23889422.873    23889423.101
  24167095.637    -4545647.35243  -3419135.65342  24167097.569    24167095.148
  22515200.616   -10838593.28943  -8433297.84742  22515202.259    22515200.450
  22623164.392   -15066305.21943 -11681730.26142  22623166.336    22623165.107
  20213737.067   -26031644.22644 -20219675.31042  20213739.288    20213734.752
  24403078.569    -6185227.91843  -4754166.02042  24403081.083    24403078.945
  21870270.018   -17090534.46543 -12852620.17442  21870271.481    21870269.086
  23841698.704    -5644879.77343  -3896477.49342  23841700.393    23841698.484
  22743197.511   -13894813.76643 -10760114.84542  22743199.644    22743195.046
 03  3 26  2 25 30.0000000  0  9G25G 9G31G 3G14G11G15G23G18
  23870766.842    -7479335.07343  -5773542.10942  23870769.746    23870769.958
  24179095.413    -4482588.42743  -3369998.79742  24179097.402    24179094.871
  22520625.853   -10810083.17043  -8411082.18042  22520627.501    22520625.747
  22635922.959   -14999258.57843 -11629486.14142  22635924.916    22635923.662
  20215174.697   -26024089.35144 -20213788.37442  20215176.921    20215172.362
  24384194.769    -6284462.28843  -4831491.38742  24384197.332    24384195.216
  21885751.295   -17009179.80843 -12789226.94542  21885752.732    21885750.412
  23853139.427    -5584757.97343  -3849629.33242  23853141.121    23853139.176
  22755325.832   -13831078.95643 -10710451.35942  22755327.999    22755323.397
 03  3 26  2 26  0.0000000  0  9G25G 9G31G 3G14G11G15G23G18
  23852118.849    -7577329.98843  -5849901.55042  23852121.736    23852121.876
  24191189.617    -4419032.97143  -3320475.05242  24191191.680    24191188.925
  22526147.514   -10781066.42243  -8388471.74642  22526149.153    22526147.452
  22648741.056   -14931899.22443 -11576998.34642  22648743.011    22648741.755
  20216706.238   -26016040.98344 -20207516.89942  20216708.441    20216703.890
  24365325.984    -6383618.06043  -4908755.50842  24365328.519    24365326.386
  21901298.540   -16927478.45943 -12725563.57542  21901299.953    21901297.733
  23864585.365    -5524608.90643  -3802759.93842  23864587.061    23864585.013
  22767470.916   -13767256.04743 -10660719.22642  22767473.045    22767468.534
 03  3 26  2 26 30.0000000  0  9G25G 9G31G 3G14G11G15G23G18
  23833477.580    -7675289.66243  -5926233.54842  23833480.426    23833480.513
  24203378.919    -4354977.36743  -3270561.56742  24203380.967    24203378.310
  22531766.317   -10751539.18843  -8365463.53442  22531767.958    22531766.309
  22661619.158   -14864224.53843 -11524264.84542  22661621.059    22661619.835
  20218332.463   -26007494.85344 -20200857.55442  20218334.665    20218330.159
  24346473.617    -6482687.59843  -4985952.42042  24346476.172    24346474.009
  21916912.564   -16845426.13443 -12661626.70542  21916913.944    21916911.811
  23876037.682    -5464426.78143  -3755864.77642  23876039.347    23876037.182
  22779633.748   -13703339.76443 -10610914.33042  22779635.905    22779631.460
 03  3 26  2 27  0.0000000  0  9G25G 9G31G 3G14G11G15G23G18
  23814840.704    -7773226.49543  -6002547.74842  23814843.494    23814843.499
  24215660.102    -4290438.74643  -3220271.70042  24215662.387    24215659.604
  22537479.113   -10721518.40943  -8342070.73642  22537480.727    22537479.033
  22674553.819   -14796252.44443 -11471299.59542  22674555.710    22674554.513
  20220050.362   -25998466.95444 -20193822.80342  20220052.565    20220048.079
  24327635.099    -6581683.98843  -5063092.34642  24327637.726    24327635.554
  21932590.256   -16763039.11943 -12597429.04242  21932591.670    21932589.589
  23887493.444    -5404226.38643  -3708955.37742  23887495.085    23887492.904
  22791811.541   -13639345.07443 -10561048.34242  22791813.686    22791809.316
 03  3 26  2 27 30.0000000  0  9G25G 9G31G 3G14G11G15G23G18
  23796213.095    -7871114.33843  -6078823.79442  23796215.879    23796215.809
  24228037.295    -4225396.12043  -3169589.10842  24228039.512    24228036.777
  22543289.933   -10690982.65743  -8318276.66842  22543291.562    22543289.789
  22687548.944   -14727962.68243 -11418086.80542  22687550.808    22687549.673
  20221864.083   -25988935.71544 -20186395.84242  20221866.265    20221861.794
  24308815.384    -6680582.05843  -5140155.66542  24308817.976    24308815.745
  21948335.850   -16680295.61943 -12532953.59942  21948337.229    21948335.199
  23898957.127    -5343984.42143  -3662013.58942  23898958.714    23898956.496
  22804008.498   -13575249.24143 -10511103.53342  22804010.673    22804006.362
 03  3 26  2 28  0.0000000  0  9G25G 9G31G 3G14G11G15G23G18
  23777592.785    -7968963.78443  -6155069.91442  23777595.561    23777595.471
  24240507.409    -4159864.54943  -3118525.51542  24240509.513    24240507.150
  22549195.870   -10659946.87943  -8294092.95942  22549197.533    22549195.729
  22700601.507   -14659371.15043 -11364638.87642  22700603.381    22700602.269
  20223770.771   -25978915.71144 -20178588.02842  20223772.982    20223768.514
  24290012.233    -6779392.95343  -5217151.05742  24290014.783    24290012.533
  21964146.571   -16597209.88443 -12468211.47542  21964147.935    21964145.949
  23910426.225    -5283713.70043  -3615049.39142  23910427.882    23910425.599
  22816222.290   -13511065.37643 -10461090.13842  22816224.417    22816220.171
 03  3 26  2 28 30.0000000  0  9G25G 9G31G 3G14G11G15G23G18
  23758981.390    -8066766.79343  -6231279.87342  23758984.095    23758984.002
  24253071.267    -4093840.53243  -3067078.20242  24253073.271    24253071.106
  22555197.652   -10628407.35343  -8269516.72742  22555199.375    22555197.485
  22713711.995   -14590475.12543 -11310953.69242  22713713.869    22713712.802
  20225771.354   -25968402.36044 -20170395.78442  20225773.580    20225769.119
  24271227.108    -6878108.92943  -5294072.49242  24271229.758    24271227.459
  21980023.246   -16513777.66543 -12403199.36442  21980024.592    21980022.613
  23921901.928    -5223408.44643  -3568058.28742  23921903.574    23921901.283
  22828453.858   -13446788.05843 -10411003.92342  22828455.920    22828451.739
 03  3 26  2 29  0.0000000  0  9G25G 9G31G 3G14G11G15G23G18
  23740384.293    -8164494.27243  -6307430.96842  23740387.001    23740386.899
  24265733.496    -4027299.94243  -3015228.36742  24265735.770    24265733.389
  22561299.916   -10596339.81943  -8244529.05242  22561301.671    22561299.739
  22726884.845   -14521251.47543 -11257013.20342  22726886.694    22726885.660
  20227870.565   -25957370.90544 -20161799.82042  20227872.786    20227868.325
  24252465.428    -6976702.03643  -5370898.18442  24252468.064    24252465.687
  21995970.552   -16429974.23743 -12337898.00042  21995971.886    21995969.927
  23933389.217    -5163042.24843  -3521019.68842  23933390.826    23933388.622
  22840708.109   -13382391.23043 -10360824.57642  22840710.153    22840706.038
 03  3 26  2 29 30.0000000  0  9G25G 9G31G 3G14G11G15G23G18
  23721796.060    -8262175.62543  -6383546.12742  23721798.661    23721798.551
  24278487.393    -3960277.16143  -2963002.77842  24278489.615    24278487.270
  22567496.181   -10563778.39843  -8219156.53342  22567497.953    22567496.000
  22740113.390   -14451735.06643 -11202844.59942  22740115.260    22740114.202
  20230061.990   -25945854.97144 -20152826.34142  20230064.191    20230059.719
  24233721.434    -7075202.22043  -5447651.48442  24233724.022    24233721.587
  22011982.114   -16345833.12243 -12272333.51042  22011983.434    22011981.443
  23944882.052    -5102647.17043  -3473958.60242  23944883.683    23944881.565
  22852978.871   -13317907.33743 -10310577.38742  22852980.952    22852976.925
 03  3 26  2 30  0.0000000  0  9G25G 9G31G 3G14G11G15G23G18
  23703215.354    -8359817.46043  -6459630.49342  23703217.894    23703217.699
  24291330.880    -3892783.41043  -2910410.21642  24291333.041    24291331.033
  22573784.287   -10530733.99043  -8193407.66842  22573786.060    22573784.139
  22753395.413   -14381937.66343 -11148457.03542  22753397.293    22753396.253
  20232343.640   -25933864.81544 -20143483.33842  20232345.840    20232341.348
  24214993.709    -7173616.59843  -5524337.90542  24214996.309    24214993.842
  22028055.945   -16261364.44943 -12206513.77342  22028057.297    22028055.335
  23956378.667    -5042231.98643  -3426881.83042  23956380.341    23956378.266
  22865264.595   -13253345.39343 -10260269.37542  22865266.628    22865262.636
 03  3 26  2 30 30.0000000  0  9G25G 9G31G 3G14G11G15G23G18
  23684644.353    -8457408.09243  -6535674.96442  23684646.865    23684646.634
  24304265.304    -3824812.17243  -2857445.58042  24304267.575    24304265.497
  22580165.620   -10497199.80543  -8167277.16042  22580167.353    22580165.487
  22766731.994   -14311853.47043 -11093846.00542  22766733.929    22766732.828
  20234716.910   -25921393.10544 -20133765.10042  20234719.131    20234714.627
  24196284.359    -7271934.36543  -5600949.03242  24196286.958    24196284.506
  22044193.528   -16176560.90243 -12140433.09542  22044194.829    22044192.931
  23967880.862    -4981787.70043  -3379782.38042  23967882.564    23967880.556
  22877566.792   -13188696.62543 -10209893.69342  22877568.810    22877564.906
 03  3 26  2 31  0.0000000  0  9G25G 9G31G 3G14G11G15G23G18
  23666085.298    -8554936.08143  -6611670.62042  23666087.765    23666087.489
  24317292.010    -3756356.37043  -2804103.35542  24317294.196    24317292.200
  22586641.556   -10463168.70643  -8140759.45042  22586643.297    22586641.382
  22780124.287   -14241476.52443 -11039006.84542  22780126.233    22780125.146
  20237183.288   -25908432.14944 -20123665.62942  20237185.510    20237180.987
  24177595.565    -7370144.43443  -5677476.24242  24177598.100    24177595.695
  22060396.343   -16091414.83243 -12074085.51842  22060397.575    22060395.683
  23979390.390    -4921305.03843  -3332653.03242  23979392.121    23979390.046
  22889887.176   -13123952.29843 -10159443.57342  22889889.224    22889885.359
 03  3 26  2 31 30.0000000  0  9G25G 9G31G 3G14G11G15G23G18
  23647535.944    -8652412.85443  -6687626.37242  23647538.485    23647538.057
  24330407.836    -3687432.62843  -2750396.53542  24330409.986    24330407.733
  22593208.956   -10428657.07443  -8113867.29142  22593210.666    22593208.689
  22793569.007   -14170824.13243 -10983953.04942  22793570.951    22793569.842
  20239739.782   -25894997.65444 -20113197.16942  20239741.988    20239737.466
  24158924.832    -7468259.10043  -5753929.08942  24158927.422    24158925.041
  22076661.331   -16005941.99343 -12007483.31642  22076662.519    22076660.607
  23990904.508    -4860798.20243  -3285504.83642  23990906.258    23990904.151
  22902223.038   -13059127.10443 -10108930.42842  22902225.082    22902221.172
 03  3 26  2 32  0.0000000  0  9G25G 9G31G 3G14G11G15G23G18
  23628998.799    -8749825.17043  -6763531.91142  23629001.386    23629000.930
  24343614.317    -3618032.94643  -2696318.85042  24343616.423    24343613.979
  22599869.380   -10393656.61343  -8086594.23742  22599871.062    22599869.051
  22807067.583   -14099888.84143 -10928678.82242  22807069.523    22807068.391
  20242388.076   -25881080.78344 -20102352.83342  20242390.288    20242385.734
  24140274.659    -7566266.00343  -5830297.97342  24140277.219    24140274.869
  22092990.191   -15920133.46443 -11940619.53442  22092991.393    22092989.422
  24002425.204    -4800256.58543  -3238329.53742  24002427.025    24002424.840
  22914576.260   -12994210.66443 -10058346.18142  22914578.301    22914574.402
 03  3 26  2 32 30.0000000  0  9G25G 9G31G 3G14G11G15G23G18
  23610473.809    -8847173.82943  -6839387.83742  23610476.446    23610475.874
  24356910.391    -3548162.48643  -2641874.32042  24356912.428    24356909.910
  22606621.892   -10358172.29843  -8058944.14042  22606623.560    22606621.524
  22820618.944   -14028676.40743 -10873188.65542  22820620.848    22820619.681
  20245127.269   -25866686.24444 -20091136.28942  20245129.476    20245124.877
  24121644.811    -7664166.19443  -5906583.68642  24121647.324    24121644.977
  22109382.057   -15833993.72643 -11873497.66942  22109383.273    22109381.257
  24013952.034    -4739683.09243  -3191129.40442  24013953.813    24013951.643
  22926946.247   -12929206.17743 -10007693.32142  22926948.305    22926944.352
 03  3 26  2 33  0.0000000  0  8G25G31G 3G14G11G15G23G18
  23591963.801    -8944443.93943  -6915182.57042  23591966.410    23591965.787
  22613468.341   -10322194.13943  -8030909.23342  22613470.019    22613467.988
  22834224.692   -13957177.76243 -10817475.46042  22834226.638    22834225.433
  20247959.428   -25851803.12544 -20079539.03142  20247961.623    20247957.006
  24103037.944    -7761945.44143  -5982775.16242  24103040.468    24103038.051
  22125838.933   -15747512.09343 -11806109.39342  22125840.177    22125838.185
  24025487.261    -4679065.28743  -3143894.74342  24025488.967    24025486.845
  22939335.301   -12864101.61543  -9956962.48142  22939337.322    22939333.378
 03  3 26  2 33 30.0000000  0  8G25G31G 3G14G11G15G23G18
  23573467.231    -9041643.65543  -6990922.46542  23573469.819    23573469.072
  22620406.239   -10285735.54543  -8002499.96542  22620407.848    22620405.847
  22847882.164   -13885407.25343 -10761550.42442  22847884.124    22847882.960
  20250882.038   -25836444.56444 -20067571.30042  20250884.227    20250879.614
  24084452.313    -7859613.05943  -6058879.66242  24084454.835    24084452.445
  22142358.419   -15660701.31643 -11738464.65142  22142359.683    22142357.744
  24037028.750    -4618414.30043  -3096634.23242  24037030.444    24037028.451
  22951741.199   -12798908.37343  -9906162.54142  22951743.253    22951739.300
 03  3 26  2 34  0.0000000  0  8G25G31G 3G14G11G15G23G18
  23554986.144    -9138762.27643  -7066599.17042  23554988.658    23554987.836
  22627436.739   -10248790.24643  -7973711.44242  22627438.338    22627436.417
  22861592.460   -13813359.17243 -10705409.09742  22861594.423    22861593.285
  20253896.513   -25820603.35744 -20055227.48042  20253898.696    20253894.054
  24065889.912    -7957158.66843  -6134889.09342  24065892.470    24065890.035
  22158941.944   -15573554.40243 -11670557.96742  22158943.169    22158941.264
  24048578.162    -4557721.38343  -3049341.03742  24048579.869    24048577.952
  22964165.594   -12733618.10143  -9855286.99342  22964167.647    22964163.703
 03  3 26  2 34 30.0000000  0  8G25G31G 3G14G11G15G23G18
  23536518.727    -9235808.74943  -7142219.65342  23536521.271    23536520.323
  22634557.252   -10211371.85143  -7944554.27242  22634558.852    22634556.971
  22875352.760   -13741048.29943 -10649062.99442  22875354.711    22875353.602
  20257000.295   -25804292.74844 -20042517.89442  20257002.508    20256997.821
  24047348.983    -8054591.58943  -6210810.73042  24047351.551    24047349.017
  22175586.934   -15486084.43543 -11602399.56042  22175588.125    22175586.249
  24060133.421    -4496997.89443  -3002024.02242  24060135.147    24060133.270
  22976606.126   -12668242.80643  -9804345.20842  22976608.157    22976604.240
 03  3 26  2 35  0.0000000  0  8G25G31G 3G14G11G15G23G18
  23518067.421    -9332770.49143  -7217774.12342  23518069.973    23518068.925
  22641769.159   -10173472.91043  -7915022.64242  22641770.860    22641768.963
  22889164.368   -13668467.90643 -10592506.88242  22889166.338    22889165.231
  20260194.959   -25787504.44844 -20029436.08342  20260197.185    20260192.514
  24028831.685    -8151900.28943  -6286635.56742  24028834.197    24028831.610
  22192294.948   -15398283.14643 -11533982.98342  22192296.200    22192294.231
  24071696.385    -4436234.05243  -2954675.56342  24071698.147    24071696.307
  22989064.607   -12602772.81943  -9753329.63842  22989066.652    22989062.789
 03  3 26  2 35 30.0000000  0  8G25G31G 3G14G11G15G23G18
  23499633.659    -9429640.06543  -7293256.79642  23499636.155    23499635.055
  22649073.056   -10135090.76343  -7885114.48042  22649074.775    22649072.863
  22903027.666   -13595615.95643 -10535739.16042  22903029.594    22903028.515
  20263481.121   -25770235.43044 -20015979.69042  20263483.340    20263478.675
  24010339.320    -8249077.76343  -6362358.16442  24010341.814    24010339.169
  22209066.600   -15310147.46343 -11465305.83642  22209067.878    22209065.842
  24083268.026    -4375424.82343  -2907291.74542  24083269.816    24083267.919
  23001542.032   -12537203.57843  -9702236.71442  23001544.071    23001540.188
 03  3 26  2 36  0.0000000  0  8G25G31G 3G14G11G15G23G18
  23481212.717    -9526442.26243  -7368686.95342  23481215.215    23481214.034
  22656463.196   -10096255.13743  -7854852.94942  22656464.970    22656463.010
  22916936.763   -13522523.20543 -10478783.79242  22916938.662    22916937.625
  20266853.243   -25752514.83244 -20002171.41642  20266855.444    20266850.775
  23991867.091    -8346149.66943  -6437998.52742  23991869.546    23991866.952
  22225896.327   -15221706.41943 -11396390.74342  22225897.671    22225895.600
  24094843.082    -4314597.52543  -2859893.83842  24094844.877    24094842.947
  23014033.110   -12471562.57343  -9651087.87942  23014035.116    23014031.180
 03  3 26  2 36 30.0000000  0  8G25G31G 3G14G11G15G23G18
  23462808.063    -9623158.82643  -7444050.38242  23462810.579    23462809.359
  22663942.232   -10056952.55843  -7824227.56742  22663943.987    22663942.037
  22930894.072   -13449176.97143 -10421630.91842  22930895.989    22930894.976
  20270313.970   -25734328.50544 -19988000.23642  20270316.165    20270311.504
  23973418.379    -8443098.40243  -6513542.91742  23973420.770    23973418.103
  22242786.838   -15132945.95243 -11327226.75642  22242788.209    22242786.094
  24106424.609    -4253736.30243  -2812469.50742  24106426.390    24106424.487
  23026540.691   -12405834.55543  -9599871.23342  23026542.716    23026538.756
 03  3 26  2 37  0.0000000  0  8G25G31G 3G14G11G15G23G18
  23444420.526    -9719785.74743  -7519343.98342  23444423.033    23444421.748
  22671509.953   -10017183.80943  -7793238.93042  22671511.731    22671509.764
  22944899.465   -13375578.46943 -10364281.47042  22944901.342    22944900.340
  20273863.316   -25715676.45644 -19973466.15742  20273865.510    20273860.874
  23954993.788    -8539920.11343  -6588988.35042  23954996.177    23954993.436
  22259738.191   -15043865.77343 -11257813.63742  22259739.614    22259737.500
  24118012.920    -4192839.39243  -2765017.37042  24118014.694    24118012.791
  23039065.173   -12340017.78043  -9548585.43442  23039067.181    23039063.186
 03  3 26  2 37 30.0000000  0  8G25G31G 3G14G11G15G23G18
  23426050.350    -9816321.20843  -7594566.30242  23426052.858    23426051.508
  22679165.861    -9976951.97143  -7761889.44842  22679167.647    22679165.622
  22958952.032   -13301731.92243 -10306738.74042  22958953.905    22958952.913
  20277500.798   -25696561.10544 -19958571.06142  20277503.004    20277498.383
  23936593.599    -8636613.50943  -6664333.78942  23936595.986    23936593.162
  22276749.873   -14954468.61243 -11188153.52742  22276751.307    22276749.231
  24129607.849    -4131907.58243  -2717538.03342  24129609.594    24129607.679
  23051606.243   -12274113.47343  -9497231.42442  23051608.300    23051604.407
 03  3 26  2 38  0.0000000  0  8G25G31G 3G14G11G15G23G18
  23407699.761    -9912753.80943  -7669708.48042  23407702.247    23407700.891
  22686911.007    -9936250.97643  -7730174.38342  22686912.824    22686910.793
  22973052.750   -13227632.00143 -10248998.57042  22973054.690    22973053.709
  20281227.699   -25676975.93444 -19943309.87642  20281229.913    20281225.295
  23918219.763    -8733168.46243  -6739571.37142  23918222.150    23918219.261
  22293823.201   -14864747.60243 -11118241.06542  22293824.625    22293822.590
  24141211.110    -4070932.12943  -2670024.69742  24141212.808    24141210.873
  23064165.578   -12208113.32343  -9445802.73442  23064167.691    23064163.790
 03  3 26  2 38 30.0000000  0  8G25G31G 3G14G11G15G23G18
  23389370.570   -10009073.97043  -7744763.01842  23389373.049    23389371.602
  22694746.338    -9895076.12143  -7698090.07342  22694748.130    22694746.164
  22987202.489   -13153274.73643 -10191057.87942  22987204.406    22987203.398
  20285045.009   -25656915.70244 -19927678.51442  20285047.239    20285042.604
  23899874.009    -8829575.73443  -6814693.87642  23899876.438    23899873.461
  22310959.201   -14774697.39143 -11048072.08642  22310960.618    22310958.632
  24152824.017    -4009905.98743  -2622471.86242  24152825.660    24152823.723
  23076744.467   -12142010.69743  -9394294.18942  23076746.552    23076742.726
 03  3 26  2 39  0.0000000  0  8G25G31G 3G14G11G15G23G18
  23371061.272   -10105289.46643  -7819735.99442  23371063.784    23371062.295
  22702669.489    -9853439.98543  -7665646.33342  22702671.249    22702669.261
  23001398.643   -13078673.18243 -10132926.81342  23001400.604    23001399.605
  20288950.452   -25636392.30544 -19911686.24442  20288952.682    20288948.050
  23881554.786    -8925843.70543  -6889707.83542  23881557.234    23881554.122
  22328155.700   -14684329.61343 -10977655.65242  22328157.040    22328155.076
  24164444.600    -3948839.20043  -2574887.33742  24164446.201    24164444.284
  23089340.908   -12075815.82543  -9342713.76642  23089343.025    23089339.172
 03  3 26  2 39 30.0000000  0  8G25G31G 3G14G11G15G23G18
  23352768.676   -10201417.33343  -7894640.68042  23352771.196    23352769.596
  22710676.200    -9811364.53343  -7632860.26542  22710677.989    22710675.969
  23015636.999   -13003850.21443 -10074623.21942  23015638.937    23015637.922
  20292940.045   -25615426.88644 -19895349.54042  20292942.267    20292937.607
  23863258.765    -9021989.82543  -6964626.84142  23863261.159    23863258.033
  22345408.547   -14593665.46043 -10907008.26842  22345409.925    22345407.928
  24176069.202    -3887750.99143  -2527286.13042  24176070.805    24176068.953
  23101951.114   -12009548.43143  -9291076.81342  23101953.291    23101949.478
 03  3 26  2 40  0.0000000  0  8G25G31G 3G14G11G15G23G18
  23334496.290   -10297439.25743  -7969462.81942  23334498.797    23334497.067
  22718769.008    -9768836.66843  -7599721.65842  22718770.762    22718768.762
  23029919.858   -12928793.33343 -10016137.37142  23029921.788    23029920.737
  20297016.354   -25594005.73144 -19878657.71942  20297018.585    20297013.906
  23844989.277    -9117996.52943  -7039437.19942  23844991.632    23844988.484
  22362720.339   -14502691.38143 -10836119.38242  22362721.723    22362719.754
  24187700.896    -3826625.82843  -2479656.13442  24187702.475    24187700.786
  23114578.056   -11943193.24243  -9239371.45742  23114580.243    23114576.479
 03  3 26  2 40 30.0000000  0  8G25G31G 3G14G11G15G23G18
  23316247.778   -10393335.54143  -8044187.03342  23316250.292    23316248.483
  22726950.745    -9725841.56043  -7566218.97942  22726952.482    22726950.446
  23044249.903   -12853488.32043  -9957458.16442  23044251.890    23044250.810
  20301182.316   -25572113.51444 -19861598.83542  20301184.546    20301179.850
  23826750.019    -9213844.41543  -7114123.78042  23826752.368    23826749.140
  22380094.072   -14411391.79543 -10764976.86142  22380095.487    22380093.519
  24199343.083    -3765446.24143  -2431983.73042  24199344.602    24199342.848
  23127224.993   -11876733.06043  -9187584.29542  23127227.157    23127223.479
 03  3 26  2 41  0.0000000  0  8G25G31G 3G14G11G15G23G18
  23298023.695   -10489102.79143  -8118810.70342  23298026.349    23298024.389
  22735221.007    -9682381.05443  -7532353.64142  22735222.746    22735220.712
  23058626.631   -12777937.94143  -9898587.76942  23058628.630    23058627.640
  20305437.664   -25549751.46244 -19844173.84242  20305439.895    20305435.186
  23808541.328    -9309531.18143  -7188684.81942  23808543.732    23808540.483
  22397529.579   -14319767.61943 -10693581.40242  22397530.988    22397529.037
  24210995.685    -3704211.61743  -2384268.44442  24210997.233    24210995.496
  23139891.878   -11810168.08143  -9135715.46942  23139894.093    23139890.429
 03  3 26  2 41 30.0000000  0  8G25G31G 3G14G11G15G23G18
  23279821.963   -10584752.69343  -8193342.92942  23279824.637    23279822.612
  22743576.637    -9638471.73843  -7498138.58142  22743578.385    22743576.331
  23073046.865   -12702158.88143  -9839539.16842  23073048.819    23073047.956
  20309779.388   -25526935.29844 -19826394.99642  20309781.648    20309776.924
  23790361.099    -9405068.37143  -7263129.27542  23790363.527    23790360.283
  22415023.809   -14227834.70243 -10621945.36642  22415025.206    22415023.291
  24222656.091    -3642935.97143  -2336521.20042  24222657.591    24222655.877
  23152576.136   -11743512.01843  -9083775.67542  23152578.324    23152574.682
 03  3 26  2 42  0.0000000  0  8G25G31G 3G14G11G15G23G18
  23261639.782   -10680299.88543  -8267795.11142  23261642.487    23261640.411
  22752013.905    -9594133.38043  -7463589.21942  22752015.659    22752013.544
  23087506.680   -12626172.15043  -9780328.75442  23087508.597    23087507.778
  20314203.884   -25503684.29944 -19808277.32042  20314206.111    20314201.409
  23772206.386    -9500471.57143  -7337469.33342  23772208.839    23772205.566
  22432573.216   -14135612.07543 -10550083.59442  22432574.605    22432572.725
  24234320.930    -3581636.37343  -2288755.29542  24234322.491    24234320.828
  23165274.425   -11676782.19943  -9031778.40342  23165276.591    23165272.975
 03  3 26  2 42 30.0000000  0  8G25G31G 3G14G11G15G23G18
  23243481.346   -10775722.34243  -8342150.09842  23243484.008    23243481.951
  22760535.992    -9549349.16343  -7428692.43142  22760537.755    22760535.627
  23102009.170   -12549961.35143  -9720943.72642  23102011.016    23102010.268
  20318714.479   -25479980.91644 -19789807.13642  20318716.682    20318712.002
  23754081.267    -9595719.27143  -7411688.21842  23754083.713    23754080.434
  22450181.057   -14043082.24843 -10477982.44242  22450182.438    22450180.594
  24245994.154    -3520293.24043  -2240955.48142  24245995.708    24245994.015
  23177990.423   -11609959.53043  -8979708.78642  23177992.584    23177988.955
 03  3 26  2 43  0.0000000  0  8G25G31G 3G14G11G15G23G18
  23225343.876   -10871034.35443  -8416419.02542  23225346.546    23225344.506
  22769139.265    -9504138.64943  -7393463.46942  22769141.004    22769138.837
  23116550.491   -12473546.50543  -9661399.71242  23116552.299    23116551.578
  20323307.520   -25455844.30644 -19770999.37042  20323309.723    20323305.020
  23735982.786    -9690826.53143  -7485797.64542  23735985.372    23735982.005
  22467843.755   -13950264.06543 -10405656.59642  22467845.169    22467843.364
  24257672.501    -3458923.47543  -2193134.89642  24257673.876    24257672.206
  23190720.637   -11543061.83643  -8927580.69742  23190722.818    23190719.165
 03  3 26  2 43 30.0000000  0  8G25G31G 3G14G11G15G23G18
  23207232.295   -10966210.38943  -8490582.01342  23207234.972    23207232.952
  22777827.573    -9458481.29543  -7357886.32242  22777829.313    22777827.117
  23131134.446   -12396907.65643  -9601681.15442  23131136.234    23131135.510
  20327987.109   -25431252.87944 -19751837.20242  20327989.308    20327984.590
  23717915.819    -9785768.57343  -7559778.34642  23717918.394    23717915.038
  22485565.417   -13857136.17143 -10333089.41942  22485566.865    22485565.080
  24269360.378    -3397503.90643  -2145275.49942  24269361.678    24269359.995
  23203469.527   -11476066.02843  -8875376.17242  23203471.639    23203467.975
 03  3 26  2 44  0.0000000  0  8G25G31G 3G14G11G15G23G18
  23189145.506   -11061256.10543  -8564643.44642  23189148.242    23189146.165
  22786598.866    -9412387.81543  -7321969.31842  22786600.601    22786598.435
  23145758.860   -12320056.32943  -9541797.02942  23145760.614    23145759.913
  20332751.330   -25406216.69344 -19732328.46742  20332753.552    20332748.798
  23699879.128    -9880551.35243  -7633634.93442  23699881.709    23699878.411
  22503344.118   -13763708.56143 -10260288.69542  22503345.624    22503343.782
  24281056.061    -3336042.57643  -2097383.56442  24281057.461    24281055.675
  23216235.498   -11408980.40443  -8823101.65442  23216237.544    23216233.889
 03  3 26  2 44 30.0000000  0  8G25G31G 3G14G11G15G23G18
  23171084.194   -11156168.01443  -8638600.63042  23171086.873    23171084.862
  22795452.855    -9365860.02543  -7285713.91042  22795454.553    22795452.390
  23160423.200   -12242994.79143  -9481749.09042  23160425.001    23160424.260
  20337599.929   -25380737.01544 -19712474.15042  20337602.163    20337597.416
  23681873.299    -9975171.88243  -7707365.10842  23681875.878    23681872.656
  22521179.657   -13669982.18243 -10187255.15942  22521181.188    22521179.305
  24292759.839    -3274538.54543  -2049458.36542  24292761.324    24292759.544
  23229018.676   -11341804.22743  -8770756.58142  23229020.668    23229017.079
 03  3 26  2 45  0.0000000  0  8G25G31G 3G14G11G15G23G18
  23153045.391   -11250962.18643  -8712466.07642  23153048.007    23153045.989
  22804385.478    -9318919.02943  -7249136.52542  22804387.159    22804385.034
  23175123.430   -12165744.94343  -9421554.42942  23175125.198    23175124.457
  20342529.049   -25354834.29444 -19692290.19442  20342531.266    20342526.524
  23663895.221   -10069646.85043  -7780981.86642  23663897.756    23663894.592
  22539068.187   -13575977.44543 -10114004.71942  22539069.722    22539067.782
  24304468.281    -3213010.17043  -2001514.18642  24304469.861    24304467.938
  23241815.455   -11274556.46943  -8718355.72442  23241817.477    23241813.846
 03  3 26  2 45 30.0000000  0  8G25G31G 3G14G11G15G23G18
  23135035.541   -11345604.09543  -8786212.87942  23135038.151    23135036.092
  22813402.265    -9271535.67543  -7212214.45042  22813403.932    22813401.836
  23189864.938   -12088277.97743  -9361190.59742  23189866.716    23189865.993
  20347544.359   -25328478.64644 -19671753.30642  20347546.565    20347541.822
  23645951.317   -10163942.44843  -7854458.86442  23645953.821    23645950.646
  22557015.353   -13481664.43343 -10040514.06742  22557016.948    22557014.983
  24316187.486    -3151425.44343  -1953526.09342  24316189.062    24316187.019
  23254631.937   -11207205.37743  -8665874.34042  23254634.002    23254630.301
 03  3 26  2 46  0.0000000  0  8G25G31G 3G14G11G15G23G18
  23117052.967   -11440102.77043  -8859848.08742  23117055.545    23117053.487
  22822500.467    -9223724.12843  -7174958.72842  22822502.145    22822500.104
  23204645.013   -12010608.65043  -9300669.06642  23204646.767    23204646.095
  20352643.266   -25301683.53744 -19650873.97842  20352645.486    20352640.733
  23628039.780   -10258068.18143  -7927803.51942  23628042.268    23628038.968
  22575018.691   -13387056.34543  -9966793.48542  22575020.289    22575018.280
  24327915.296    -3089795.89243  -1905503.06742  24327916.839    24327914.659
  23267465.879   -11139762.83243  -8613321.69842  23267467.936    23267464.194
 03  3 26  2 46 30.0000000  0  8G25G31G 3G14G11G15G23G18
  23099097.831   -11534457.29243  -8933370.95942  23099100.428    23099098.292
  22831679.425    -9175488.36443  -7137372.45342  22831681.044    22831679.071
  23219462.730   -11932741.30243  -9239993.24042  23219464.476    23219463.826
  20357825.182   -25274452.39244 -19629654.87942  20357827.390    20357822.608
  23610160.775   -10352022.98143  -8001014.97542  23610163.231    23610159.945
  22593077.559   -13292156.38643  -9892845.48142  22593079.192    22593077.178
  24339651.339    -3028122.57443  -1857445.94142  24339652.869    24339650.690
  23280316.994   -11072230.13743  -8560698.80242  23280319.018    23280315.200
 03  3 26  2 47  0.0000000  0  8G25G31G 3G14G11G15G23G18
  23081174.695   -11628643.79143  -9006762.91242  23081177.297    23081175.045
  22840942.628    -9126810.01843  -7099441.29542  22840944.251    22840942.286
  23234321.401   -11854658.37543  -9179149.41742  23234323.192    23234322.562
  20363093.717   -25246766.01644 -19608081.05842  20363095.899    20363091.112
  23592318.588   -10445783.99043  -8074075.44642  23592321.087    23592317.755
  22611195.593   -13196945.40843  -9818655.11242  22611197.286    22611195.198
  24351399.635    -2966384.49643  -1809338.35042  24351401.234    24351398.891
  23293189.158   -11004586.84543  -8507989.73842  23293191.125    23293187.241
 03  3 26  2 47 30.0000000  0  8G25G31G 3G14G11G15G23G18
  23063279.547   -11722682.78943  -9080039.93242  23063282.203    23063279.853
  22850285.070    -9077715.08443  -7061185.53642  22850286.705    22850284.814
  23249216.142   -11776386.17543  -9118158.12842  23249217.889    23249217.268
  20368444.047   -25218649.72044 -19586172.23342  20368446.226    20368441.443
  23574509.301   -10539372.41143  -8147001.44742  23574511.739    23574508.382
  22629368.005   -13101448.68143  -9744242.08342  22629369.730    22629367.599
  24363155.908    -2904604.73843  -1761198.28442  24363157.379    24363155.031
  23306077.926   -10936856.32443  -8455212.69442  23306079.874    23306075.918
 03  3 26  2 48  0.0000000  0  8G25G31G 3G14G11G15G23G18
  23045412.001   -11816577.13043  -9153204.22742  23045414.652    23045412.205
  22859705.181    -9028211.83043  -7022611.59842  22859706.852    22859705.019
  23264145.213   -11697933.34443  -9057026.08142  23264146.963    23264146.338
  20373874.811   -25190110.84044 -19563934.11942  20373876.977    20373872.190
  23556732.170   -10632791.83043  -8219795.74742  23556734.585    23556731.234
  22647593.462   -13005673.50943  -9669612.08942  22647595.165    22647592.994
  24374919.127    -2842788.64143  -1713029.89442  24374920.548    24374918.323
  23318982.130   -10869044.07143  -8402371.97042  23318984.170    23318980.176
 03  3 26  2 48 30.0000000  0  8G25G31G 3G14G11G15G23G18
  23027572.800   -11910322.34243  -9226252.31942  23027575.442    23027572.920
  22869202.885    -8978300.69443  -6983719.82742  22869204.618    22869202.825
  23279108.489   -11619300.80543  -8995753.99242  23279110.200    23279109.581
  20379385.983   -25161149.27944 -19541366.64742  20379388.181    20379383.374
  23538987.999   -10726038.05443  -8292455.10742  23538990.385    23538987.036
  22665871.914   -12909619.65243  -9594764.92742  22665873.625    22665871.437
  24386689.649    -2780934.01543  -1664831.47342  24386691.188    24386688.897
  23331902.294   -10801148.17443  -8349466.07642  23331904.315    23331900.320
 03  3 26  2 49  0.0000000  0  8G25G31G 3G14G11G15G23G18
  23009765.425   -12003900.47143  -9299170.23442  23009768.031    23009765.414
  22878780.781    -8927968.83843  -6944500.22842  22878782.471    22878780.685
  23294108.241   -11540476.49243  -8934332.48042  23294109.909    23294109.355
  20384980.161   -25131751.61444 -19518459.35942  20384982.341    20384977.542
  23521280.103   -10819093.43643  -8364965.75442  23521282.523    23521279.170
  22684206.000   -12813273.54043  -9519690.04642  22684207.679    22684205.476
  24398470.435    -2719025.11143  -1616590.75842  24398472.051    24398469.695
  23344841.273   -10733153.35843  -8296483.08342  23344843.337    23344839.245
 03  3 26  2 49 30.0000000  0  8G25G31G 3G14G11G15G23G18
  22991984.324   -12097340.08343  -9371980.18942  22991986.966    22991984.350
  22888432.134    -8877250.66243  -6904979.59942  22888433.872    22888432.028
  23309137.910   -11461495.10843  -8872788.56142  23309139.656    23309139.026
  20390650.886   -25101951.58044 -19495238.53442  20390653.081    20390648.281
  23503602.924   -10911987.41443  -8437350.64642  23503605.383    23503602.003
  22702589.292   -12716668.72643  -9444413.57642  22702590.941    22702588.742
  24410255.457    -2657093.30143  -1568332.17742  24410257.151    24410254.941
  23357792.988   -10665091.49143  -8243447.86942  23357795.058    23357790.903
 03  3 26  2 50  0.0000000  0  8G25G31G 3G14G11G15G23G18
  22974237.192   -12190601.33943  -9444651.19042  22974239.792    22974237.182
  22898163.615    -8826111.33843  -6865130.79542  22898165.380    22898163.515
  23324204.056   -11382322.07343  -8811095.32142  23324205.830    23324205.167
  20396405.007   -25071713.40444 -19471676.30342  20396407.206    20396402.412
  23485964.099   -11004680.36943  -8509578.88142  23485966.485    23485963.086
  22721028.617   -12619769.50343  -9368907.69642  22721030.251    22721028.063
  24422051.917    -2595100.94243  -1520026.42042  24422053.756    24422051.586
  23370764.598   -10596925.01743  -8190331.15242  23370766.679    23370762.504
 03  3 26  2 50 30.0000000  0  8G25G31G 3G14G11G15G23G18
  22956520.871   -12283700.71743  -9517196.02542  22956523.388    22956520.863
  22907971.071    -8774572.71943  -6824970.85042  22907972.872    22907970.984
  23339302.439   -11302979.65843  -8749270.07642  23339304.230    23339303.521
  20402238.457   -25041058.33944 -19447789.22042  20402240.661    20402235.856
  23468360.258   -11097189.25343  -8581663.69942  23468362.607    23468359.152
  22739520.013   -12522596.58243  -9293188.54942  22739521.659    22739519.464
  24433856.438    -2533066.88243  -1471688.17842  24433858.284    24433856.318
  23383752.462   -10528673.18543  -8137147.90242  23383754.572    23383750.404
 03  3 26  2 51  0.0000000  0  8G25G31G 3G14G11G15G23G18
  22938835.473   -12376637.70143  -9589614.34142  22938837.948    22938835.427
  22917853.645    -8722639.52743  -6784503.43442  22917855.468    22917853.597
  23354432.045   -11223473.33343  -8687317.11942  23354433.859    23354433.086
  20408150.508   -25009990.24244 -19423580.29942  20408152.714    20408147.894
  23450791.447   -11189513.88343  -8653604.91642  23450793.830    23450790.284
  22758062.768   -12425153.96443  -9217259.24342  22758064.339    22758062.162
  24445668.688    -2470993.03743  -1423318.92542  24445670.477    24445668.722
  23396756.169   -10460338.39143  -8083900.02142  23396758.285    23396754.098
 03  3 26  2 51 30.0000000  0  8G25G31G 3G14G11G15G23G18
  22921186.724   -12469381.82843  -9661882.37642  22921189.184    22921186.717
  22927816.144    -8670286.55443  -6743708.92542  22927817.960    22927816.052
  23369597.562   -11143778.06243  -8625216.93442  23369599.459    23369598.586
  20414146.109   -24978483.24344 -19399029.37842  20414148.297    20414143.455
  23433263.408   -11281624.31243  -8725379.22242  23433265.814    23433262.194
  22776661.736   -12327415.84443  -9141099.66842  22776663.321    22776661.118
  24457493.751    -2408851.34243  -1374896.79942  24457495.670    24457493.841
  23409780.997   -10391892.64943  -8030565.67142  23409783.122    23409778.920
 03  3 26  2 52  0.0000000  0  8G25G31G 3G14G11G15G23G18
  22903572.470   -12561944.73743  -9734009.18642  22903574.924    22903572.489
  22937855.201    -8617531.30143  -6702600.94542  22937856.994    22937855.018
  23384795.667   -11063911.59243  -8562983.33242  23384797.582    23384796.712
  20420221.986   -24946554.20244 -19374149.59142  20420224.195    20420219.314
  23415773.634   -11373533.38443  -8796996.60342  23415776.108    23415772.463
  22795313.750   -12229398.95843  -9064722.88242  22795315.333    22795313.155
  24469329.029    -2346656.29643  -1326433.11042  24469330.760    24469329.063
  23422824.061   -10323351.24343  -7977156.79442  23422826.189    23422821.913
 03  3 26  2 52 30.0000000  0  8G25G31G 3G14G11G15G23G18
  22885990.246   -12654339.21043  -9806004.75742  22885992.687    22885990.308
  22947967.425    -8564391.65843  -6661193.43742  22947969.161    22947967.136
  23400022.829   -10983892.31643  -8500630.67542  23400024.728    23400023.844
  20426374.955   -24914220.21544 -19348954.26442  20426377.144    20426372.247
  23398319.757   -11465253.75543  -8868466.95942  23398322.255    23398318.586
  22814015.567   -12131120.18243  -8988142.01342  22814017.166    22814015.068
  24481171.619    -2284422.86143  -1277939.52642  24481173.322    24481171.495
  23435882.566   -10254728.97443  -7923684.89142  23435884.666    23435880.229
 03  3 26  2 53  0.0000000  0  8G25G31G 3G14G11G15G23G18
  22868442.971   -12746550.38143  -9877857.49342  22868445.360    22868443.025
  22958154.674    -8510857.87543  -6619478.82142  22958156.382    22958154.326
  23415280.844   -10903710.77343  -8438151.56142  23415282.800    23415281.860
  20432606.946   -24881470.73344 -19323435.17842  20432609.163    20432604.282
  23380904.559   -11556770.91743  -8939778.95342  23380907.031    23380903.390
  22832769.229   -12032568.81343  -8911348.74542  22832770.872    22832768.732
  24493023.881    -2222138.32743  -1229406.10042  24493025.652    24493023.904
  23448958.744   -10186013.60743  -7870140.44842  23448960.887    23448956.243
 03  3 26  2 53 30.0000000  0  8G25G31G 3G14G11G15G23G18
  22850928.937   -12838586.50843  -9949573.83742  22850931.361    22850929.026
  22968414.142    -8456944.08643  -6577468.08142  22968415.853    22968413.762
  23430566.987   -10823381.60043  -8375557.41342  23430568.983    23430567.984
  20438915.452   -24848319.21644 -19297602.81842  20438917.652    20438912.791
  23363526.331   -11648093.85143  -9010939.59842  23363528.749    23363525.156
  22851572.297   -11933758.01843  -8834353.32942  22851573.938    22851571.819
  24504883.789    -2159813.85043  -1180841.57342  24504885.538    24504883.846
  23462050.466   -10117216.59043  -7816532.37942  23462052.668    23462047.835
 03  3 26  2 54  0.0000000  0  8G25G31G 3G14G11G15G23G18
  22833448.824   -12930444.65643 -10021151.50342  22833451.219    22833448.891
  22978745.463    -8402652.63843  -6535163.08542  22978747.187    22978745.120
  23445880.766   -10742907.52843  -8312850.36242  23445882.783    23445881.734
  20445300.157   -24814767.18944 -19271458.37142  20445302.369    20445297.530
  23346185.510   -11739220.15243  -9081947.00842  23346187.940    23346184.315
  22870424.419   -11834689.37143  -8757156.98042  22870426.064    22870423.925
  24516751.693    -2097448.56943  -1132245.23842  24516753.441    24516751.633
  23475157.787   -10048337.40643  -7762860.29142  23475159.993    23475155.021
 03  3 26  2 54 30.0000000  0  8G25G31G 3G14G11G15G23G18
  22816005.770   -13022107.95943 -10092577.34442  22816008.152    22816005.815
  22989150.782    -8347972.10543  -6492554.88542  22989152.522    22989150.453
  23461224.254   -10662277.45143  -8250021.73642  23461226.198    23461225.150
  20451763.445   -24780802.32344 -19244992.22942  20451765.641    20451760.840
  23328885.223   -11830133.31443  -9152788.34142  23328887.671    23328884.031
  22889328.034   -11735350.57043  -8679750.13842  22889329.645    22889327.481
  24528630.011    -2035028.17743  -1083605.95542  24528631.701    24528629.883
  23488283.390    -9979362.24043  -7709113.42842  23488285.587    23488280.509
 03  3 26  2 55  0.0000000  0  8G25G31G 3G14G11G15G23G18
  22798599.495   -13113577.98243 -10163852.56842  22798601.898    22798599.525
  22999628.867    -8292909.33143  -6449648.84042  22999630.588    22999628.518
  23476596.018   -10581498.30643  -8187076.94942  23476597.972    23476596.999
  20458304.073   -24746430.89044 -19218209.28042  20458306.267    20458301.493
  23311625.114   -11920835.31243  -9223465.13542  23311627.571    23311623.924
  22908281.854   -11635747.55543  -8602137.40842  22908283.456    22908281.313
  24540518.124    -1972556.49343  -1034926.72542  24540519.850    24540517.792
  23501426.401    -9910295.07843  -7655294.85042  23501428.635    23501423.447
 03  3 26  2 55 30.0000000  0  8G25G31G 3G14G11G15G23G18
  22781227.716   -13204866.79043 -10234986.59142  22781230.099    22781227.768
  23010176.288    -8237482.06443  -6406458.77642  23010178.039    23010175.968
  23491992.670   -10500588.25843  -8124030.16742  23491994.581    23491993.752
  20464918.879   -24711669.73744 -19191122.65042  20464921.066    20464916.307
  23294402.770   -12011338.93843  -9293987.35242  23294405.188    23294401.519
  22927282.745   -11535897.28743  -8524332.02042  22927284.319    22927282.209
  24552413.211    -1910048.31343   -986219.04842  24552414.931    24552412.630
  23514583.985    -9841151.05443  -7601416.39142  23514586.241    23514581.010
 03  3 26  2 56  0.0000000  0  8G25G31G 3G14G11G15G23G18
  22763898.739   -13295930.82643 -10305945.47542  22763901.111    22763898.735
  23020800.400    -8181652.03543  -6362954.87342  23020802.130    23020800.118
  23507421.474   -10419509.38943  -8060851.82442  23507423.386    23507422.552
  20471615.230   -24676480.02244 -19163702.07942  20471617.411    20471612.666
  23277226.400   -12101600.80243  -9364321.18842  23277228.802    23277225.142
  22946338.056   -11435760.67643  -8446303.50042  22946339.676    22946337.572
  24564323.028    -1847462.34243   -937450.74542  24564324.738    24564322.415
  23527764.022    -9771889.20843  -7547446.12142  23527766.205    23527761.175
 03  3 26  2 56 30.0000000  0  8G25G31G 3G14G11G15G23G18
  22746607.095   -13386798.52643 -10376751.37442  22746609.468    22746607.064
  23031494.744    -8125453.01543  -6319163.43442  23031496.474    23031494.447
  23522876.008   -10338295.59343  -7997568.36342  23522877.871    23522877.056
  20478386.892   -24640894.67944 -19135973.22342  20478389.047    20478384.299
  23260090.597   -12191649.58743  -9434488.99242  23260092.985    23260089.287
  22965441.655   -11335370.58343  -8368077.46942  22965443.261    22965441.160
  24576241.772    -1784829.17043   -888645.68642  24576243.552    24576241.409
  23540960.619    -9702540.45143  -7493408.14042  23540962.768    23540957.836
 03  3 26  2 57  0.0000000  0  8G25G31G 3G14G11G15G23G18
  22729353.278   -13477467.68043 -10447402.56442  22729355.643    22729353.187
  23042258.648    -8068888.14943  -6275086.93842  23042260.389    23042258.363
  23538355.551   -10256950.08643  -7934182.27542  23538357.427    23538356.555
  20485233.362   -24604916.10444 -19107937.95142  20485235.518    20485230.774
  23242995.695   -12281483.66743  -9504489.50842  23242998.052    23242994.311
  22984593.061   -11234729.18143  -8289655.60742  22984594.672    22984592.599
  24588169.396    -1722148.88143   -839803.89742  24588171.093    24588169.300
  23554173.562    -9633105.43843  -7439302.95042  23554175.766    23554170.943
 03  3 26  2 57 30.0000000  0  8G25G31G 3G14G11G15G23G18
  22712140.338   -13567921.83443 -10517886.22242  22712142.734    22712140.223
  23053094.301    -8011946.63243  -6230716.94842  23053095.954    23053093.989
  23553862.127   -10175462.55143  -7870685.50942  23553863.956    23553863.130
  20492156.879   -24568532.62544 -19079587.17442  20492159.051    20492154.313
  23225944.688   -12371086.89243  -9574310.13642  23225947.026    23225943.311
  23003794.576   -11133824.58843  -8211028.65442  23003796.119    23003794.110
  24600108.599    -1659407.46143   -790914.48142  24600110.270    24600108.776
  23567405.492    -9563570.52143  -7385119.91142  23567407.719    23567403.014
 03  3 26  2 58  0.0000000  0  8G25G31G 3G14G11G15G23G18
  22694965.525   -13658175.83643 -10588213.91542  22694967.924    22694965.372
  23063997.704    -7954649.08943  -6186069.53442  23063999.318    23063997.347
  23569391.662   -10093853.98143  -7807094.43442  23569393.519    23569392.789
  20499153.705   -24531764.06644 -19050936.33342  20499155.883    20499151.123
  23208934.619   -12460475.01543  -9643963.15442  23208936.909    23208933.214
  23023042.447   -11032676.52543  -8132212.00142  23023043.921    23023041.947
  24612056.168    -1596622.57543   -741991.18142  24612057.755    24612056.425
  23580653.179    -9493953.35543  -7330872.77842  23580655.345    23580650.800
 03  3 26  2 58 30.0000000  0  8G25G31G 3G14G11G15G23G18
  22677829.840   -13748224.30743 -10658381.45942  22677832.227    22677829.616
  23074968.819    -7896995.62343  -6141144.77942  23074970.433    23074968.478
  23584944.106   -10012124.76743  -7743409.34942  23584946.033    23584945.400
  20506223.937   -24494609.73944 -19021984.89542  20506226.125    20506221.355
  23191966.353   -12549643.18243  -9713444.77842  23191968.656    23191964.953
  23042336.778   -10931284.35543  -8053205.12942  23042338.205    23042336.283
  24624012.568    -1533791.22943   -693031.68842  24624014.017    24624012.779
  23593916.965    -9424251.50943  -7276559.64142  23593919.081    23593914.578
 03  3 26  2 59  0.0000000  0  8G25G31G 3G14G11G15G23G18
  22660737.763   -13838043.45343 -10728370.31142  22660740.155    22660737.472
  23086011.092    -7838967.75843  -6095928.27342  23086012.777    23086010.831
  23600523.112    -9930256.35843  -7679615.81042  23600525.092    23600524.515
  20513371.278   -24457050.29844 -18992717.78442  20513373.460    20513368.657
  23175044.551   -12638567.68343  -9782736.54442  23175046.789    23175043.096
  23061681.202   -10829628.70243  -7973992.93742  23061682.628    23061680.740
  24635981.917    -1470891.80543   -644019.12642  24635983.535    24635982.053
  23607200.921    -9354443.32043  -7222163.64342  23607203.027    23607198.566
 03  3 26  2 59 30.0000000  0  8G25G31G 3G14G11G15G23G18
  22643686.926   -13927645.68843 -10798190.12942  22643689.336    22643686.626
  23097121.264    -7780583.44843  -6050434.01142  23097122.962    23097120.964
  23616125.243    -9848267.09743  -7615728.09642  23616127.184    23616126.596
  20520592.350   -24419103.18644 -18963148.59042  20520594.558    20520589.746
  23158166.676   -12727261.24743  -9851848.35142  23158168.903    23158165.216
  23081072.482   -10727726.94143  -7894588.97942  23081073.918    23081072.006
  24647961.294    -1407939.35743   -594965.26042  24647963.100    24647961.452
  23620502.181    -9284544.40143  -7167696.94442  23620504.224    23620499.863
 03  3 26  3  0  0.0000000  0  8G25G31G 3G14G11G15G23G18
  22626676.426   -14017036.23943 -10867845.01142  22626678.806    22626676.044
  23108297.310    -7721853.15143  -6004670.15642  23108299.011    23108296.904
  23631748.300    -9766167.55543  -7551754.44942  23631750.291    23631749.669
  20527885.441   -24380777.70944 -18933284.56742  20527887.654    20527882.825
  23141331.688   -12815729.17943  -9920784.34242  23141333.916    23141330.264
  23100508.857   -10625588.27143  -7815000.41042  23100510.297    23100508.359
  24659949.483    -1344940.92343   -545875.56342  24659951.209    24659949.540
  23633819.328    -9214562.11743  -7113165.28742  23633821.373    23633817.001
 03  3 26  3  0 30.0000000  0  8G25G31G 3G14G11G15G23G18
  22609707.386   -14106208.80743 -10937330.03142  22609709.774    22609706.979
  23119539.317    -7662776.03343  -5958636.04242  23119541.045    23119538.908
  23647392.394    -9683957.24243  -7487694.48242  23647394.392    23647393.735
  20535250.799   -24342072.59644 -18903124.72742  20535253.001    20535248.156
  23124540.725   -12903965.93143  -9989540.18742  23124542.931    23124539.325
  23119990.597   -10523211.05743  -7735225.96942  23119992.045    23119990.086
  24671947.071    -1281892.69343   -496747.07142  24671948.809    24671947.095
  23647153.100    -9144492.99743  -7058565.95942  23647155.087    23647150.748
 03  3 26  3  1  0.0000000  0  8G25G31G 3G14G11G15G23G18
  22592780.959   -14195157.45743 -11006640.57542  22592783.389    22592780.482
  23130847.411    -7603351.74043  -5912331.42242  23130849.145    23130846.989
  23663057.641    -9601635.66343  -7423547.81342  23663059.623    23663058.953
  20542688.624   -24302986.48544 -18872668.00542  20542690.824    20542685.986
  23107794.789   -12991966.02043 -10058111.62242  23107797.013    23107793.377
  23139517.998   -10420593.91843  -7655264.58042  23139519.441    23139517.520
  24683954.985    -1218791.03043   -447576.93742  24683956.661    24683954.883
  23660503.951    -9074333.70443  -7003896.37242  23660506.150    23660501.680
 03  3 26  3  1 30.0000000  0  8G25G31G 3G14G11G15G23G18
  22575896.092   -14283887.56443 -11075780.82942  22575898.549    22575895.588
  23142219.416    -7543591.59943  -5865765.08342  23142221.128    23142219.046
  23678741.851    -9519214.48343  -7359323.53642  23678743.832    23678743.158
  20550196.940   -24263529.83944 -18841922.55342  20550199.151    20550194.322
  23091092.763   -13079735.47143 -10126503.33742  23091095.009    23091091.325
  23159089.095   -10317747.23543  -7575124.31942  23159090.480    23159088.661
  24695971.553    -1155644.17643   -398371.58342  24695973.104    24695971.306
  23673870.358    -9004092.91043  -6949163.27442  23673872.667    23673868.181
 03  3 26  3  2  0.0000000  0  8G25G31G 3G14G11G15G23G18
  22559054.418   -14372390.86343 -11144744.35642  22559056.849    22559053.875
  23153655.885    -7483492.68143  -5818934.76542  23153657.596    23153655.566
  23694445.561    -9436690.88743  -7295019.44442  23694447.495    23694446.905
  20557776.421   -24223699.22244 -18810885.69742  20557778.634    20557773.829
  23074436.205   -13167265.93543 -10194708.81942  23074438.450    23074434.788
  23178704.630   -10214667.29943  -7494802.30642  23178705.927    23178704.194
  24707997.847    -1092446.10043   -349126.33142  24707999.550    24707997.607
  23687253.395    -8933764.65843  -6894362.02642  23687255.740    23687251.226
 03  3 26  3  2 30.0000000  0  8G25G31G 3G14G11G15G23G18
  22542258.103   -14460655.63743 -11213522.01842  22542260.556    22542257.539
  23165158.007    -7423048.71043  -5771835.58342  23165159.680    23165157.744
  23710169.898    -9354058.82743  -7230630.84142  23710171.843    23710171.290
  20565428.525   -24183487.05544 -18779551.52642  20565430.710    20565425.969
  23057827.274   -13254546.15643 -10262719.31642  23057829.512    23057825.851
  23198365.926   -10111346.80443  -7414292.84842  23198367.160    23198365.470
  24720035.715    -1029187.13843   -299833.61842  24720037.415    24720035.333
  23700654.915    -8863339.89843  -6839485.57542  23700657.150    23700652.639
 03  3 26  3  3  0.0000000  0  8G25G31G 3G14G11G15G23G18
  22525511.987   -14548656.66543 -11282094.16142  22525514.440    22525511.410
  23176729.495    -7362240.16043  -5724452.29942  23176731.154    23176729.275
  23725918.684    -9271298.80643  -7166142.54142  23725920.540    23725919.962
  20573157.031   -24142873.20644 -18747904.35742  20573159.233    20573154.540
  23041270.657   -13341551.48643 -10330515.61542  23041272.940    23041269.239
  23218076.850   -10007765.34643  -7333580.03642  23218078.127    23218076.396
  24732089.435     -965844.69243   -250475.86242  24732090.997    24732088.910
  23714078.941    -8792796.38843  -6784516.59542  23714081.185    23714076.657
 03  3 26  3  3 30.0000000  0  8G25G31G 3G14G11G15G23G18
  22508811.097   -14636419.96943 -11350481.07242  22508813.538    22508810.519
  23188364.347    -7301098.64543  -5676809.57842  23188365.991    23188364.126
  23741685.614    -9188442.62543  -7101579.31142  23741687.506    23741687.007
  20580956.141   -24101888.48044 -18715968.19542  20580958.356    20580953.655
  23024761.327   -13428308.30743 -10398118.28042  23024763.647    23024759.910
  23237831.572    -9903953.69443  -7252687.86842  23237832.871    23237831.147
  24744153.511     -902447.30943   -201075.28642  24744154.989    24744152.998
  23727520.086    -8722162.70043  -6729477.35742  23727522.308    23727517.858
 03  3 26  3  4  0.0000000  0  8G25G31G 3G14G11G15G23G18
  22492153.251   -14723957.21443 -11418691.83242  22492155.683    22492152.656
  23200059.281    -7239641.19943  -5628920.66442  23200060.909    23200059.124
  23757467.721    -9105507.26143  -7036954.37442  23757469.609    23757469.064
  20588822.731   -24060549.14944 -18683755.71742  20588824.948    20588820.268
  23008297.034   -13514828.56543 -10465536.59842  23008299.357    23008295.631
  23257626.984    -9799927.92643  -7171628.84442  23257628.362    23257626.655
  24756225.488     -839008.64343   -151642.56542  24756226.992    24756224.973
  23740975.704    -8651452.93243  -6674378.82142  23740977.983    23740973.480
 03  3 26  3  4 30.0000000  0  8G25G31G 3G14G11G15G23G18
  22475542.426   -14811247.45043 -11486710.11942  22475544.794    22475541.862
  23211817.283    -7177852.36343  -5580773.54042  23211818.938    23211817.189
  23773267.746    -9022477.65043  -6972255.98742  23773269.733    23773269.068
  20596759.907   -24018838.99644 -18651254.28842  20596762.114    20596757.445
  22991881.697   -13601091.52143 -10532754.43742  22991884.034    22991880.302
  23277466.242    -9695671.70543  -7090390.25142  23277467.710    23277465.958
  24768308.884     -775510.09443   -102163.17142  24768310.393    24768308.392
  23754449.294    -8580648.71243  -6619206.69942  23754451.561    23754447.115
 03  3 26  3  5  0.0000000  0  8G25G31G 3G14G11G15G23G18
  22458977.546   -14898296.31443 -11554540.32842  22458979.891    22458976.968
  23223636.219    -7115743.18843  -5532376.78942  23223637.886    23223636.192
  23789083.672    -8939364.82943  -6907492.77142  23789085.616    23789084.886
  20604765.739   -23976768.03344 -18618471.70942  20604767.924    20604763.258
  22975514.178   -13687103.10543 -10599776.39642  22975516.526    22975512.788
  23297347.451    -9591195.11443  -7008979.93642  23297348.952    23297347.185
  24780402.144     -711959.51443    -52643.22542  24780403.704    24780401.582
  23767939.329    -8509758.30843  -6563967.41642  23767941.570    23767937.134
 03  3 26  3  5 30.0000000  0  8G25G31G 3G14G11G15G23G18
  22442461.227   -14985090.12543 -11622171.78842  22442463.537    22442460.601
  23235517.602    -7053306.14243  -5483724.56242  23235519.269    23235517.589
  23804916.765    -8856161.22943  -6842658.80142  23804918.761    23804918.065
  20612841.867   -23934327.83444 -18585401.41742  20612844.030    20612839.332
  22959196.945   -13772850.35643 -10666592.38342  22959199.336    22959195.587
  23317272.223    -9486489.63043  -6927391.27042  23317273.756    23317271.967
  24792507.410     -648346.07143     -3074.31142  24792508.969    24792506.959
  23781447.709    -8438771.35143  -6508652.90142  23781449.914    23781445.515
 03  3 26  3  6  0.0000000  0  8G25G31G 3G14G11G15G23G18
  22425994.612   -15071622.54143 -11689599.57642  22425996.906    22425993.985
  23247461.608    -6990540.16143  -5434816.01942  23247463.314    23247461.587
  23820767.357    -8772865.86743  -6777753.34842  23820769.365    23820768.651
  20620988.567   -23891516.70644 -18552042.09142  20620990.727    20620985.993
  22942931.264   -13858327.25343 -10733197.72442  22942933.647    22942929.859
  23337240.962    -9381553.29143  -6845622.71442  23337242.498    23337240.702
  24804625.459     -584665.58843     46546.84942  24804627.089    24804624.996
  23794975.280    -8367683.83443  -6453260.04742  23794977.469    23794973.003
 03  3 26  3  6 30.0000000  0  7G25G31G 3G14G11G15G18
  22409575.544   -15157905.05843 -11756832.63442  22409577.840    22409574.928
  23259464.967    -6927462.06543  -5385664.25242  23259466.681    23259464.954
  23836632.188    -8689495.55843  -6712789.49842  23836634.209    23836633.474
  20629202.823   -23848350.47844 -18518406.06142  20629204.997    20629200.235
  22926714.812   -13943545.24043 -10799601.30642  22926717.244    22926713.394
  23357250.573    -9276401.92043  -6763686.60142  23357252.106    23357250.344
  23808519.302    -8296509.39843  -6397799.45442  23808521.558    23808517.011
 03  3 26  3  7  0.0000000  0  7G25G31G 3G14G11G15G18
  22393205.096   -15243931.96043 -11823866.50742  22393207.412    22393204.512
  23271527.677    -6864072.23243  -5336269.58942  23271529.394    23271527.667
  23852511.208    -8606050.80343  -6647767.63342  23852513.182    23852512.484
  20637484.725   -23804828.78344 -18484493.04642  20637486.898    20637482.110
  22910548.583   -14028499.38243 -10865799.29442  22910551.006    22910547.141
  23377301.193    -9171035.10343  -6681582.61642  23377302.760    23377301.005
  23822080.280    -8225245.69343  -6342269.31642  23822082.508    23822078.043
 03  3 26  3  7 30.0000000  0  7G25G31G 3G14G11G15G18
  22376883.205   -15329703.76243 -11890701.60742  22376885.521    22376882.613
  23283648.616    -6800376.46143  -5286636.52442  23283650.309    23283648.587
  23868403.309    -8522537.35143  -6582692.22742  23868405.216    23868404.561
  20645833.382   -23760956.42844 -18450306.78642  20645835.529    20645830.719
  22894432.433   -14113190.30943 -10931792.18742  22894434.863    22894430.960
  23397391.950    -9065457.47743  -6599314.35042  23397393.567    23397391.747
  23835657.576    -8153895.68643  -6286671.90742  23835659.746    23835655.489
 03  3 26  3  8  0.0000000  0  7G25G31G 3G14G11G15G18
  22360610.316   -15415218.05143 -11957336.04342  22360612.612    22360609.692
  23295827.172    -6736377.74143  -5236767.40442  23295828.929    23295827.135
  23884307.881    -8438958.14843  -6517565.57542  23884309.794    23884309.087
  20654248.317   -23716735.62744 -18415849.00942  20654250.498    20654245.634
  22878366.806   -14197615.92343 -10997578.33942  22878369.239    22878365.280
  23417522.437    -8959671.17643  -6516883.48142  23417524.035    23417522.188
  23849251.388    -8082459.02143  -6231006.98342  23849253.491    23849249.366
 03  3 26  3  8 30.0000000  0  7G25G31G 3G14G11G15G18
  22344390.787   -15500452.11143 -12023752.12042  22344393.086    22344390.102
  23308066.546    -6672059.18143  -5186649.05342  23308068.319    23308066.530
  23900228.178    -8355296.50843  -6452374.70242  23900230.019    23900229.340
  20662732.930   -23672148.63644 -18381105.88742  20662735.133    20662730.236
  22862355.917   -14281753.85343 -11063140.31642  22862358.349    22862354.311
  23437696.046    -8853658.62043  -6434276.31342  23437697.579    23437695.692
  23862865.402    -8010916.23743  -6175259.35242  23862867.418    23862863.612
 03  3 26  3  9  0.0000000  0  7G25G31G 3G14G11G15G18
  22328222.593   -15585416.25343 -12089957.87242  22328224.919    22328221.855
  23320363.766    -6607436.33743  -5136293.58542  23320365.595    23320363.832
  23916161.176    -8271567.99043  -6387131.71142  23916162.984    23916162.318
  20671284.385   -23627210.22844 -18346088.93342  20671286.620    20671281.710
  22846397.776   -14365614.50643 -11128486.23142  22846400.199    22846396.087
  23457909.882    -8747434.30043  -6351504.12542  23457911.414    23457909.503
  23876497.285    -7939279.79443  -6119438.76742  23876499.266    23876495.501
 03  3 26  3  9 30.0000000  0  7G25G31G 3G14G11G15G18
  22312104.352   -15670118.08343 -12155959.22542  22312106.677    22312103.542
  23332716.402    -6542522.58943  -5085711.43942  23332718.225    23332716.429
  23932104.324    -8187785.89043  -6321846.96642  23932106.148    23932105.550
  20679900.363   -23581932.92144 -18310807.90042  20679902.589    20679897.680
  22830490.878   -14449205.80943 -11193622.26842  22830493.311    22830489.129
  23478161.655    -8641010.51243  -6268576.51242  23478163.212    23478161.237
  23890145.097    -7867560.10443  -6063553.28942  23890147.075    23890143.189
 03  3 26  3 10  0.0000000  0  7G25G31G 3G14G11G15G18
  22296039.863   -15754537.42043 -12221740.45442  22296042.201    22296038.980
  23345127.139    -6477303.54743  -5034891.41042  23345128.956    23345127.096
  23948060.507    -8103935.68743  -6256509.15742  23948062.308    23948061.733
  20688583.789   -23536301.11044 -18275250.63142  20688585.991    20688581.112
  22814638.918   -14532508.23943 -11258533.18942  22814641.383    22814637.100
  23498454.314    -8534371.98043  -6185481.55742  23498455.871    23498453.828
  23903812.133    -7795739.83943  -6007589.45642  23903814.164    23903810.139
 03  3 26  3 10 30.0000000  0  7G25G31G 3G14G11G15G18
  22280027.728   -15838681.31843 -12287307.05942  22280030.114    22280026.786
  23357593.631    -6411791.68443  -4983843.21542  23357595.393    23357593.457
  23964027.295    -8020029.93643  -6191128.06242  23964029.075    23964028.585
  20697332.395   -23490326.64944 -18239426.36242  20697334.630    20697329.752
  22798840.573   -14615528.86143 -11323224.52842  22798843.037    22798838.749
  23518785.618    -8427530.14443  -6102228.19342  23518787.239    23518785.154
  23917496.402    -7723828.39443  -5951554.56442  23917498.564    23917494.455
 03  3 26  3 11  0.0000000  0  7G25G31G 3G14G11G15G18
  22264069.177   -15922543.74343 -12352654.33642  22264071.538    22264068.188
  23370115.948    -6345986.34543  -4932566.32342  23370117.643    23370115.745
  23980004.727    -7936068.01643  -6125703.20042  23980006.510    23980006.068
  20706146.508   -23444008.00644 -18203333.89542  20706148.721    20706143.890
  22783096.962   -14698261.80143 -11387691.70042  22783099.417    22783095.087
  23539155.896    -8320483.53443  -6018815.26942  23539157.501    23539155.430
  23931198.742    -7651822.30343  -5895445.91742  23931200.918    23931196.804
 03  3 26  3 11 30.0000000  0  7G25G31G 3G14G11G15G18
  22248164.880   -16006121.02943 -12417779.42542  22248167.226    22248163.853
  23382693.737    -6279889.74943  -4881062.49342  23382695.329    23382693.525
  23995992.425    -7852052.04043  -6060236.21742  23995994.280    23995993.790
  20715025.872   -23397346.53744 -18166974.29142  20715028.080    20715023.261
  22767408.649   -14780704.03543 -11451932.34242  22767411.121    22767406.761
  23559564.944    -8213233.51043  -5935243.83642  23559566.510    23559564.475
  23944919.381    -7579720.49743  -5839262.69442  23944921.390    23944917.386
 03  3 26  3 12  0.0000000  0  7G25G31G 3G14G11G15G18
  22232313.500   -16089420.12043 -12482687.74742  22232315.832    22232312.462
  23395324.610    -6213514.30843  -4829341.39042  23395326.155    23395324.411
  24011988.124    -7767994.23643  -5994736.63742  24011990.019    24011989.501
  20723968.289   -23350353.69344 -18130356.47442  20723970.493    20723965.690
  22751774.345   -14862862.53343 -11515951.89342  22751776.787    22751772.448
  23580010.445    -8105791.49843  -5851522.79642  23580012.024    23580010.089
  23958656.355    -7507532.63143  -5783012.40642  23958658.313    23958654.229
 03  3 26  3 12 30.0000000  0  7G25G31G 3G14G11G15G18
  22216516.153   -16172435.33843 -12547374.86642  22216518.486    22216515.088
  23408008.589    -6146859.74043  -4777402.77142  23408010.136    23408008.414
  24027991.805    -7683894.43843  -5929204.33942  24027993.712    24027993.161
  20732973.949   -23303028.46544 -18093479.65542  20732976.168    20732971.372
  22736195.039   -14944731.94543 -11579746.18342  22736197.484    22736193.167
  23600492.767    -7998156.23943  -5767651.18142  23600494.296    23600492.394
  23972410.288    -7435255.31443  -5726692.41842  23972412.224    23972408.053
 03  3 26  3 13  0.0000000  0  7G25G31G 3G14G11G15G18
  22200773.176   -16255164.78543 -12611839.31042  22200775.527    22200772.118
  23420744.906    -6079930.01643  -4725249.76442  23420746.508    23420744.744
  24044002.718    -7599756.34843  -5863642.18542  24044004.697    24044004.093
  20742042.355   -23255373.63444 -18056346.00742  20742044.548    20742039.771
  22720671.038   -15026310.72243 -11643314.00842  22720673.472    22720669.240
  23621011.268    -7890330.72343  -5683631.31042  23621012.802    23621010.941
  23986180.988    -7362889.39443  -5670303.38742  23986182.971    23986178.851
 03  3 26  3 13 30.0000000  0  7G25G31G 3G14G11G15G18
  22185086.645   -16337597.95743 -12676072.89142  22185088.963    22185085.548
  23433534.553    -6012720.20243  -4672878.48642  23433536.161    23433534.424
  24060021.920    -7515575.05443  -5798046.36242  24060023.864    24060023.175
  20751174.553   -23207383.65244 -18018951.20142  20751176.749    20751171.929
  22705204.246   -15107588.79143 -11706647.51242  22705206.672    22705202.486
  23641567.120    -7782309.19243  -5599458.71042  23641568.651    23641566.774
  23999970.072    -7290427.33643  -5613839.43542  23999972.048    23999968.039
 03  3 26  3 14  0.0000000  0  7G25G31G 3G14G11G15G18
  22169458.457   -16419724.32743 -12740067.40842  22169460.775    22169457.374
  23446378.416    -5945225.22443  -4620285.00042  23446380.081    23446378.337
  24076050.342    -7431345.55143  -5732412.99442  24076052.198    24076051.414
  20760371.700   -23159052.26944 -17981290.36742  20760373.898    20760369.058
  22689796.728   -15188555.48943 -11769738.38942  22689799.137    22689794.991
  23662161.433    -7674085.62643  -5515128.68442  23662162.902    23662161.068
  24013779.005    -7217860.89443  -5557294.14742  24013780.967    24013776.972
 03  3 26  3 14 30.0000000  0  7G25G31G 3G14G11G15G18
  22153886.455   -16501555.62343 -12803831.99342  22153888.754    22153885.347
  23459273.256    -5877462.48343  -4567482.86242  23459274.949    23459273.265
  24092084.615    -7347084.98343  -5666755.41342  24092086.518    24092085.615
  20769630.649   -23110396.09044 -17943376.44942  20769632.860    20769628.006
  22674446.126   -15269223.16243 -11832596.26242  22674448.532    22674444.410
  23682791.057    -7565676.43543  -5430654.00842  23682792.499    23682790.683
  24027605.078    -7145204.31343  -5500678.62442  24027607.108    24027602.991
 03  3 26  3 15  0.0000000  0  7G25G31G 3G14G11G15G18
  22138373.225   -16583078.03543 -12867355.89542  22138375.526    22138372.094
  23472220.562    -5809423.40443  -4514465.40442  23472222.321    23472220.767
  24108126.495    -7262784.57743  -5601066.80242  24108128.412    24108127.532
  20778953.187   -23061405.79644 -17905202.18442  20778955.391    20778950.509
  22659155.088   -15349578.04143 -11895210.40442  22659157.491    22659153.350
  23703457.802    -7457072.12343  -5346027.28142  23703459.248    23703457.432
  24041450.533    -7072445.97543  -5443983.80842  24041452.691    24041448.362
 03  3 26  3 15 30.0000000  0  7G25G31G 3G14G11G15G18
  22122914.884   -16664312.15543 -12930655.15642  22122917.189    22122913.707
  23485215.402    -5741134.65043  -4461253.40342  23485217.165    23485215.763
  24124170.845    -7178470.99643  -5535367.91642  24124172.781    24124171.964
  20788334.415   -23012107.10644 -17866787.60842  20788336.627    20788331.726
  22643919.580   -15429641.02743 -11957597.10042  22643921.950    22643917.818
  23724156.821    -7348298.36143  -5261268.52442  23724158.193    23724156.453
  24055310.878    -6999609.52343  -5387228.12342  24055312.989    24055308.699
 03  3 26  3 16  0.0000000  0  7G25G31G 3G14G11G15G18
  22107514.605   -16745241.05443 -12993716.56942  22107516.907    22107513.425
  23498260.015    -5672584.51743  -4407837.70942  23498261.852    23498260.414
  24140219.897    -7094132.44843  -5469649.55642  24140221.860    24140221.135
  20797776.737   -22962487.38944 -17828122.87842  20797778.929    20797774.032
  22628742.774   -15509395.20943 -12019743.15842  22628745.144    22628741.043
  23744890.570    -7239342.40843  -5176367.78842  23744891.857    23744890.216
  24069188.865    -6926680.05843  -5330399.95342  24069190.983    24069186.751
 03  3 26  3 16 30.0000000  0  7G25G31G 3G14G11G15G18
  22092172.515   -16825864.20443 -13056539.74742  22092174.833    22092171.303
  23511353.432    -5603778.23943  -4354222.45042  23511355.243    23511353.791
  24156272.763    -7009773.91543  -5403915.64142  24156274.680    24156274.066
  20807279.335   -22912550.97044 -17789211.37342  20807281.523    20807276.592
  22613624.765   -15588840.60543 -12081648.61842  22613627.108    22613623.006
  23765658.084    -7130208.60443  -5091328.49142  23765659.316    23765657.707
  24083084.087    -6853660.43343  -5273501.56142  24083086.180    24083081.978
 03  3 26  3 17  0.0000000  0  7G25G31G 3G14G11G15G18
  22076888.860   -16906180.27743 -13119123.64142  22076891.167    22076887.635
  23524494.815    -5534719.79443  -4300410.67142  23524496.565    23524495.109
  24172328.748    -6925399.08443  -5338169.03242  24172330.625    24172330.098
  20816841.668   -22862300.63044 -17750055.25342  20816843.849    20816838.909
  22598565.843   -15667975.70443 -12143312.29042  22598568.130    22598564.011
  23786458.856    -7020899.86043  -5006152.86342  23786460.038    23786458.522
  24096996.350    -6780551.22843  -5216533.35942  24096998.351    24096994.216
 03  3 26  3 17 30.0000000  0  7G25G31G 3G14G11G15G18
  22061667.624   -16986168.24543 -13181451.87242  22061669.949    22061666.380
  23537687.159    -5465393.68943  -4246390.34842  23537688.862    23537687.335
  24188390.847    -6840992.53243  -5272397.69442  24188392.747    24188392.104
  20826466.782   -22811720.13644 -17710641.87042  20826468.972    20826464.031
  22583569.888   -15746779.97343 -12204718.16642  22583572.146    22583567.994
  23807296.023    -6911399.87543  -4920828.21142  23807297.205    23807295.671
  24110929.099    -6707333.80843  -5159480.81942  24110931.102    24110927.070
 03  3 26  3 18  0.0000000  0  7G25G31G 3G14G11G15G18
  22046504.247   -17065852.12843 -13243543.15242  22046506.580    22046502.979
  23550924.821    -5395829.58143  -4192184.56042  23550926.450    23550924.937
  24204453.380    -6756583.65943  -5206624.55042  24204455.233    24204454.596
  20836149.293   -22760838.17544 -17670993.57842  20836151.471    20836146.530
  22568632.315   -15825277.54843 -12265885.06342  22568634.552    22568630.360
  23828164.041    -6801737.43243  -4835376.97042  23828165.269    23828163.789
  24124877.444    -6634034.56243  -5102364.54442  24124879.558    24124875.521
 03  3 26  3 18 30.0000000  0  7G25G31G 3G14G11G15G18
  22031401.597   -17145216.88043 -13305385.75342  22031403.911    22031400.309
  23564209.512    -5326017.96043  -4137785.89242  23564211.211    23564209.599
  24220518.174    -6672162.60043  -5140841.93442  24220520.012    24220519.361
  20845891.159   -22709644.26744 -17631102.20842  20845893.347    20845888.401
  22553755.911   -15903453.62543 -12326801.45042  22553758.162    22553753.912
  23849065.037    -6691901.87543  -4749790.84942  23849066.352    23849064.852
  24138843.765    -6560641.22843  -5045174.93042  24138845.815    24138841.848
 03  3 26  3 19  0.0000000  0  7G25G31G 3G14G11G15G18
  22016357.983   -17224271.41643 -13366986.63442  22016360.250    22016356.685
  23577538.506    -5255973.67743  -4083205.92842  23577540.285    23577538.576
  24236582.456    -6587744.26443  -5075061.41342  24236584.262    24236583.591
  20855689.662   -22658152.68444 -17590978.88442  20855691.858    20855686.905
  22538938.884   -15981317.69843 -12387474.71242  22538941.138    22538936.826
  23869996.276    -6581907.23543  -4664080.75842  23869997.570    23869996.184
  24152825.651    -6487165.68543  -4987921.27042  24152827.636    24152823.716
 03  3 26  3 19 30.0000000  0  7G25G31G 3G14G11G15G18
  22001380.433   -17302978.62043 -13428316.86742  22001382.692    22001379.131
  23590917.890    -5185664.65443  -4028419.67842  23590919.692    23590917.927
  24252652.399    -6503296.26343  -5009257.79242  24252654.230    24252653.468
  20865551.113   -22606330.31644 -17550597.80642  20865553.290    20865548.373
  22524188.282   -16058832.29643 -12447875.64642  22524190.605    22524186.236
  23890964.102    -6471720.47143  -4578220.96842  23890965.432    23890964.035
  24166829.852    -6413572.93543  -4930576.27342  24166831.927    24166827.918
 03  3 26  3 20  0.0000000  0  7G25G31G 3G14G11G15G18
  21986465.604   -17381356.21043 -13489390.25942  21986467.855    21986464.313
  23604343.127    -5115114.48243  -3973445.53342  23604344.984    23604343.132
  24268723.489    -6418841.90243  -4943449.19842  24268725.370    24268724.562
  20875471.224   -22554199.72144 -17509976.54542  20875473.397    20875468.506
  22509500.791   -16136015.37243 -12508018.25942  22509503.110    22509498.736
  23911964.146    -6361364.27943  -4492229.15042  23911965.477    23911964.173
  24180852.568    -6339883.53043  -4873155.98142  24180854.578    24180850.510
 03  3 26  3 20 30.0000000  0  7G25G31G 3G14G11G15G18
  21971612.277   -17459410.60043 -13550211.80542  21971614.521    21971611.015
  23617812.129    -5044334.74343  -3918292.51042  23617814.029    23617812.086
  24284793.665    -6334392.70043  -4877644.64442  24284795.519    24284794.681
  20885448.088   -22501771.05544 -17469123.02142  20885450.258    20885445.354
  22494875.101   -16212873.43443 -12567907.61242  22494877.431    22494873.114
  23932994.432    -6250849.15943  -4406113.49942  23932995.761    23932994.494
  24194892.144    -6266105.24943  -4815666.40142  24194894.237    24194890.028
 03  3 26  3 21  0.0000000  0  7G25G31G 3G14G11G15G18
  21956821.147   -17537138.26843 -13610778.76342  21956823.392    21956819.872
  23631324.422    -4973327.71143  -3862962.35842  23631326.325    23631324.295
  24300862.507    -6249950.87443  -4811845.83642  24300864.395    24300863.421
  20895481.305   -22449046.05544 -17428038.58642  20895483.490    20895478.577
  22480311.873   -16289403.46143 -12627541.35242  22480314.180    22480309.951
  23954054.741    -6140176.58543  -4319875.13442  23954056.022    23954054.743
  24208948.807    -6192237.50843  -4758107.15242  24208950.789    24208946.571
 03  3 26  3 21 30.0000000  0  7G25G31G 3G14G11G15G18
  21942095.554   -17614521.76343 -13671077.53742  21942097.782    21942094.243
  23644882.273    -4902081.07043  -3807445.50742  23644884.101    23644882.074
  24316932.263    -6165503.57543  -4746042.74642  24316934.277    24316933.309
  20905573.417   -22396011.61744 -17386713.03442  20905575.633    20905570.681
  22465814.364   -16365587.88043 -12686905.78742  22465816.720    22465812.525
  23975147.544    -6029333.17743  -4233503.66142  23975148.837    23975147.594
  24223025.279    -6118265.31943  -4700466.48442  24223027.357    24223022.983
 03  3 26  3 22  0.0000000  0  7G25G31G 3G14G11G15G18
  21927432.226   -17691578.00943 -13731121.31042  21927434.465    21927430.906
  23658481.427    -4830617.27643  -3751759.44242  23658483.230    23658481.243
  24332998.799    -6081073.06543  -4680252.75942  24333000.809    24333000.060
  20915720.338   -22342689.11344 -17345163.01342  20915722.557    20915717.586
  22451379.446   -16441443.77543 -12746014.22642  22451381.732    22451377.602
  23996268.694    -5918340.61343  -4147015.95842  23996270.049    23996268.735
  24237117.901    -6044208.11843  -4642759.56642  24237119.928    24237115.457
 03  3 26  3 22 30.0000000  0  7G25G31G 3G14G11G15G18
  21912833.266   -17768295.96143 -13790901.47742  21912835.538    21912831.920
  23672122.868    -4758931.15943  -3695900.14242  23672124.625    23672122.683
  24349063.227    -5996653.96043  -4614471.63742  24349065.282    24349064.655
  20925923.254   -22289072.29144 -17303383.65342  20925925.496    20925920.501
  22437009.026   -16516960.60243 -12804858.45942  22437011.280    22437007.180
  24017419.386    -5807192.65943  -4060407.16542  24017420.816    24017419.519
  24251228.250    -5970057.37043  -4584979.76742  24251230.281    24251225.889
 03  3 26  3 23  0.0000000  0  7G25G31G 3G14G11G15G18
  21898300.246   -17844667.28643 -13850411.54442  21898302.540    21898298.901
  23685807.162    -4687019.91443  -3639865.41142  23685808.987    23685807.015
  24365126.037    -5912243.31143  -4548697.13742  24365128.114    24365127.428
  20936182.885   -22235157.52144 -17261372.12842  20936185.117    20936180.075
  22422704.690   -16592130.23343 -12863432.14542  22422706.941    22422702.804
  24038600.370    -5695885.75043  -3973674.52042  24038601.906    24038600.576
  24265357.451    -5895807.46343  -4527122.67942  24265359.604    24265355.041
 03  3 26  3 23 30.0000000  0  7G25G31G 3G14G11G15G18
  21883831.160   -17920702.74843 -13909659.90342  21883833.444    21883829.760
  23699531.153    -4614899.61043  -3583667.77542  23699533.046    23699531.083
  24381184.244    -5827856.94643  -4482941.54542  24381186.315    24381185.679
  20946496.325   -22180959.82244 -17219140.13442  20946498.574    20946493.496
  22408464.367   -16666963.27043 -12921743.55142  22408466.615    22408462.479
  24059808.690    -5584435.07043  -3886829.85242  24059810.295    24059808.940
  24279503.052    -5821471.47243  -4469198.54542  24279505.241    24279500.646
 03  3 26  3 24  0.0000000  0  7G25G31G 3G14G11G15G18
  21869428.923   -17996386.81543 -13968634.44942  21869431.215    21869427.508
  23713296.860    -4542560.19043  -3527299.40642  23713298.742    23713296.776
  24397239.782    -5743484.33643  -4417196.66542  24397241.896    24397241.356
  20956865.702   -22126468.24244 -17176679.14342  20956867.950    20956862.825
  22394290.965   -16741444.41643 -12979780.75242  22394293.242    22394289.114
  24081046.455    -5472829.53743  -3799864.48442  24081048.139    24081046.699
  24293667.604    -5747036.02543  -4411196.89542  24293669.748    24293665.296
 03  3 26  3 24 30.0000000  0  7G25G31G 3G14G11G15G18
  21855091.717   -18071729.14543 -14027342.70242  21855094.002    21855090.268
  23727101.460    -4470016.75443  -3470772.06142  23727103.253    23727101.302
  24413289.869    -5659140.33043  -4351474.07642  24413292.081    24413291.471
  20967288.271   -22071697.07444 -17134000.29142  20967290.534    20967285.357
  22380182.626   -16815583.74543 -13037551.61342  22380184.918    22380180.797
  24102311.036    -5361083.28243  -3712789.49642  24102312.800    24102311.275
  24307848.787    -5672513.08043  -4353127.06942  24307850.977    24307846.402
 03  3 26  3 25  0.0000000  0  7G25G31G 3G14G11G15G18
  21840822.893   -18146712.18043 -14085770.98242  21840825.150    21840821.394
  23740947.113    -4397257.20743  -3414076.31842  23740948.883    23740946.997
  24429336.883    -5574812.61143  -4285764.16642  24429339.103    24429338.517
  20977766.552   -22016633.13744 -17091093.31142  20977768.790    20977763.614
  22366142.796   -16889363.49643 -13095042.27342  22366145.029    22366140.923
  24123604.901    -5249183.17043  -3625594.61742  24123606.714    24123605.098
  24322049.564    -5597887.67743  -4294977.42142  24322051.640    24322047.127
 03  3 26  3 25 30.0000000  0  7G25G31G 3G14G11G15G18
  21826621.395   -18221341.22443 -14143923.42742  21826623.683    21826619.897
  23754831.865    -4324292.30043  -3357220.55242  23754833.595    23754831.774
  24445378.827    -5490511.71343  -4220075.14642  24445381.044    24445380.429
  20988298.689   -21961286.12044 -17047965.74642  20988300.937    20988295.793
  22352170.366   -16962789.14343 -13152257.01542  22352172.560    22352168.440
  24144926.175    -5137139.30043  -3538287.70142  24144927.960    24144926.301
  24336268.367    -5523167.51443  -4236753.90242  24336270.376    24336265.928
 03  3 26  3 26  0.0000000  0  7G25G31G 3G14G11G15G18
  21812487.763   -18295613.69043 -14201798.02142  21812490.057    21812486.274
  23768755.057    -4251125.23243  -3300207.26842  23768756.847    23768754.932
  24461415.181    -5406240.16043  -4154409.01142  24461417.365    24461416.800
  20998884.313   -21905658.17444 -17004619.28042  20998886.543    20998881.440
  22338265.782   -17035858.29243 -13209193.95642  22338267.975    22338263.788
  24166274.366    -5024953.70743  -3450870.36842  24166276.169    24166274.402
  24350505.225    -5448352.78543  -4178456.70042  24350507.256    24350502.665
 03  3 26  3 26 30.0000000  0  7G25G31G 3G14G11G15G18
  21798421.481   -18369532.19243 -14259396.80042  21798423.771    21798419.974
  23782715.257    -4177763.67943  -3243042.42842  23782717.011    23782715.135
  24477444.648    -5322005.48543  -4088771.62042  24477446.759    24477446.073
  21009522.139   -21849756.11244 -16961059.21442  21009524.356    21009519.258
  22324428.524   -17108573.59843 -13265855.18642  22324430.723    22324426.466
  24187648.253    -4912633.09843  -3363347.81442  24187649.997    24187648.166
  24364759.144    -5373448.00443  -4120089.34842  24364761.204    24364756.727
 03  3 26  3 27  0.0000000  0  7G25G31G 3G14G11G15G18
  21784425.097   -18443083.42243 -14316709.38942  21784427.377    21784423.599
  23796713.979    -4104199.55743  -3185719.74242  23796715.753    23796714.021
  24493468.514    -5237799.42843  -4023156.51642  24493470.620    24493469.885
  21020213.825   -21793570.83944 -16917278.46542  21020216.055    21020210.959
  22310661.095   -17180921.79743 -13322230.35942  22310663.344    22310659.004
  24209049.514    -4800168.78543  -3275713.25742  24209051.232    24209049.351
  24379032.330    -5298441.79743  -4061642.95642  24379034.455    24379030.114
 03  3 26  3 27 30.0000000  0  7G25G31G 3G14G11G15G18
  21770499.221   -18516264.22543 -14373733.33742  21770501.509    21770497.707
  23810750.775    -4030435.64743  -3128241.38342  23810752.491    23810750.885
  24509486.404    -5153624.62043  -3957565.74742  24509488.513    24509487.877
  21030959.067   -21737104.15844 -16873278.43742  21030961.309    21030956.209
  22296964.079   -17252900.09743 -13378317.29242  22296966.346    22296961.904
  24230477.825    -4687562.48543  -3187968.08242  24230479.519    24230477.532
  24393324.695    -5223334.24743  -4003117.58242  24393326.912    24393322.615
 03  3 26  3 28  0.0000000  0  7G25G31G 3G14G11G15G18
  21756642.636   -18589080.93443 -14430473.57742  21756644.912    21756641.086
  23824823.393    -3956483.61343  -3070616.42942  23824825.149    23824823.454
  24525496.247    -5069492.24643  -3892008.06342  24525498.316    24525497.770
  21041755.816   -21680366.82944 -16829067.52042  21041758.044    21041752.981
  22283336.203   -17324515.06043 -13434121.11342  22283338.488    22283333.975
  24251931.177    -4574824.72943  -3100120.48342  24251932.730    24251930.820
  24407634.901    -5148133.74643  -3944519.78542  24407637.113    24407632.932
 03  3 26  3 28 30.0000000  0  7G25G31G 3G14G11G15G18
  21742852.899   -18661546.18043 -14486939.94942  21742855.185    21742851.349
  23838928.533    -3882360.89543  -3012858.47042  23838930.244    23838928.584
  24541494.785    -4985419.44943  -3826496.80442  24541496.828    24541496.305
  21052600.938   -21623375.15444 -16784658.40842  21052603.170    21052598.162
  22269775.167   -17395778.63443 -13489651.11342  22269777.474    22269772.918
  24273406.244    -4461972.28943  -3012183.49042  24273407.793    24273405.956
  24421960.098    -5072854.76843  -3885860.85542  24421962.173    24421958.142
 03  3 26  3 29  0.0000000  0  7G25G31G 3G14G11G15G18
  21729136.130   -18733627.98143 -14543107.53942  21729138.416    21729134.575
  23853071.119    -3808041.23343  -2954947.04342  23853072.871    23853071.147
  24557487.090    -4901379.60743  -3761011.21642  24557489.029    24557488.541
  21063499.643   -21566102.04944 -16740030.00342  21063501.857    21063496.875
  22256286.920   -17466659.69243 -13544883.06942  22256289.251    22256284.658
  24294908.478    -4348978.02743  -2924136.02042  24294909.891    24294908.030
  24436305.709    -4997467.97143  -3827117.90642  24436307.905    24436303.946
 03  3 26  3 29 30.0000000  0  7G25G31G 3G14G11G15G18
  21715486.853   -18805355.14243 -14598998.78242  21715489.136    21715485.306
  23867244.665    -3733559.01543  -2896908.95742  23867246.488    23867244.714
  24573466.493    -4817406.59343  -3695577.70642  24573468.575    24573468.022
  21074445.556   -21508580.72144 -16695208.17642  21074447.767    21074442.796
  22242866.049   -17537186.81743 -13599839.22342  22242868.384    22242863.742
  24316431.289    -4235875.29543  -2836004.02642  24316432.716    24316430.709
  24450665.954    -4922004.57043  -3768315.26742  24450668.048    24450664.206
